[[{"header":{"parameterUnit":"m.s-1","parameterCategory":1,"la1":31.0,"la2":29.5877,"lo1":-88.7671,"lo2":-86.6584,"dx":0.0162,"dy":0.0185,"nx":115,"ny":88,"refTime":"2022-11-10T06:00:00:Z","depth":0,"parameterNumber":2,"parameterNumberName":"U-component_of_WINDS"},"data":[0.0,0.0,0.0,0.0,0.0,0.0,0.0,0.0,0.0,0.0,0.0,0.0,0.0,0.0,0.0,0.0,0.0,0.0,0.0,0.0,0.0,0.0,0.0,0.0,0.0,0.0,0.0,0.0,0.0,0.0,0.0,0.0,0.0,0.0,0.0,0.0,0.0,0.0,0.0,0.0,0.0,0.0,0.0,0.0,0.0,0.0,0.0,0.0,0.0,0.0,0.0,0.0,0.0,0.0,0.0,0.0,0.0,0.0,0.0,0.0,0.0,0.0,0.0,0.0,0.0,0.0,0.0,0.0,0.0,0.0,0.0,0.0,0.0,0.0,0.0,0.0,0.0,0.0,0.0,0.0,0.0,0.0,0.0,0.0,0.0,0.0,0.0,0.0,0.0,0.0,0.0,0.0,0.0,0.0,0.0,0.0,0.0,0.0,0.0,0.0,0.0,0.0,0.0,0.0,0.0,0.0,0.0,0.0,0.0,0.0,0.0,0.0,0.0,0.0,0.0,0.0,0.0,0.0,0.0,0.0,0.0,0.0,0.0,0.0,0.0,0.0,0.0,0.0,0.0,0.0,0.0,0.0,0.0,0.0,0.0,0.0,0.0,0.0,0.0,0.0,0.0,0.0,0.0,0.0,0.0,0.0,0.0,0.0,0.0,0.0,0.0,0.0,0.0,0.0,0.0,0.0,0.0,0.0,0.0,0.0,0.0,0.0,0.0,0.0,0.0,0.0,0.0,0.0,0.0,0.0,0.0,0.0,0.0,0.0,0.0,0.0,0.0,0.0,0.0,0.0,0.0,0.0,0.0,0.0,0.0,0.0,0.0,0.0,0.0,0.0,0.0,0.0,0.0,0.0,0.0,0.0,0.0,0.0,0.0,0.0,0.0,0.0,0.0,0.0,0.0,0.0,0.0,0.0,0.0,0.0,0.0,0.0,0.0,0.0,0.0,0.0,0.0,0.0,0.0,0.0,0.0,0.0,0.0,0.0,0.0,0.0,0.0,0.0,0.0,0.0,0.0,0.0,0.0,0.0,0.0,0.0,0.0,0.0,0.0,0.0,0.0,0.0,0.0,0.0,0.0,0.0,0.0,0.0,0.0,0.0,0.0,0.0,0.0,0.0,0.0,0.0,0.0,0.0,0.0,0.0,0.0,0.0,0.0,0.0,0.0,0.0,0.0,0.0,0.0,0.0,0.0,0.0,0.0,0.0,0.0,0.0,0.0,0.0,0.0,0.0,0.0,0.0,0.0,0.0,0.0,0.0,0.0,0.0,0.0,0.0,0.0,0.0,0.0,0.0,0.0,0.0,0.0,0.0,0.0,0.0,0.0,0.0,0.0,0.0,0.0,0.0,0.0,0.0,0.0,0.0,0.0,0.0,0.0,0.0,0.0,0.0,0.0,0.0,0.0,0.0,0.0,0.0,0.0,0.0,0.0,0.0,0.0,0.0,0.0,0.0,0.0,0.0,0.0,0.0,0.0,0.0,0.0,0.0,0.0,0.0,0.0,0.0,0.0,0.0,0.0,0.0,0.0,0.0,0.0,0.0,0.0,0.0,0.0,0.0,0.0,0.0,0.0,0.0,0.0,0.0,0.0,0.0,0.0,0.0,0.0,0.0,0.0,0.0,0.0,0.0,0.0,0.0,0.0,0.0,0.0,0.0,0.0,0.0,0.0,0.0,0.0,0.0,0.0,0.0,0.0,0.0,0.0,0.0,0.0,0.0,0.0,0.0,0.0,0.0,0.0,0.0,0.0,0.0,0.0,0.0,0.0,0.0,0.0,0.0,0.0,0.0,0.0,0.0,0.0,0.0,0.0,0.0,0.0,0.0,0.0,0.0,0.0,0.0,0.0,0.0,0.0,0.0,0.0,0.0,0.0,0.0,0.0,0.0,0.0,0.0,0.0,0.0,0.0,0.0,0.0,0.0,0.0,0.0,0.0,0.0,0.0,0.0,0.0,0.0,0.0,0.0,0.0,0.0,0.0,0.0,0.0,0.0,0.0,0.0,0.0,0.0,0.0,0.0,0.0,0.0,0.0,0.0,0.0,0.0,0.0,0.0,0.0,0.0,0.0,0.0,0.0,0.0,0.0,0.0,0.0,0.0,0.0,0.0,0.0,0.0,0.0,0.0,0.0,0.0,0.0,0.0,0.0,0.0,0.0,0.0,0.0,0.0,0.0,0.0,0.0,0.0,0.0,0.0,0.0,0.0,0.0,0.0,0.0,0.0,0.0,0.0,0.0,0.0,0.0,0.0,0.0,0.0,0.0,0.0,0.0,0.0,0.0,0.0,0.0,0.0,0.0,0.0,0.0,0.0,0.0,0.0,0.0,0.0,0.0,0.0,0.0,0.0,0.0,0.0,0.0,0.0,0.0,0.0,0.0,0.0,0.0,0.0,0.0,0.0,0.0,0.0,0.0,0.0,0.0,0.0,0.0,0.0,0.0,0.0,0.0,0.0,0.0,0.0,0.0,0.0,0.0,0.0,0.0,0.0,0.0,0.0,0.0,0.0,0.0,0.0,0.0,0.0,0.0,0.0,0.0,0.0,0.0,0.0,0.0,0.0,0.0,0.0,0.0,0.0,0.0,0.0,0.0,0.0,0.0,0.0,0.0,0.0,0.0,0.0,0.0,0.0,0.0,0.0,0.0,0.0,0.0,0.0,0.0,0.0,0.0,0.0,0.0,0.0,0.0,0.0,0.0,0.0,0.0,0.0,0.0,0.0,0.0,0.0,0.0,0.0,0.0,0.0,0.0,0.0,0.0,0.0,0.0,0.0,0.0,0.0,0.0,0.0,0.0,0.0,0.0,0.0,0.0,0.0,0.0,0.0,0.0,0.0,0.0,0.0,0.0,0.0,0.0,0.0,0.0,0.0,0.0,0.0,0.0,0.0,0.0,0.0,0.0,0.0,0.0,0.0,0.0,0.0,0.0,0.0,0.0,0.0,0.0,0.0,0.0,0.0,0.0,0.0,0.0,0.0,0.0,0.0,0.0,0.0,0.0,0.0,0.0,0.0,0.0,0.0,0.0,0.0,0.0,0.0,0.0,0.0,0.0,0.0,0.0,0.0,0.0,0.0,0.0,0.0,0.0,0.0,0.0,0.0,0.0,0.0,0.0,0.0,0.0,0.0,0.0,0.0,0.0,0.0,0.0,0.0,0.0,0.0,0.0,0.0,0.0,0.0,0.0,0.0,0.0,0.0,0.0,0.0,0.0,0.0,0.0,0.0,0.0,0.0,0.0,0.0,0.0,0.0,0.0,0.0,0.0,0.0,0.0,0.0,0.0,0.0,0.0,0.0,0.0,0.0,0.0,0.0,0.0,0.0,0.0,0.0,0.0,0.0,0.0,0.0,0.0,0.0,0.0,0.0,0.0,0.0,0.0,0.0,0.0,0.0,0.0,0.0,0.0,0.0,0.0,0.0,0.0,0.0,0.0,0.0,0.0,0.0,0.0,0.0,0.0,0.0,0.0,0.0,0.0,0.0,0.0,0.0,0.0,0.0,0.0,0.0,0.0,0.0,0.0,0.0,0.0,0.0,0.0,0.0,0.0,0.0,0.0,0.0,0.0,0.0,0.0,0.0,0.0,0.0,0.0,0.0,0.0,0.0,0.0,0.0,0.0,0.0,0.0,0.0,0.0,0.0,0.0,0.0,0.0,0.0,0.0,0.0,0.0,0.0,0.0,0.0,0.0,0.0,0.0,0.0,0.0,0.0,0.0,0.0,0.0,0.0,0.0,0.0,0.0,0.0,0.0,0.0,0.0,0.0,0.0,0.0,0.0,0.0,0.0,0.0,0.0,0.0,0.0,0.0,0.0,0.0,0.0,0.0,0.0,0.0,0.0,0.0,0.0,0.0,0.0,0.0,0.0,0.0,0.0,0.0,0.0,0.0,0.0,0.0,0.0,0.0,0.0,0.0,0.0,0.0,0.0,0.0,0.0,0.0,0.0,0.0,0.0,0.0,0.0,0.0,0.0,0.0,0.0,0.0,0.0,0.0,0.0,0.0,0.0,0.0,0.0,0.0,0.0,0.0,0.0,0.0,0.0,0.0,0.0,0.0,0.0,0.0,0.0,0.0,0.0,0.0,0.0,0.0,0.0,0.0,0.0,0.0,0.0,0.0,0.0,0.0,0.0,0.0,0.0,0.0,0.0,0.0,0.0,0.0,0.0,0.0,0.0,0.0,0.0,0.0,0.0,0.0,0.0,0.0,0.0,0.0,0.0,0.0,0.0,0.0,0.0,0.0,0.0,0.0,4.3875,0.0,0.0,0.0,4.2436,0.0,0.0,0.0,0.0,0.0,0.0,0.0,0.0,0.0,0.0,0.0,0.0,0.0,0.0,0.0,0.0,0.0,0.0,0.0,0.0,0.0,0.0,0.0,0.0,0.0,0.0,0.0,0.0,0.0,0.0,0.0,0.0,0.0,0.0,0.0,0.0,0.0,0.0,0.0,0.0,0.0,0.0,0.0,0.0,0.0,0.0,0.0,0.0,0.0,0.0,0.0,0.0,0.0,0.0,0.0,0.0,0.0,0.0,0.0,0.0,0.0,0.0,0.0,0.0,0.0,0.0,0.0,0.0,0.0,0.0,0.0,0.0,0.0,0.0,0.0,0.0,0.0,0.0,0.0,0.0,0.0,0.0,0.0,0.0,0.0,0.0,0.0,0.0,0.0,0.0,0.0,0.0,0.0,0.0,0.0,0.0,0.0,0.0,0.0,0.0,0.0,0.0,0.0,0.0,0.0,0.0,0.0,0.0,0.0,0.0,4.3517,4.3916,4.3509,4.32,4.3103,0.0,0.0,0.0,0.0,0.0,0.0,0.0,0.0,0.0,0.0,0.0,0.0,0.0,0.0,0.0,0.0,0.0,0.0,0.0,0.0,0.0,0.0,0.0,0.0,0.0,0.0,0.0,0.0,0.0,0.0,0.0,0.0,0.0,0.0,0.0,0.0,0.0,0.0,0.0,0.0,0.0,0.0,0.0,0.0,0.0,0.0,0.0,0.0,0.0,0.0,0.0,0.0,0.0,0.0,0.0,0.0,0.0,0.0,0.0,0.0,0.0,0.0,0.0,0.0,0.0,0.0,0.0,0.0,0.0,0.0,0.0,0.0,0.0,0.0,0.0,0.0,0.0,0.0,0.0,0.0,0.0,0.0,0.0,0.0,0.0,0.0,0.0,0.0,0.0,0.0,0.0,0.0,0.0,0.0,0.0,0.0,0.0,0.0,0.0,0.0,0.0,0.0,0.0,0.0,0.0,0.0,0.0,0.0,0.0,0.0,0.0,0.0,4.3021,4.2692,4.2654,0.0,0.0,0.0,0.0,0.0,0.0,0.0,0.0,0.0,0.0,0.0,0.0,0.0,0.0,0.0,0.0,0.0,0.0,0.0,0.0,0.0,0.0,0.0,0.0,0.0,0.0,0.0,0.0,0.0,0.0,0.0,0.0,0.0,0.0,0.0,0.0,0.0,0.0,0.0,0.0,0.0,0.0,0.0,0.0,0.0,0.0,0.0,0.0,0.0,0.0,0.0,0.0,0.0,0.0,0.0,0.0,0.0,0.0,0.0,0.0,0.0,0.0,0.0,0.0,0.0,0.0,0.0,0.0,0.0,0.0,0.0,0.0,0.0,0.0,0.0,0.0,0.0,0.0,0.0,0.0,0.0,0.0,0.0,0.0,0.0,0.0,0.0,0.0,0.0,0.0,0.0,0.0,0.0,0.0,0.0,0.0,0.0,0.0,0.0,0.0,0.0,0.0,0.0,0.0,0.0,0.0,0.0,0.0,0.0,0.0,4.3539,4.2823,4.2686,0.0,4.0137,0.0,0.0,0.0,0.0,0.0,0.0,0.0,0.0,0.0,0.0,0.0,0.0,0.0,0.0,0.0,0.0,0.0,0.0,0.0,0.0,0.0,0.0,0.0,0.0,0.0,0.0,0.0,0.0,0.0,0.0,0.0,0.0,0.0,0.0,0.0,0.0,0.0,0.0,0.0,0.0,0.0,0.0,0.0,0.0,0.0,0.0,0.0,0.0,0.0,0.0,0.0,0.0,0.0,0.0,0.0,0.0,0.0,0.0,0.0,0.0,0.0,0.0,0.0,0.0,0.0,0.0,0.0,0.0,0.0,0.0,0.0,0.0,0.0,0.0,0.0,0.0,0.0,0.0,0.0,0.0,0.0,0.0,0.0,0.0,0.0,0.0,0.0,0.0,0.0,0.0,0.0,0.0,0.0,0.0,0.0,0.0,0.0,0.0,0.0,0.0,0.0,0.0,0.0,0.0,0.0,0.0,0.0,0.0,0.0,0.0,4.2319,4.1864,4.2255,4.1556,0.0,0.0,0.0,0.0,0.0,0.0,0.0,0.0,0.0,0.0,0.0,0.0,0.0,0.0,0.0,0.0,0.0,0.0,0.0,0.0,0.0,0.0,0.0,0.0,0.0,0.0,0.0,0.0,0.0,0.0,0.0,0.0,0.0,0.0,0.0,0.0,0.0,0.0,0.0,0.0,0.0,0.0,0.0,0.0,0.0,0.0,0.0,0.0,0.0,0.0,0.0,0.0,0.0,0.0,0.0,0.0,0.0,0.0,0.0,0.0,0.0,0.0,0.0,0.0,0.0,0.0,0.0,0.0,0.0,0.0,0.0,0.0,0.0,0.0,0.0,0.0,0.0,0.0,0.0,0.0,0.0,0.0,0.0,0.0,0.0,0.0,0.0,0.0,0.0,0.0,0.0,0.0,0.0,0.0,0.0,0.0,0.0,0.0,0.0,0.0,0.0,0.0,0.0,0.0,0.0,0.0,0.0,0.0,0.0,0.0,4.2046,4.1773,4.1663,4.2492,4.1883,3.9685,0.0,0.0,0.0,0.0,0.0,0.0,0.0,0.0,0.0,0.0,0.0,0.0,0.0,0.0,0.0,0.0,0.0,0.0,0.0,0.0,0.0,0.0,0.0,0.0,0.0,0.0,0.0,0.0,0.0,0.0,0.0,0.0,0.0,0.0,0.0,0.0,0.0,0.0,0.0,0.0,0.0,0.0,0.0,0.0,0.0,0.0,0.0,0.0,0.0,0.0,0.0,0.0,0.0,0.0,0.0,0.0,0.0,0.0,0.0,0.0,0.0,0.0,0.0,0.0,0.0,0.0,0.0,0.0,0.0,0.0,0.0,0.0,0.0,0.0,0.0,0.0,0.0,0.0,0.0,0.0,0.0,0.0,0.0,0.0,0.0,0.0,0.0,0.0,0.0,0.0,0.0,0.0,0.0,0.0,0.0,0.0,0.0,0.0,0.0,0.0,0.0,0.0,0.0,0.0,0.0,0.0,0.0,0.0,4.1575,4.2305,4.2559,4.2366,4.3752,4.2948,0.0,0.0,0.0,0.0,0.0,0.0,0.0,0.0,0.0,0.0,0.0,0.0,0.0,0.0,0.0,0.0,0.0,0.0,0.0,0.0,0.0,0.0,0.0,0.0,0.0,0.0,0.0,0.0,0.0,0.0,0.0,0.0,0.0,0.0,0.0,0.0,0.0,0.0,0.0,0.0,0.0,0.0,0.0,0.0,0.0,0.0,0.0,0.0,0.0,0.0,0.0,0.0,0.0,0.0,0.0,0.0,0.0,0.0,0.0,0.0,0.0,0.0,0.0,0.0,0.0,0.0,0.0,0.0,0.0,0.0,0.0,0.0,0.0,0.0,0.0,0.0,0.0,0.0,0.0,0.0,0.0,0.0,0.0,0.0,0.0,0.0,0.0,0.0,0.0,0.0,0.0,0.0,0.0,0.0,0.0,0.0,0.0,0.0,0.0,0.0,0.0,0.0,0.0,0.0,0.0,0.0,0.0,0.0,0.0,4.2259,4.3057,4.3053,4.2464,4.3344,4.2728,0.0,0.0,0.0,0.0,0.0,0.0,0.0,0.0,0.0,0.0,0.0,0.0,0.0,0.0,0.0,0.0,0.0,0.0,0.0,0.0,0.0,0.0,0.0,0.0,0.0,0.0,0.0,0.0,0.0,0.0,0.0,0.0,0.0,0.0,0.0,0.0,0.0,0.0,0.0,0.0,0.0,0.0,0.0,0.0,0.0,0.0,0.0,0.0,0.0,0.0,0.0,0.0,0.0,0.0,0.0,0.0,0.0,0.0,0.0,0.0,0.0,0.0,0.0,0.0,0.0,0.0,0.0,0.0,0.0,0.0,0.0,0.0,0.0,0.0,0.0,0.0,0.0,0.0,0.0,0.0,0.0,0.0,0.0,0.0,0.0,0.0,0.0,0.0,0.0,0.0,0.0,0.0,0.0,0.0,0.0,0.0,0.0,0.0,0.0,0.0,0.0,0.0,0.0,0.0,0.0,0.0,0.0,0.0,0.0,4.3489,4.3968,4.3959,4.3587,4.3887,4.3301,0.0,0.0,0.0,0.0,0.0,0.0,0.0,0.0,0.0,0.0,0.0,0.0,0.0,0.0,0.0,0.0,0.0,0.0,0.0,0.0,0.0,0.0,0.0,0.0,0.0,0.0,0.0,0.0,0.0,0.0,0.0,0.0,0.0,0.0,0.0,0.0,0.0,0.0,0.0,0.0,0.0,0.0,0.0,0.0,0.0,0.0,0.0,0.0,0.0,0.0,0.0,0.0,0.0,0.0,0.0,0.0,0.0,0.0,0.0,0.0,0.0,0.0,0.0,0.0,0.0,0.0,0.0,0.0,0.0,0.0,0.0,0.0,0.0,0.0,0.0,0.0,0.0,0.0,0.0,0.0,0.0,0.0,0.0,0.0,0.0,0.0,0.0,0.0,0.0,0.0,0.0,0.0,0.0,0.0,0.0,0.0,0.0,0.0,0.0,0.0,0.0,0.0,0.0,0.0,0.0,0.0,0.0,0.0,4.2839,4.5012,4.5159,4.5464,4.5929,4.573,4.4845,0.0,0.0,0.0,0.0,0.0,0.0,0.0,0.0,0.0,0.0,0.0,0.0,0.0,0.0,0.0,0.0,0.0,0.0,0.0,0.0,0.0,0.0,0.0,0.0,0.0,0.0,0.0,0.0,0.0,0.0,0.0,0.0,0.0,0.0,0.0,0.0,0.0,0.0,0.0,0.0,0.0,0.0,0.0,0.0,0.0,0.0,0.0,0.0,0.0,0.0,0.0,0.0,0.0,0.0,0.0,0.0,0.0,0.0,0.0,0.0,0.0,0.0,0.0,0.0,0.0,0.0,0.0,0.0,0.0,0.0,0.0,0.0,0.0,0.0,0.0,0.0,0.0,0.0,0.0,0.0,0.0,0.0,0.0,0.0,0.0,0.0,0.0,0.0,0.0,0.0,0.0,0.0,0.0,0.0,0.0,0.0,0.0,0.0,0.0,0.0,0.0,0.0,0.0,0.0,0.0,0.0,0.0,0.0,0.0,4.6809,4.8273,4.8871,4.8397,4.7615,4.6365,0.0,0.0,0.0,0.0,0.0,0.0,0.0,0.0,0.0,0.0,0.0,0.0,0.0,0.0,0.0,0.0,0.0,0.0,0.0,0.0,0.0,0.0,0.0,0.0,0.0,0.0,0.0,0.0,0.0,0.0,0.0,0.0,0.0,0.0,0.0,0.0,0.0,0.0,0.0,0.0,0.0,0.0,0.0,0.0,0.0,0.0,0.0,0.0,0.0,0.0,0.0,0.0,0.0,0.0,0.0,0.0,0.0,0.0,0.0,0.0,0.0,0.0,0.0,0.0,0.0,0.0,0.0,0.0,0.0,0.0,0.0,0.0,0.0,0.0,0.0,0.0,0.0,0.0,0.0,0.0,0.0,0.0,0.0,0.0,0.0,0.0,0.0,0.0,0.0,0.0,0.0,0.0,0.0,0.0,0.0,0.0,0.0,0.0,0.0,0.0,0.0,0.0,0.0,0.0,0.0,0.0,0.0,0.0,0.0,4.9556,5.0034,5.0133,4.9798,4.879,4.7575,4.6091,0.0,0.0,0.0,0.0,0.0,0.0,0.0,0.0,0.0,0.0,0.0,0.0,0.0,0.0,0.0,0.0,0.0,0.0,0.0,0.0,0.0,0.0,0.0,0.0,0.0,0.0,0.0,0.0,0.0,0.0,0.0,0.0,0.0,0.0,0.0,0.0,0.0,0.0,0.0,0.0,0.0,0.0,0.0,0.0,0.0,0.0,0.0,0.0,0.0,0.0,0.0,0.0,0.0,0.0,0.0,0.0,0.0,0.0,0.0,0.0,0.0,0.0,0.0,0.0,0.0,0.0,0.0,0.0,0.0,0.0,0.0,0.0,0.0,0.0,0.0,0.0,0.0,0.0,0.0,0.0,0.0,0.0,0.0,0.0,0.0,0.0,0.0,0.0,0.0,0.0,0.0,0.0,0.0,0.0,0.0,0.0,0.0,0.0,0.0,0.0,0.0,0.0,0.0,0.0,0.0,0.0,0.0,0.0,5.3061,5.0832,4.9961,5.0444,4.9619,4.8592,0.0,0.0,0.0,0.0,0.0,0.0,0.0,0.0,0.0,0.0,0.0,0.0,0.0,0.0,0.0,0.0,0.0,0.0,0.0,0.0,0.0,0.0,0.0,0.0,0.0,0.0,0.0,0.0,0.0,0.0,0.0,0.0,0.0,0.0,0.0,0.0,0.0,0.0,0.0,0.0,0.0,0.0,0.0,0.0,0.0,0.0,0.0,0.0,0.0,0.0,0.0,0.0,0.0,0.0,0.0,0.0,0.0,0.0,0.0,0.0,0.0,0.0,0.0,0.0,0.0,0.0,0.0,0.0,0.0,0.0,0.0,0.0,0.0,0.0,0.0,0.0,0.0,0.0,0.0,0.0,0.0,0.0,0.0,0.0,0.0,0.0,0.0,0.0,0.0,0.0,0.0,0.0,0.0,0.0,0.0,0.0,0.0,0.0,0.0,0.0,0.0,0.0,0.0,0.0,0.0,0.0,0.0,0.0,0.0,5.4991,5.4236,5.3638,5.3279,5.2316,5.0801,0.0,0.0,0.0,0.0,0.0,0.0,0.0,0.0,0.0,0.0,0.0,0.0,0.0,0.0,0.0,0.0,0.0,0.0,0.0,0.0,0.0,0.0,0.0,0.0,0.0,0.0,0.0,0.0,0.0,0.0,0.0,0.0,0.0,0.0,0.0,0.0,0.0,0.0,0.0,0.0,0.0,0.0,0.0,0.0,0.0,0.0,0.0,0.0,0.0,0.0,0.0,0.0,0.0,0.0,0.0,0.0,0.0,0.0,0.0,0.0,0.0,0.0,0.0,0.0,0.0,0.0,0.0,0.0,0.0,0.0,0.0,0.0,0.0,0.0,0.0,0.0,0.0,0.0,0.0,0.0,0.0,0.0,0.0,0.0,0.0,0.0,0.0,0.0,0.0,0.0,0.0,0.0,0.0,0.0,0.0,0.0,0.0,0.0,0.0,0.0,0.0,0.0,0.0,0.0,0.0,0.0,0.0,0.0,5.4731,5.71,5.6456,5.6145,5.6274,5.454,5.2612,0.0,0.0,0.0,0.0,0.0,0.0,0.0,0.0,0.0,0.0,0.0,0.0,0.0,0.0,0.0,0.0,0.0,0.0,0.0,0.0,0.0,0.0,0.0,0.0,0.0,0.0,0.0,0.0,0.0,0.0,0.0,0.0,0.0,0.0,0.0,0.0,0.0,0.0,0.0,0.0,0.0,0.0,0.0,0.0,0.0,0.0,0.0,0.0,0.0,0.0,0.0,0.0,0.0,0.0,0.0,0.0,0.0,0.0,0.0,0.0,0.0,0.0,0.0,0.0,0.0,0.0,0.0,0.0,0.0,0.0,0.0,0.0,0.0,0.0,0.0,0.0,0.0,0.0,0.0,0.0,0.0,0.0,0.0,0.0,0.0,0.0,0.0,0.0,0.0,0.0,0.0,0.0,0.0,0.0,0.0,0.0,0.0,0.0,0.0,0.0,0.0,0.0,0.0,0.0,0.0,0.0,0.0,0.0,5.6436,5.8866,5.798,5.7983,5.8955,5.6317,5.4084,0.0,0.0,0.0,0.0,0.0,0.0,0.0,0.0,0.0,0.0,0.0,0.0,0.0,0.0,0.0,0.0,0.0,0.0,0.0,0.0,0.0,0.0,0.0,0.0,0.0,0.0,0.0,0.0,0.0,0.0,0.0,0.0,0.0,0.0,0.0,0.0,0.0,0.0,0.0,0.0,0.0,0.0,0.0,0.0,0.0,0.0,0.0,0.0,0.0,0.0,0.0,0.0,0.0,0.0,0.0,0.0,0.0,0.0,0.0,0.0,0.0,0.0,0.0,0.0,0.0,0.0,0.0,0.0,0.0,0.0,0.0,0.0,0.0,0.0,0.0,0.0,0.0,0.0,0.0,0.0,0.0,0.0,0.0,0.0,0.0,0.0,0.0,0.0,0.0,0.0,0.0,0.0,0.0,0.0,0.0,0.0,0.0,0.0,0.0,0.0,0.0,0.0,0.0,0.0,0.0,0.0,0.0,0.0,5.8423,5.9184,5.9922,6.031,6.0312,5.7369,5.5047,0.0,0.0,0.0,0.0,0.0,0.0,0.0,0.0,0.0,0.0,0.0,0.0,0.0,0.0,0.0,0.0,0.0,0.0,0.0,0.0,0.0,0.0,0.0,0.0,0.0,0.0,0.0,0.0,0.0,0.0,0.0,0.0,0.0,0.0,0.0,0.0,0.0,0.0,0.0,0.0,0.0,0.0,0.0,0.0,0.0,0.0,0.0,0.0,5.3483,0.0,0.0,0.0,0.0,0.0,0.0,0.0,0.0,0.0,0.0,0.0,0.0,0.0,0.0,0.0,0.0,0.0,0.0,0.0,0.0,0.0,0.0,0.0,0.0,0.0,0.0,0.0,0.0,0.0,0.0,0.0,0.0,0.0,0.0,0.0,0.0,0.0,0.0,0.0,0.0,0.0,0.0,0.0,0.0,0.0,0.0,0.0,0.0,0.0,0.0,0.0,0.0,0.0,0.0,0.0,0.0,0.0,0.0,0.0,5.9611,6.1198,6.1119,6.1067,6.1033,5.8398,5.6275,0.0,0.0,0.0,0.0,0.0,0.0,0.0,0.0,0.0,0.0,0.0,0.0,0.0,0.0,0.0,0.0,0.0,0.0,0.0,0.0,0.0,0.0,0.0,0.0,0.0,0.0,0.0,0.0,0.0,0.0,0.0,0.0,0.0,0.0,0.0,0.0,0.0,0.0,0.0,0.0,0.0,0.0,0.0,0.0,0.0,0.0,0.0,0.0,0.0,0.0,0.0,0.0,0.0,0.0,0.0,0.0,0.0,0.0,0.0,0.0,0.0,0.0,0.0,0.0,0.0,0.0,0.0,0.0,0.0,0.0,0.0,0.0,0.0,0.0,0.0,0.0,0.0,0.0,0.0,0.0,0.0,0.0,0.0,0.0,0.0,0.0,0.0,0.0,0.0,0.0,0.0,0.0,0.0,0.0,0.0,0.0,0.0,0.0,0.0,0.0,0.0,0.0,0.0,0.0,0.0,0.0,0.0,5.846,6.0723,6.3268,6.2174,6.1587,6.1657,5.9538,5.7615,5.6001,0.0,0.0,0.0,0.0,0.0,0.0,0.0,0.0,0.0,0.0,0.0,0.0,0.0,0.0,0.0,0.0,0.0,0.0,0.0,0.0,0.0,0.0,0.0,0.0,0.0,0.0,0.0,0.0,0.0,0.0,0.0,0.0,0.0,0.0,0.0,0.0,0.0,0.0,5.1501,5.3811,0.0,0.0,0.0,0.0,0.0,0.0,0.0,0.0,5.5926,0.0,0.0,0.0,0.0,0.0,0.0,0.0,0.0,0.0,0.0,0.0,0.0,0.0,0.0,0.0,0.0,0.0,0.0,0.0,0.0,0.0,0.0,0.0,0.0,0.0,0.0,0.0,0.0,0.0,0.0,0.0,0.0,0.0,0.0,0.0,0.0,0.0,0.0,0.0,0.0,0.0,0.0,0.0,0.0,0.0,0.0,0.0,0.0,0.0,0.0,0.0,0.0,0.0,0.0,0.0,0.0,5.6398,6.0544,6.2889,6.3257,6.3944,6.3619,6.2135,6.1083,5.9201,5.6459,0.0,0.0,0.0,0.0,0.0,0.0,0.0,0.0,0.0,0.0,0.0,0.0,0.0,0.0,0.0,0.0,0.0,0.0,0.0,0.0,0.0,0.0,0.0,0.0,0.0,0.0,0.0,0.0,0.0,0.0,0.0,0.0,0.0,0.0,0.0,0.0,0.0,0.0,0.0,5.5287,5.666,0.0,0.0,0.0,0.0,0.0,0.0,0.0,0.0,5.841,0.0,0.0,0.0,0.0,0.0,0.0,0.0,0.0,0.0,0.0,0.0,0.0,0.0,0.0,0.0,0.0,0.0,0.0,0.0,0.0,0.0,0.0,0.0,0.0,0.0,0.0,0.0,0.0,0.0,0.0,0.0,0.0,0.0,0.0,0.0,0.0,0.0,0.0,0.0,0.0,0.0,0.0,0.0,0.0,0.0,0.0,0.0,0.0,0.0,0.0,0.0,0.0,0.0,0.0,0.0,5.7823,6.0438,6.2346,6.3509,6.4129,6.3528,6.1657,6.0839,5.9191,0.0,0.0,0.0,0.0,0.0,0.0,0.0,0.0,0.0,0.0,0.0,0.0,0.0,0.0,0.0,0.0,0.0,0.0,0.0,0.0,0.0,0.0,0.0,0.0,0.0,0.0,0.0,0.0,0.0,0.0,0.0,0.0,0.0,0.0,0.0,0.0,0.0,0.0,0.0,0.0,5.6103,5.71,5.7365,0.0,0.0,0.0,0.0,0.0,0.0,5.9598,5.9649,0.0,0.0,0.0,0.0,0.0,0.0,0.0,0.0,0.0,0.0,0.0,0.0,0.0,0.0,0.0,0.0,0.0,0.0,0.0,0.0,0.0,0.0,0.0,0.0,0.0,0.0,0.0,0.0,0.0,0.0,0.0,0.0,0.0,0.0,0.0,0.0,0.0,0.0,0.0,0.0,0.0,0.0,0.0,0.0,0.0,0.0,0.0,0.0,0.0,0.0,0.0,0.0,0.0,0.0,0.0,5.9594,6.0533,6.1949,6.4005,6.4173,6.3324,6.1481,6.0809,5.9292,0.0,0.0,0.0,0.0,0.0,0.0,0.0,0.0,0.0,0.0,0.0,0.0,0.0,0.0,0.0,0.0,0.0,0.0,0.0,0.0,0.0,0.0,0.0,0.0,0.0,0.0,0.0,0.0,0.0,0.0,0.0,0.0,0.0,0.0,0.0,0.0,0.0,0.0,0.0,0.0,0.0,5.8115,5.8725,5.9416,0.0,0.0,0.0,0.0,6.1032,6.0834,0.0,0.0,0.0,0.0,0.0,0.0,0.0,0.0,0.0,0.0,0.0,0.0,0.0,0.0,0.0,0.0,0.0,0.0,0.0,0.0,0.0,0.0,0.0,0.0,0.0,0.0,0.0,0.0,0.0,0.0,0.0,0.0,0.0,0.0,0.0,0.0,0.0,0.0,0.0,0.0,0.0,0.0,0.0,0.0,0.0,0.0,0.0,0.0,0.0,0.0,0.0,0.0,0.0,0.0,0.0,0.0,6.112,6.2889,6.4083,6.4835,6.5154,6.449,6.2842,6.2501,6.0724,0.0,0.0,0.0,0.0,0.0,0.0,0.0,0.0,0.0,0.0,0.0,0.0,0.0,0.0,0.0,0.0,0.0,0.0,0.0,0.0,0.0,0.0,0.0,0.0,0.0,0.0,0.0,0.0,0.0,0.0,0.0,0.0,0.0,0.0,0.0,0.0,0.0,0.0,0.0,0.0,0.0,6.125,6.2012,6.2581,6.2928,0.0,0.0,6.2375,6.2232,6.2318,0.0,0.0,0.0,0.0,0.0,0.0,0.0,0.0,0.0,0.0,0.0,0.0,0.0,0.0,0.0,0.0,0.0,0.0,0.0,0.0,0.0,0.0,0.0,0.0,0.0,0.0,0.0,0.0,0.0,0.0,0.0,0.0,0.0,0.0,0.0,0.0,0.0,0.0,0.0,0.0,0.0,0.0,0.0,0.0,0.0,0.0,0.0,0.0,0.0,0.0,0.0,0.0,0.0,0.0,0.0,5.6278,6.1147,6.2265,6.34,6.479,6.5256,6.4912,6.3668,6.2614,6.0984,0.0,0.0,0.0,0.0,0.0,0.0,0.0,0.0,0.0,0.0,0.0,0.0,0.0,0.0,0.0,0.0,0.0,0.0,0.0,0.0,0.0,0.0,0.0,0.0,0.0,0.0,0.0,0.0,0.0,0.0,0.0,0.0,0.0,0.0,0.0,0.0,0.0,0.0,0.0,0.0,0.0,0.0,6.2266,6.2941,0.0,0.0,0.0,6.4565,6.4848,0.0,0.0,0.0,0.0,0.0,0.0,0.0,0.0,0.0,0.0,0.0,0.0,0.0,0.0,0.0,0.0,0.0,0.0,0.0,0.0,0.0,0.0,0.0,0.0,0.0,0.0,0.0,0.0,0.0,0.0,0.0,0.0,0.0,0.0,0.0,0.0,0.0,0.0,0.0,0.0,0.0,0.0,0.0,0.0,0.0,0.0,0.0,0.0,0.0,0.0,0.0,0.0,0.0,0.0,0.0,0.0,0.0,6.1563,6.2005,6.3073,6.4835,6.5196,6.5006,6.422,6.2392,0.0,0.0,0.0,0.0,0.0,0.0,0.0,0.0,0.0,0.0,0.0,0.0,0.0,0.0,0.0,0.0,0.0,0.0,0.0,0.0,0.0,0.0,0.0,0.0,0.0,0.0,0.0,4.5069,0.0,0.0,0.0,0.0,0.0,0.0,0.0,0.0,0.0,0.0,0.0,0.0,0.0,0.0,6.1455,6.3453,6.4073,6.4533,0.0,0.0,6.6338,6.6765,6.6505,6.5955,0.0,0.0,0.0,0.0,0.0,0.0,0.0,0.0,0.0,0.0,0.0,0.0,0.0,0.0,0.0,0.0,0.0,0.0,0.0,0.0,0.0,0.0,0.0,0.0,0.0,0.0,0.0,0.0,0.0,0.0,0.0,0.0,0.0,0.0,0.0,0.0,0.0,0.0,0.0,0.0,0.0,0.0,0.0,0.0,0.0,0.0,0.0,0.0,0.0,0.0,0.0,0.0,0.0,0.0,0.0,6.2864,6.3517,6.4279,6.5372,6.5127,6.4808,6.4529,6.2213,6.0753,0.0,0.0,0.0,0.0,0.0,0.0,0.0,0.0,0.0,0.0,0.0,0.0,0.0,0.0,0.0,0.0,0.0,0.0,0.0,0.0,0.0,0.0,0.0,0.0,0.0,0.0,0.0,0.0,0.0,0.0,0.0,0.0,0.0,0.0,0.0,0.0,0.0,0.0,0.0,0.0,0.0,6.6006,6.7365,6.7555,6.7523,0.0,0.0,6.7148,6.7023,6.6742,6.6285,6.5858,0.0,0.0,0.0,0.0,0.0,0.0,0.0,0.0,0.0,0.0,0.0,0.0,0.0,0.0,0.0,0.0,0.0,0.0,0.0,0.0,0.0,0.0,0.0,0.0,0.0,0.0,0.0,0.0,0.0,0.0,0.0,0.0,0.0,0.0,0.0,0.0,0.0,0.0,0.0,0.0,0.0,0.0,0.0,0.0,0.0,0.0,0.0,0.0,0.0,0.0,0.0,0.0,0.0,5.7242,6.2257,6.3243,6.4296,6.5455,6.5531,6.5491,6.5277,6.2333,6.0775,0.0,0.0,0.0,0.0,0.0,0.0,0.0,0.0,0.0,0.0,0.0,0.0,0.0,0.0,0.0,0.0,0.0,0.0,0.0,0.0,0.0,0.0,0.0,0.0,0.0,0.0,0.0,0.0,4.9113,4.9743,5.0364,0.0,0.0,0.0,0.0,0.0,0.0,0.0,0.0,0.0,0.0,6.6933,6.8381,6.9203,0.0,0.0,6.9706,6.9846,6.9884,6.945,6.8781,6.779,6.6716,0.0,0.0,0.0,0.0,0.0,0.0,0.0,0.0,0.0,0.0,0.0,0.0,0.0,0.0,0.0,0.0,0.0,0.0,0.0,0.0,0.0,0.0,0.0,0.0,0.0,0.0,0.0,0.0,0.0,0.0,0.0,0.0,0.0,0.0,0.0,0.0,0.0,0.0,0.0,0.0,0.0,0.0,0.0,0.0,0.0,0.0,0.0,0.0,0.0,0.0,0.0,0.0,5.7455,6.27,6.345,6.4546,6.5955,6.6089,6.5909,6.5358,6.2662,6.1163,0.0,0.0,0.0,0.0,0.0,0.0,0.0,0.0,0.0,0.0,0.0,0.0,0.0,0.0,0.0,0.0,0.0,0.0,0.0,0.0,0.0,0.0,0.0,0.0,0.0,0.0,0.0,0.0,5.134,5.1986,5.1652,0.0,0.0,0.0,0.0,0.0,0.0,0.0,0.0,0.0,0.0,6.8262,6.9894,7.0861,7.1422,7.1536,7.1826,7.2104,7.2182,7.1643,7.0824,6.9592,0.0,0.0,0.0,0.0,0.0,0.0,0.0,0.0,0.0,0.0,0.0,0.0,0.0,0.0,0.0,0.0,0.0,0.0,0.0,0.0,0.0,0.0,0.0,0.0,0.0,0.0,0.0,0.0,0.0,0.0,3.7908,0.0,0.0,0.0,0.0,0.0,0.0,0.0,0.0,0.0,0.0,0.0,0.0,0.0,0.0,0.0,0.0,0.0,0.0,0.0,0.0,0.0,0.0,5.9099,6.4766,6.4522,6.5216,6.6953,6.6671,6.591,6.4767,6.3226,6.1945,6.0895,0.0,0.0,0.0,0.0,0.0,0.0,0.0,0.0,0.0,0.0,0.0,0.0,0.0,0.0,0.0,0.0,0.0,0.0,0.0,0.0,0.0,0.0,0.0,0.0,0.0,0.0,5.3641,5.4717,5.4753,0.0,0.0,0.0,0.0,0.0,0.0,0.0,0.0,0.0,0.0,6.9309,7.0545,7.2443,7.2752,7.2886,7.3196,7.3437,7.3487,7.3305,7.2853,7.2096,0.0,0.0,0.0,0.0,0.0,0.0,0.0,0.0,0.0,0.0,0.0,0.0,0.0,0.0,0.0,0.0,0.0,0.0,0.0,0.0,0.0,0.0,0.0,0.0,0.0,0.0,0.0,4.2179,4.2251,0.0,0.0,0.0,0.0,0.0,0.0,0.0,0.0,0.0,0.0,0.0,4.8939,4.924,0.0,0.0,0.0,0.0,0.0,0.0,0.0,0.0,0.0,0.0,0.0,0.0,5.9673,6.367,6.4075,6.4853,6.6128,6.5754,6.5258,6.468,6.2679,6.0881,5.9468,0.0,0.0,0.0,0.0,0.0,0.0,0.0,0.0,0.0,0.0,0.0,0.0,0.0,0.0,0.0,0.0,0.0,0.0,0.0,0.0,0.0,0.0,0.0,0.0,0.0,5.4362,0.0,0.0,0.0,0.0,0.0,0.0,0.0,0.0,0.0,0.0,0.0,6.7106,6.9696,7.1507,7.2909,7.3922,7.44,7.4721,0.0,0.0,0.0,0.0,0.0,0.0,0.0,0.0,0.0,0.0,0.0,0.0,0.0,0.0,6.6773,6.5013,6.598,6.7004,6.6865,0.0,0.0,0.0,0.0,0.0,0.0,0.0,0.0,0.0,0.0,0.0,0.0,0.0,0.0,4.5187,0.0,4.452,0.0,0.0,0.0,0.0,0.0,0.0,0.0,0.0,5.1011,5.1689,5.1801,5.2109,5.2421,0.0,5.2744,5.1911,0.0,0.0,0.0,0.0,0.0,0.0,0.0,0.0,6.0917,6.4183,6.4532,6.5074,6.5909,6.5789,6.5311,6.4594,6.2393,6.0891,6.0241,5.8718,5.7003,0.0,0.0,0.0,0.0,0.0,0.0,0.0,0.0,0.0,0.0,0.0,0.0,0.0,0.0,0.0,0.0,0.0,0.0,0.0,0.0,0.0,0.0,0.0,5.6593,0.0,0.0,0.0,0.0,0.0,0.0,0.0,0.0,0.0,6.5599,6.7383,6.935,7.1424,7.3091,7.4361,7.5192,0.0,0.0,0.0,0.0,0.0,0.0,0.0,7.5778,7.4236,7.3653,7.2967,7.1791,7.076,7.0085,7.0159,0.0,0.0,6.7318,6.8041,6.8998,6.8998,6.8918,6.938,7.1058,7.1663,7.2479,0.0,0.0,0.0,0.0,0.0,0.0,0.0,0.0,4.7908,4.9038,0.0,4.8198,0.0,0.0,0.0,0.0,0.0,4.8852,0.0,0.0,5.2423,5.3413,5.4032,5.4678,5.495,5.4771,5.4713,5.4868,5.4999,5.2742,0.0,0.0,0.0,0.0,0.0,0.0,6.2737,6.6127,6.5881,6.5966,6.6473,6.6745,6.6091,6.4431,6.2546,6.2014,6.2858,6.0521,5.8918,5.8342,5.5905,0.0,0.0,0.0,0.0,0.0,0.0,0.0,0.0,0.0,0.0,0.0,0.0,0.0,0.0,0.0,0.0,0.0,0.0,0.0,0.0,5.6325,0.0,0.0,0.0,0.0,0.0,0.0,0.0,0.0,0.0,0.0,6.839,6.9721,7.1304,7.3407,0.0,0.0,0.0,0.0,7.6672,7.7211,7.7482,7.7694,7.7694,7.7266,7.6576,7.5577,0.0,0.0,7.3931,7.3086,7.2586,7.3065,7.2779,7.1819,6.9733,7.0556,7.1518,7.1528,7.1706,7.2274,7.3057,7.392,7.4968,4.7111,0.0,0.0,0.0,0.0,4.7623,4.8432,4.8917,5.0,5.069,5.0976,5.0013,0.0,0.0,0.0,0.0,0.0,0.0,5.3593,5.3656,5.512,5.5534,5.5012,5.573,5.5894,5.5578,5.5937,5.6042,5.584,5.5485,5.5651,5.6302,0.0,0.0,0.0,0.0,6.3821,6.6448,6.6348,6.6389,6.6801,6.6667,6.589,6.4454,6.3985,6.3254,6.2138,6.212,6.0935,5.8411,5.761,0.0,0.0,0.0,0.0,0.0,0.0,0.0,0.0,0.0,0.0,0.0,0.0,0.0,0.0,0.0,0.0,0.0,0.0,0.0,5.9594,5.9921,6.0352,0.0,0.0,0.0,0.0,0.0,0.0,0.0,0.0,0.0,7.1845,7.2442,7.3417,0.0,0.0,7.7752,7.8509,7.8625,7.8671,7.8844,0.0,0.0,0.0,7.9189,7.8884,7.7889,7.694,7.6289,7.6223,7.5862,7.5399,7.4854,7.49,7.4701,7.3784,7.3141,7.2771,7.2289,7.2869,7.3952,7.5132,7.6011,7.6992,4.9581,4.8345,4.7471,4.7616,4.8612,4.9983,5.0766,5.1123,5.197,5.259,5.2957,5.2242,5.2062,5.2289,5.1708,0.0,0.0,0.0,5.5476,5.5353,5.6903,5.7405,5.7133,5.7818,5.7959,5.7577,5.7808,5.7693,5.722,5.7529,5.8277,5.9346,0.0,0.0,6.3464,6.3991,6.5283,6.729,6.7164,6.7135,6.7312,6.6798,6.5944,6.4829,6.4928,6.4338,6.2937,6.3056,6.2092,5.9804,5.8808,5.7216,0.0,0.0,0.0,0.0,0.0,0.0,0.0,0.0,0.0,0.0,0.0,5.0382,5.4519,0.0,0.0,0.0,5.7402,5.9425,6.192,6.1713,0.0,0.0,0.0,0.0,0.0,0.0,0.0,6.8508,7.0405,7.2558,7.4823,7.5687,7.6242,7.6771,7.8102,7.9131,7.9431,0.0,7.9488,7.9488,7.9603,7.9672,7.9672,7.9831,7.9704,7.9118,7.8279,7.7833,7.8063,7.7995,7.7801,7.7502,7.7641,7.7597,7.6803,7.6304,7.5713,7.4735,7.5476,7.6635,7.747,7.8431,7.9491,5.164,5.2349,5.2005,5.1569,5.127,5.2934,5.3378,5.3073,5.3738,5.4501,5.5239,5.4616,5.4617,5.5166,5.5092,0.0,5.4258,5.5664,5.6389,5.6568,5.7976,5.8981,5.9629,6.0337,6.0498,6.0073,5.9996,5.963,5.9043,5.9072,5.9816,6.1182,6.0706,6.1906,6.4616,6.5666,6.69,6.8417,6.8202,6.8088,6.8044,6.7052,6.6165,6.5514,6.5502,6.5271,6.4791,6.3682,6.2762,6.2064,5.9823,5.8198,5.7353,0.0,0.0,0.0,0.0,0.0,0.0,0.0,0.0,0.0,0.0,0.0,0.0,0.0,0.0,0.0,5.8479,0.0,6.1519,6.2432,0.0,0.0,0.0,6.6426,6.64,6.7656,6.9578,7.2334,0.0,0.0,7.73,0.0,7.9324,7.7939,7.8866,7.966,7.9695,7.9798,7.9776,7.9902,7.9798,7.9798,7.9994,7.9902,7.9879,7.9891,7.9178,7.9155,7.9798,7.9925,8.0085,8.016,8.0446,8.0074,7.8884,7.9254,7.9775,7.8297,7.887,7.9656,7.9875,8.0915,8.2055,5.346,5.3765,5.4839,5.4334,5.2868,5.3531,5.4204,5.4792,5.5066,5.5313,5.5526,5.5209,5.5043,5.5079,5.5185,5.5867,5.694,5.727,5.8131,5.9363,5.9615,5.9727,5.9798,6.0521,6.0533,6.0034,6.0842,6.0897,6.0315,6.0642,6.1342,6.2285,6.2573,6.3731,6.5675,6.6334,6.7657,6.9725,6.9167,6.874,6.8512,6.7204,6.6397,6.6231,6.6231,6.6012,6.5558,6.5409,6.4552,6.2922,6.193,6.0357,5.8096,5.7533,0.0,0.0,0.0,0.0,0.0,0.0,0.0,0.0,0.0,5.5957,6.0078,0.0,6.0623,0.0,6.1133,6.2467,6.4609,6.5004,0.0,0.0,6.7649,6.8495,6.8885,7.0303,7.1947,7.3733,7.4994,7.6407,7.8202,7.958,8.0282,7.9948,8.0661,8.1247,8.1247,8.173,8.2086,8.2074,8.204,8.2074,8.2005,8.1592,8.1419,8.2005,8.1902,8.2074,8.2799,8.2937,8.2577,8.1443,8.1004,8.0298,7.9011,7.9961,8.1049,8.0869,8.0639,8.0796,8.1889,8.285,8.3678,5.4822,5.5063,5.606,5.6136,5.5529,5.5473,5.5826,5.6389,5.62,5.6078,5.6102,5.62,5.6355,5.6582,5.6663,5.7311,5.8318,5.871,5.9458,6.0478,6.1026,6.1255,6.1169,6.1773,6.1822,6.1365,6.1709,6.1631,6.1258,6.1638,6.2165,6.2759,6.3834,6.5084,6.6404,6.7323,6.8467,6.9813,6.9554,6.9165,6.8728,6.791,6.7335,6.7026,6.6993,6.673,6.6146,6.6122,6.5447,6.4021,6.3273,6.2087,6.031,5.9764,5.8804,0.0,0.0,0.0,0.0,0.0,0.0,0.0,0.0,0.0,0.0,0.0,6.3324,6.4267,6.4235,6.4865,6.6518,6.6919,6.7442,6.8194,6.9222,7.015,7.0808,7.2548,7.4246,7.5625,7.7022,7.8205,7.8969,8.0259,8.1143,8.1143,8.1799,8.2293,8.2281,8.2661,8.3018,8.3316,8.3385,8.3385,8.3385,8.2764,8.2569,8.3143,8.2833,8.2661,8.335,8.3247,8.2866,8.2583,8.2507,8.2273,8.1485,8.2153,8.29,8.2402,8.2519,8.295,8.3711,8.4194,8.4705,5.582,5.6205,5.6579,5.7303,5.8192,5.7675,5.7599,5.7906,5.7331,5.6991,5.6919,5.7224,5.7801,5.8491,5.8491,5.8796,5.9323,6.0082,6.0597,6.1009,6.2276,6.2857,6.2849,6.3327,6.3403,6.3122,6.2579,6.2204,6.2013,6.2318,6.266,6.3099,6.4672,6.6007,6.6962,6.8428,6.9309,6.9607,6.9989,6.981,6.9015,6.8882,6.8539,6.792,6.7688,6.7291,6.6673,6.6312,6.5795,6.5147,6.4119,6.3292,6.2678,6.1614,6.0914,0.0,5.976,0.0,0.0,0.0,0.0,0.0,0.0,0.0,0.0,6.3303,6.5829,6.7948,6.7352,6.718,6.7955,6.8701,6.9213,6.9428,7.0565,7.1747,7.279,7.4611,7.6333,7.7731,7.907,7.989,8.0052,8.1121,8.1936,8.2121,8.25,8.2868,8.304,8.319,8.35,8.3971,8.3902,8.3626,8.3523,8.3075,8.2937,8.3488,8.288,8.2259,8.3178,8.2811,8.273,8.3861,8.4189,8.4216,8.4415,8.4546,8.4397,8.3276,8.4308,8.532,8.5268,8.5467,8.5765,5.6174,5.6518,5.7476,5.8124,5.8459,5.7786,5.8161,5.9231,5.9112,5.8637,5.7904,5.7441,5.7752,5.8539,5.8571,5.9564,6.1221,6.1396,6.193,6.2717,6.3025,6.3106,6.2945,6.3584,6.3559,6.3002,6.3229,6.3236,6.3098,6.2959,6.3378,6.4345,6.5114,6.6231,6.7761,0.0,0.0,0.0,7.1861,7.1819,7.0527,6.9909,6.9545,6.9368,6.8218,0.0,6.7368,6.6546,6.603,6.585,6.4522,0.0,0.0,0.0,0.0,0.0,0.0,0.0,0.0,0.0,0.0,0.0,6.4192,6.4226,6.39,6.5356,6.7205,6.9275,6.9356,6.9536,7.0301,7.1077,7.1966,7.2963,7.3324,7.4221,7.5986,7.6679,7.7692,7.9764,8.027,8.0926,8.1948,8.2557,8.2902,8.3316,8.3178,8.3178,8.373,8.4259,8.4488,8.4109,8.3557,8.2937,8.2328,8.2178,8.2523,8.2833,8.2937,8.3259,8.4397,8.4604,8.4678,8.5352,8.4924,8.4143,8.3602,8.4128,8.4709,8.3944,8.585,8.7355,8.6277,8.6892,8.7904,5.6683,0.0,5.7574,5.8142,0.0,5.855,5.9116,6.0018,5.8651,5.8273,5.8584,5.8562,5.9046,5.9855,6.0187,6.0847,6.1828,6.2536,6.3042,6.3419,6.3814,6.3856,6.361,6.4193,6.417,6.3576,6.3876,6.3916,6.3721,6.3667,6.4081,6.4901,6.5851,6.6981,6.826,7.017,7.1338,7.1788,7.1788,7.1519,7.0912,7.0208,6.9798,6.9765,0.0,0.0,0.0,0.0,0.0,0.0,0.0,0.0,0.0,0.0,0.0,6.338,6.3721,6.4065,6.4252,6.4367,6.4725,6.5342,6.6841,6.7445,6.6734,6.7571,6.8881,7.066,7.108,7.1609,7.2326,7.3088,7.3947,7.4947,7.542,7.623,7.7579,7.8442,7.9316,8.0419,8.1269,8.1936,8.2293,8.2695,8.3006,8.3385,8.3143,8.3316,8.4281,8.4294,8.3971,8.3971,8.373,8.3362,8.3006,8.3281,8.3535,8.3949,8.4052,8.4501,8.5523,8.5121,8.4885,8.5619,8.525,8.4629,8.4865,8.5572,8.6121,8.593,8.7355,8.8614,8.7919,8.8349,8.893,5.7176,5.7408,5.7624,5.811,5.8787,5.9331,5.9848,6.0209,0.0,0.0,0.0,5.981,6.043,6.1238,6.1801,6.2037,6.2169,6.3421,6.3926,6.3809,6.4585,6.4784,6.456,6.4883,6.4755,6.4271,6.4355,6.4281,6.4069,6.4209,6.4604,6.5288,6.6542,6.7764,6.8984,7.0999,7.2247,7.2676,7.1651,7.114,7.1183,7.0536,7.0208,7.0196,6.9214,6.8833,6.9087,6.7859,6.7344,6.7584,6.6988,6.637,6.5761,6.5966,6.5695,6.4677,6.4948,6.5107,6.4863,6.5483,6.6266,6.7099,6.9146,7.0119,6.9488,6.9921,7.0782,7.2205,7.2776,7.344,7.4292,7.4936,7.5673,7.6591,7.7235,7.7902,7.8729,7.9833,8.0626,8.1074,8.1971,8.2673,8.2569,8.2868,8.3247,8.3419,8.3385,8.3328,8.4225,8.3776,8.3419,8.3661,8.35,8.3523,8.3833,8.4316,8.4984,8.5018,8.5121,8.5466,8.588,8.5144,8.4813,8.5852,8.5547,8.5593,8.6345,8.7023,8.7626,8.7496,8.8614,8.9593,8.9626,8.9725,8.9825,5.7541,5.8473,5.8498,5.8863,5.9393,5.9278,5.9315,5.9433,5.9835,6.0298,6.0679,6.0139,6.0593,6.1715,6.1798,6.2273,6.3056,6.4035,6.4469,0.0,6.5392,6.5667,6.5432,6.5258,6.4936,6.4475,6.4212,6.4124,6.4249,6.4297,6.4728,6.566,6.6668,6.8346,7.0556,7.1806,7.2559,7.2874,7.3191,7.3031,7.2443,7.1961,7.172,7.162,6.9744,6.8833,6.9077,6.7903,6.7299,6.755,6.6651,6.5983,6.5737,6.5687,6.5431,6.5153,6.5612,6.6482,6.7673,6.8094,6.8773,7.0005,7.1462,7.233,7.2402,7.2471,7.305,7.43,7.4522,7.5201,7.6511,7.6787,7.7408,7.8695,7.9074,7.9454,8.0143,8.0454,8.1109,8.2247,8.2178,8.2776,8.4052,8.404,8.4178,8.5156,8.4454,8.3557,8.2914,8.3225,8.3523,8.3109,8.25,8.2431,8.3281,8.3695,8.4488,8.5075,8.5259,8.5535,8.626,8.5648,8.5405,8.6354,8.6153,8.623,8.6895,8.7361,8.7862,8.8195,8.9394,9.0288,9.0355,9.0767,9.118,5.7864,5.8505,5.8518,5.8775,5.9142,5.9413,5.9734,6.0092,6.0528,6.0814,6.1011,6.0999,6.1661,6.2738,6.3106,6.356,6.4158,6.494,6.5192,6.5021,6.5421,6.542,6.5064,6.5231,6.5011,6.4436,6.4608,6.4683,6.4641,6.4631,6.5217,6.6365,6.8116,6.9911,7.1518,7.2213,7.2542,7.2662,7.2698,7.27,7.2676,7.1713,7.1242,7.1388,6.9997,6.9302,6.9239,6.8673,6.8406,6.8398,6.795,6.7652,6.7544,6.7572,6.7639,6.766,6.8035,6.8635,6.9441,7.0351,7.1061,7.157,7.2922,7.4086,7.4844,7.4361,7.463,7.5971,7.6155,7.6615,7.7729,7.7867,7.8281,7.9385,7.9488,8.0005,8.1005,8.1247,8.1523,8.2178,8.2362,8.2811,8.3799,8.3626,8.3592,8.435,8.435,8.4052,8.2695,8.4006,8.4799,8.3764,8.3557,8.3983,8.4557,8.4626,8.4971,8.5673,8.5799,8.6122,8.6661,8.6194,8.6122,8.6899,8.671,8.6707,8.7496,8.822,8.8777,8.9455,9.0304,9.0999,9.1165,9.1364,9.1545,5.8324,5.8772,5.8818,5.8996,5.9298,5.9791,6.0345,6.0794,6.0948,6.1131,6.1352,6.1891,6.2613,6.3432,6.4177,6.4602,6.4875,6.5523,6.5631,6.5301,6.5421,6.5218,6.4825,6.5251,6.5133,6.4607,6.4994,6.5122,6.4946,6.4901,6.5637,6.7138,6.9441,7.1061,7.1965,7.2334,7.2522,7.2503,7.2156,7.2254,7.276,7.163,7.1066,7.1066,7.0428,6.9902,6.9666,6.9477,6.9402,6.934,6.918,6.9079,6.909,6.9295,6.9454,6.9625,6.988,7.0226,7.0781,7.2017,7.2758,7.277,7.4176,7.5469,7.6291,7.589,7.5966,7.7078,7.7284,7.757,7.8087,7.8443,7.8902,7.9716,7.9831,8.0438,8.1597,8.1747,8.1736,8.1945,8.2347,8.2658,8.3028,8.3006,8.3052,8.3431,8.4363,8.4545,8.36,8.4922,8.5626,8.4944,8.4727,8.504,8.588,8.5742,8.5764,8.642,8.6523,8.6777,8.7071,8.6665,8.6603,8.738,8.7301,8.7548,8.8458,8.9182,8.9883,9.052,9.1165,9.1512,9.1512,9.1545,9.1578,5.9034,5.9839,6.0058,6.0376,6.0627,6.0688,6.0781,6.0917,6.144,6.1844,6.212,6.2454,6.2835,6.3229,6.4107,6.4538,6.4639,6.531,6.5465,6.5225,6.5827,6.5919,6.5531,6.5413,6.5285,6.5132,6.5036,6.4943,6.4901,6.4977,6.5899,6.7714,6.9663,7.0967,7.1643,7.2227,7.2522,7.2522,7.2438,7.2697,7.3167,7.2747,7.232,7.1873,7.1189,7.0667,7.0347,6.9779,6.9637,6.9982,6.9485,6.9113,6.9134,6.9319,6.9414,6.949,6.9682,7.0343,7.1708,7.2608,7.3384,7.4046,7.539,7.6301,7.6506,7.6996,7.7339,7.7545,7.7742,7.7857,7.7774,7.8473,7.9446,8.0581,8.0704,8.1181,8.173,8.1454,8.1403,8.2367,8.1922,8.2098,8.3347,8.3304,8.3212,8.373,8.4673,8.4909,8.4001,8.5192,8.6241,8.5621,8.4926,8.4683,8.5385,8.588,8.6363,8.704,8.7247,8.7316,8.73,8.7246,8.716,8.8118,8.8208,8.8779,8.9672,9.0363,9.0617,9.1099,9.1479,9.1578,9.1578,9.1578,9.1578,5.9703,6.0589,6.0652,6.1109,6.1698,6.1729,6.1822,6.1998,6.2258,6.2434,6.2628,6.3304,6.3799,6.4092,6.4479,6.4831,6.5221,6.5516,6.5602,6.5469,6.5781,6.5758,6.5487,6.5351,6.5214,6.5081,6.4943,6.4901,6.5111,6.6033,6.7118,6.8182,7.0145,7.1437,7.1884,7.2308,7.2522,7.2522,7.2635,7.2913,7.3181,7.27,7.2276,7.1981,7.1434,7.0942,7.0569,7.034,7.0456,7.0805,7.0556,7.0421,7.0387,7.0476,7.0597,7.0739,7.1343,7.1985,7.2611,7.3728,7.4468,7.465,7.5649,7.6327,7.6484,7.6799,7.6934,7.7028,7.7412,7.8024,7.8716,7.8867,7.9438,8.0607,8.0582,8.0604,8.1346,8.1175,8.119,8.1574,8.1503,8.1795,8.2891,8.3403,8.3649,8.4109,8.5006,8.5367,8.4592,8.5809,8.65,8.6052,8.5546,8.5959,8.6777,8.657,8.673,8.7075,8.7006,8.6868,8.7851,8.7676,8.7862,8.9327,8.9551,8.9954,9.0802,9.1062,9.1297,9.1578,9.1578,9.1578,9.1578,9.1578,9.1578,6.0489,6.1305,6.1325,6.172,6.2395,6.2412,6.253,6.2829,6.2983,6.3075,6.3164,6.4072,6.4553,6.4759,6.4889,6.5263,6.5669,6.57,6.566,6.5605,6.5592,6.5474,6.5201,6.5204,6.5108,6.4929,6.4901,6.4929,6.5207,6.6883,6.7995,6.8611,7.0513,7.178,7.2106,7.2375,7.2516,7.2641,7.2827,7.3057,7.3317,7.291,7.2436,7.2026,7.173,7.1249,7.0526,7.0767,7.1007,7.1278,7.1289,7.1267,7.1199,7.1199,7.1323,7.1639,7.2553,7.3186,7.3402,7.4468,7.5137,7.5235,7.5843,7.6308,7.6479,7.6634,7.6673,7.6769,7.7188,7.7932,7.8584,7.8827,7.9362,8.0458,8.0115,8.014,8.0963,8.0954,8.0876,8.1145,8.1513,8.1941,8.283,8.3723,8.4385,8.4523,8.5419,8.6056,8.5433,8.6187,8.6745,8.6035,8.6131,8.6648,8.7674,8.7053,8.6661,8.6902,8.6868,8.7501,8.8532,8.8386,8.8972,9.0638,9.0736,9.0996,9.1531,9.1759,9.1578,9.1578,9.1578,9.1578,9.1578,9.1578,9.1711,6.148,6.2276,6.2323,6.2374,6.2429,6.2459,6.2591,6.2997,6.3506,6.3752,6.3858,6.4515,6.4898,6.4906,6.5336,6.5655,6.5687,6.566,6.5542,6.5338,6.5324,6.516,6.4929,6.4915,6.4915,6.4901,6.4901,6.5026,6.5362,6.6962,6.8106,6.8762,7.0654,7.1794,7.2146,7.2415,7.2641,7.2847,7.2945,7.3194,7.3661,7.3705,7.3132,7.2229,7.2229,7.1761,7.0705,7.0767,7.1018,7.1289,7.1278,7.1188,7.0939,7.095,7.1161,7.167,7.2539,7.3432,7.403,7.4489,7.4967,7.5574,7.606,7.6463,7.6457,7.6772,7.6957,7.7124,7.7166,7.7157,7.7066,7.8191,7.914,7.9841,7.9857,8.0242,8.1101,8.0678,8.0745,8.1468,8.1995,8.2663,8.3792,8.4614,8.504,8.5259,8.5846,8.6159,8.5914,8.6165,8.6212,8.6099,8.614,8.6363,8.6467,8.6811,8.6674,8.6971,8.7915,8.8674,8.9134,8.9783,9.094,9.1706,9.1584,9.1748,9.217,9.215,9.1718,9.1578,9.1578,9.1578,9.1578,9.1578,9.1777,6.1663,6.2765,6.3235,6.3432,6.3446,6.3596,6.3844,6.4166,6.4395,6.4504,6.4535,6.4795,6.4901,6.4901,6.5108,6.5187,6.5173,6.5204,6.5149,6.5039,6.5053,6.4998,6.4915,6.4901,6.4901,6.4901,6.4901,6.5039,6.5465,6.6993,6.8202,6.9119,7.0704,7.1943,7.2508,7.2675,7.2906,7.3149,7.3364,7.3604,7.3809,7.3976,7.3674,7.3006,7.2716,7.202,7.0801,7.0996,7.1109,7.1075,7.103,7.0916,7.0732,7.1088,7.1657,7.2266,7.3086,7.3766,7.4202,7.4724,7.5226,7.564,7.5706,7.59,7.611,7.6241,7.6398,7.6819,7.7379,7.7463,7.7486,7.8063,7.8963,7.9952,7.9846,7.9872,8.056,8.0715,8.0984,8.1828,8.2786,8.3868,8.4455,8.532,8.5868,8.5949,8.6144,8.6147,8.603,8.6118,8.6263,8.6133,8.6531,8.7191,8.7777,8.7812,8.7881,8.8226,8.895,9.0364,9.121,9.1212,9.2095,9.2617,9.2488,9.1964,9.2219,9.1943,9.159,9.1578,9.1578,9.1578,9.1578,9.1677,9.2009,6.239,6.3127,6.3625,6.3908,6.4035,6.4202,6.4496,6.4874,6.4901,6.4901,6.4901,6.4901,6.4901,6.4901,6.4901,6.4901,6.4901,6.4901,6.4901,6.4901,6.4901,6.4901,6.4901,6.4901,6.4901,6.4901,6.4901,6.5081,6.5575,6.7004,6.8281,6.9284,7.0908,7.2114,7.28,7.2998,7.3162,7.348,7.3674,7.3835,7.395,7.4184,7.4115,7.3629,7.3316,7.2579,7.1308,7.1199,7.1086,7.0916,7.0756,7.0626,7.059,7.143,7.215,7.2729,7.3566,7.4186,7.4462,7.5008,7.5352,7.5576,7.5573,7.5674,7.5882,7.6084,7.6476,7.6969,7.7522,7.794,7.7907,7.7986,7.8556,7.9667,7.9647,7.974,8.0433,8.0957,8.1677,8.2626,8.3844,8.4762,8.5191,8.5821,8.6188,8.6294,8.6294,8.6206,8.6106,8.6397,8.6623,8.654,8.749,8.8269,8.9053,8.9536,8.9571,8.9881,9.0571,9.1985,9.2602,9.2653,9.2813,9.3319,9.3108,9.2412,9.1945,9.1687,9.1619,9.1609,9.1578,9.1578,9.1711,9.1876,9.2373,6.3748,6.3492,6.3524,6.3679,6.3951,6.4064,6.4373,6.4805,6.4874,6.4901,6.4901,6.4901,6.4901,6.4901,6.4901,6.4901,6.4901,6.4901,6.4901,6.4901,6.4901,6.4901,6.4901,6.4901,6.4901,6.4901,6.4915,6.5173,6.574,6.7152,6.8431,6.9604,7.1172,7.2342,7.2919,7.3188,7.346,7.3725,7.3848,7.3917,7.4184,7.4398,7.4322,7.3912,7.3965,7.3391,7.2071,7.1387,7.096,7.0813,7.0433,7.0318,7.0682,7.1816,7.2648,7.2906,7.3886,7.4605,7.4902,7.5143,7.5228,7.5378,7.5695,7.5861,7.5989,7.6718,7.7278,7.7484,7.7794,7.8081,7.8021,7.7798,7.8,7.8764,7.9288,7.9754,8.0528,8.1422,8.249,8.3619,8.4736,8.5549,8.5831,8.6084,8.6269,8.6294,8.6294,8.6351,8.6438,8.6877,8.7282,8.7717,8.8579,8.9523,9.0502,9.1364,9.1399,9.1558,9.2399,9.3399,9.3366,9.3388,9.3393,9.3688,9.3001,9.2325,9.2085,9.1838,9.1685,9.1625,9.1609,9.1677,9.1943,9.2274,9.2937,6.3595,6.351,6.351,6.3537,6.3724,6.4104,6.4412,6.4579,6.4805,6.4901,6.4901,6.4901,6.4901,6.4901,6.4901,6.4901,6.4901,6.4901,6.4901,6.4901,6.4901,6.4901,6.4901,6.4901,6.4901,6.4929,6.5094,6.5351,6.5963,6.7511,6.8816,6.971,7.1405,7.259,7.3162,7.3493,7.3776,7.4032,7.407,7.412,7.4196,7.4272,7.4315,7.4305,7.3903,7.3478,7.3223,7.2225,7.1282,7.0511,7.0094,7.0253,7.1012,7.1839,7.2684,7.3401,7.3785,7.428,7.4647,7.4784,7.4919,7.5139,7.5547,7.5973,7.6366,7.7018,7.7636,7.7994,7.8123,7.8093,7.8012,7.7629,7.7784,7.8642,7.8892,7.9642,8.0984,8.2325,8.3376,8.4028,8.4927,8.548,8.5708,8.6001,8.6351,8.6329,8.6329,8.6467,8.6971,8.7351,8.7937,8.8812,8.9881,9.095,9.1916,9.2744,9.3123,9.3054,9.3641,9.4068,9.4069,9.3766,9.3842,9.3656,9.2937,9.252,9.227,9.2045,9.1906,9.172,9.1707,9.1941,9.2274,9.2821,9.3517,6.3112,6.3322,6.3367,6.3424,6.3538,6.3934,6.4216,6.4396,6.4607,6.4791,6.4874,6.4901,6.4901,6.4901,6.4901,6.4901,6.4901,6.4901,6.4901,6.4901,6.4901,6.4901,6.4901,6.4901,6.4901,6.4957,6.5146,6.546,6.579,6.7418,6.8746,6.9832,7.1399,7.2652,7.3415,7.3776,7.4032,7.4184,7.4196,7.4196,7.4221,7.4297,7.4456,7.4506,7.4217,7.3891,7.3675,7.2938,7.1906,7.0712,7.028,7.0539,7.1242,7.2019,7.2821,7.3426,7.3751,7.4052,7.4498,7.461,7.4814,7.5239,7.576,7.634,7.6923,7.747,7.804,7.8224,7.8093,7.7889,7.7725,7.7632,7.7841,7.8699,7.8938,7.9842,8.16,8.3238,8.4219,8.477,8.5651,8.6059,8.6096,8.6353,8.6532,8.6432,8.6536,8.6764,8.7454,8.8178,8.9144,9.026,9.1433,9.2433,9.333,9.4089,9.4758,9.4723,9.4723,9.4758,9.4696,9.3938,9.3656,9.3666,9.3162,9.305,9.2849,9.2474,9.2245,9.2048,9.1946,9.2333,9.2749,9.3449,9.408,6.2495,6.3033,6.3078,6.3252,6.3467,6.3538,6.3835,6.4256,6.4368,6.4524,6.4763,6.4805,6.4846,6.4846,6.4874,6.4901,6.4901,6.4901,6.4901,6.4932,6.4994,6.5025,6.4918,6.4943,6.4984,6.4998,6.5287,6.5542,6.5893,6.7192,6.8439,7.0006,7.1311,7.2501,7.3555,7.4077,7.4171,7.4196,7.4196,7.4196,7.4209,7.4398,7.4556,7.4548,7.4667,7.4404,7.3731,7.3324,7.2491,7.1146,7.082,7.0986,7.1453,7.2299,7.2907,7.3227,7.3571,7.3968,7.4385,7.4664,7.4897,7.5471,7.6236,7.689,7.7285,7.7907,7.8317,7.8182,7.7856,7.7541,7.7422,7.756,7.8132,7.8892,7.953,8.0718,8.2581,8.4026,8.4829,8.5463,8.6602,8.7393,8.6668,8.7053,8.708,8.6764,8.7053,8.7489,8.8075,8.9075,9.042,9.1606,9.2675,9.3516,9.424,9.4585,9.5172,9.5103,9.4999,9.4827,9.4861,9.4186,9.3856,9.3784,9.3734,9.3598,9.3371,9.2984,9.2641,9.2383,9.2484,9.2849,9.3453,9.4168,9.477,6.2181,6.2405,6.2884,6.3151,6.3237,6.341,6.3565,6.3764,6.4005,6.419,6.4289,6.444,6.4566,6.4579,6.4818,6.4901,6.4901,6.4901,6.4901,6.498,6.5428,6.5319,6.5035,6.5122,6.5187,6.5256,6.5681,6.6112,6.645,6.7549,6.8927,7.0306,7.1485,7.2674,7.3711,7.407,7.4184,7.4196,7.4196,7.4196,7.4209,7.4259,7.4297,7.431,7.4385,7.4285,7.3894,7.3092,7.2193,7.1246,7.1212,7.1187,7.1195,7.1893,7.2468,7.2755,7.3175,7.3609,7.4062,7.4668,7.5078,7.5163,7.6377,7.7146,7.7126,7.798,7.8364,7.8296,7.7957,7.7615,7.7561,7.7757,7.8528,7.982,8.0696,8.1701,8.2926,8.4114,8.5122,8.5806,8.6969,8.724,8.7157,8.7474,8.789,8.7454,8.7764,8.8489,8.9075,8.9985,9.1295,9.2433,9.3503,9.4309,9.493,9.5172,9.5344,9.5206,9.4965,9.4516,9.453,9.4344,9.4338,9.4487,9.4437,9.4369,9.3942,9.3552,9.3163,9.2901,9.3247,9.373,9.4336,9.5024,9.5567,6.1583,6.2121,6.2525,6.2854,6.3092,6.3266,6.3395,6.3508,6.3724,6.3965,6.4146,6.4328,6.4496,6.4621,6.4818,6.4901,6.4901,6.4901,6.5072,6.5408,6.5845,6.5808,6.5554,6.5459,6.5365,6.5497,6.5978,6.6312,6.6715,6.7693,6.9021,7.0447,7.1538,7.2666,7.3922,7.4095,7.4196,7.4196,7.4196,7.4196,7.4196,7.4196,7.4196,7.4196,7.4196,7.4158,7.3927,7.3182,7.2422,7.1811,7.146,7.1219,7.1274,7.1632,7.2092,7.2468,7.2807,7.3168,7.3663,7.4423,7.5002,7.5417,7.6558,7.7258,7.7655,7.8205,7.847,7.8269,7.7965,7.7938,7.8172,7.8662,7.9686,8.087,8.1734,8.2556,8.3391,8.4627,8.5683,8.6578,8.7491,8.8043,8.7564,8.82,8.8252,8.8191,8.8558,8.9282,9.004,9.1054,9.2054,9.3192,9.4089,9.4827,9.5137,9.531,9.5413,9.531,9.5172,9.4654,9.4544,9.4585,9.493,9.5137,9.513,9.5031,9.4602,9.4304,9.4068,9.403,9.4275,9.4721,9.5384,9.5991,9.6508,6.0805,6.1896,6.2046,6.2465,6.2944,6.3048,6.3237,6.3438,6.3467,6.375,6.4174,6.4342,6.4482,6.4846,6.4832,6.4901,6.4932,6.5042,6.5503,6.5833,6.6094,6.6075,6.6206,6.5726,6.5627,6.5781,6.6112,6.6472,6.692,6.7555,6.8922,7.0507,7.1372,7.2538,7.383,7.4184,7.4196,7.4196,7.4196,7.4196,7.4196,7.4196,7.4196,7.4196,7.4108,7.3968,7.3725,7.3324,7.2822,7.2377,7.1515,7.1311,7.1534,7.1543,7.1794,7.224,7.2468,7.2768,7.3293,7.413,7.4977,7.5773,7.663,7.7462,7.8165,7.841,7.8417,7.8255,7.812,7.8292,7.8924,8.002,8.0951,8.1759,8.2266,8.2944,8.4105,8.5301,8.6407,8.7478,8.8327,8.8721,8.8736,8.8732,8.8708,8.8846,8.9364,9.0075,9.0903,9.1813,9.2813,9.3861,9.462,9.5275,9.5379,9.5379,9.5413,9.5379,9.5344,9.5082,9.4896,9.5033,9.5474,9.5695,9.5599,9.5544,9.5448,9.5169,9.4981,9.521,9.5544,9.5996,9.6516,9.704,9.7573,6.025,6.0609,6.1672,6.2181,6.2405,6.2868,6.3137,6.3194,6.3194,6.3438,6.3708,6.3963,6.4258,6.4552,6.4791,6.4901,6.4994,6.5411,6.6057,6.6517,6.5795,6.6023,6.6384,6.6138,6.605,6.6206,6.6586,6.6953,6.733,6.7926,6.9148,7.0916,7.1518,7.2464,7.3926,7.4196,7.4196,7.4196,7.4196,7.4196,7.4196,7.4196,7.4196,7.4158,7.3981,7.3725,7.337,7.2926,7.2382,7.1893,7.1579,7.1351,7.1291,7.1286,7.1397,7.1671,7.2187,7.2562,7.2969,7.4339,7.5536,7.5745,7.7058,7.8171,7.8122,7.839,7.8444,7.8363,7.8261,7.8678,7.9669,8.0418,8.141,8.223,8.269,8.3522,8.5101,8.5808,8.6486,8.756,8.8327,8.8677,8.8389,8.909,8.929,8.9523,9.0123,9.0881,9.1709,9.2606,9.3468,9.4413,9.4654,9.5172,9.5413,9.5413,9.5413,9.5413,9.5413,9.5462,9.5261,9.5342,9.5741,9.5953,9.598,9.5953,9.5953,9.6131,9.5995,9.6401,9.6787,9.7232,9.7646,9.8172,9.8264,6.001,6.0625,6.1343,6.2002,6.2584,6.2944,6.3108,6.3108,6.3108,6.3352,6.3724,6.3951,6.4216,6.4621,6.4818,6.4901,6.5086,6.5596,6.5943,6.6141,6.5892,6.618,6.634,6.6439,6.6392,6.6472,6.6783,6.7187,6.7619,6.8223,6.9392,7.1233,7.1651,7.2643,7.3939,7.4196,7.4196,7.4196,7.4196,7.4196,7.4196,7.4196,7.4108,7.4019,7.3861,7.3597,7.311,7.2715,7.2195,7.1753,7.1493,7.13,7.1064,7.1009,7.112,7.1465,7.1753,7.2461,7.3237,7.4339,7.5377,7.5796,7.7237,7.7841,7.8147,7.8336,7.8551,7.8697,7.9002,7.961,8.0987,8.1875,8.2556,8.2872,8.3206,8.4161,8.5628,8.5907,8.6331,8.7578,8.8191,8.8485,8.8756,8.9298,8.9863,9.0054,9.0847,9.1606,9.2399,9.3261,9.3985,9.4654,9.4689,9.493,9.5275,9.5413,9.5413,9.5413,9.5413,9.5503,9.5557,9.5714,9.5986,9.6093,9.6235,9.6369,9.642,9.6695,9.7135,9.7535,9.7931,9.8354,9.8666,9.8845,9.8825,5.9937,6.097,6.115,6.1912,6.2868,6.3033,6.3108,6.3108,6.3108,6.3438,6.3922,6.4007,6.4331,6.4777,6.4888,6.4918,6.5195,6.5363,6.5629,6.5796,6.6133,6.6263,6.6309,6.6437,6.6586,6.6696,6.6953,6.7336,6.7873,6.8486,6.9681,7.1321,7.1837,7.2755,7.3852,7.4196,7.4196,7.4196,7.4196,7.4196,7.4196,7.4196,7.407,7.3873,7.3629,7.3338,7.288,7.2463,7.2092,7.1589,7.1286,7.1037,7.0855,7.0845,7.1026,7.1493,7.1616,7.2219,7.3253,7.4288,7.5193,7.6087,7.7134,7.7796,7.8147,7.843,7.8671,7.9169,7.9695,8.0963,8.2563,8.3198,8.3599,8.3775,8.3788,8.4698,8.5826,8.5801,8.6298,8.7695,8.812,8.8281,8.8827,8.9385,9.0036,9.0709,9.1502,9.2274,9.3033,9.3758,9.4447,9.4723,9.4758,9.462,9.4861,9.5413,9.5413,9.5413,9.5413,9.5544,9.5722,9.5953,9.612,9.6356,9.6488,9.669,9.7066,9.7511,9.7989,9.8519,9.9,9.9417,9.9549,9.9548,9.9436,6.007,6.037,6.1477,6.2091,6.2345,6.2868,6.3108,6.3108,6.3122,6.3453,6.3965,6.4021,6.4359,6.4777,6.4901,6.5195,6.5442,6.5394,6.5499,6.582,6.6045,6.5987,6.6309,6.6538,6.6717,6.6953,6.7207,6.7631,6.8151,6.8772,6.9989,7.1338,7.1948,7.2813,7.3832,7.4196,7.4196,7.4196,7.4196,7.4196,7.4196,7.4146,7.3981,7.3694,7.3286,7.2919,7.2535,7.2019,7.1603,7.1286,7.0995,7.0855,7.0859,7.0845,7.0995,7.1286,7.1625,7.2293,7.3324,7.4399,7.5435,7.6461,7.738,7.8041,7.839,7.8704,7.8969,7.9621,8.0727,8.2112,8.2932,8.3834,8.3981,8.3966,8.4203,8.4892,8.6061,8.6081,8.5989,8.7636,8.7962,8.828,8.8957,8.9583,9.0174,9.0868,9.1709,9.2364,9.2985,9.3813,9.462,9.4758,9.4723,9.4516,9.4413,9.5068,9.5413,9.5413,9.5455,9.5572,9.5777,9.6013,9.6241,9.6541,9.6891,9.7175,9.7649,9.8216,9.8884,9.9383,9.9903,10.0418,10.0345,10.0249,10.032,6.0296,6.0715,6.1672,6.2301,6.2644,6.2944,6.3108,6.3137,6.3252,6.3567,6.3936,6.4146,6.4454,6.4805,6.4901,6.5103,6.5195,6.5103,6.5335,6.5816,6.5815,6.5987,6.6392,6.6665,6.694,6.7265,6.7606,6.7987,6.8471,6.937,7.0461,7.1598,7.23,7.3144,7.3964,7.4196,7.4196,7.4196,7.4196,7.4196,7.4171,7.407,7.3725,7.3181,7.2853,7.2508,7.2038,7.1671,7.1355,7.1175,7.0971,7.0897,7.0939,7.1023,7.1134,7.1456,7.1987,7.2801,7.3771,7.4871,7.5838,7.6806,7.7561,7.8033,7.843,7.8784,7.9467,8.0789,8.208,8.3535,8.4329,8.4662,8.4745,8.4733,8.4807,8.5469,8.6178,8.5918,8.6702,8.7723,8.8052,8.857,8.926,8.9821,9.0351,9.1041,9.1882,9.2502,9.3054,9.3985,9.493,9.4827,9.4792,9.4585,9.4482,9.493,9.5379,9.5413,9.5434,9.5585,9.5845,9.6093,9.6475,9.6839,9.7183,9.7555,9.8091,9.859,9.9418,10.0184,10.0604,10.0886,10.0962,10.0955,10.0942,6.0611,6.115,6.1972,6.2614,6.3078,6.3108,6.3151,6.3223,6.341,6.3724,6.4075,6.4314,6.4579,6.4832,6.4901,6.4932,6.4901,6.4943,6.53,6.5668,6.5826,6.6134,6.6612,6.6914,6.72,6.7631,6.8012,6.8414,6.8854,6.9829,7.0942,7.1886,7.2722,7.3475,7.4064,7.4196,7.4196,7.4196,7.4196,7.4184,7.4057,7.3699,7.3234,7.2548,7.2388,7.2079,7.1603,7.1369,7.1189,7.1064,7.0957,7.0929,7.1148,7.1245,7.1438,7.1849,7.2641,7.3577,7.4562,7.5339,7.6242,7.7308,7.7618,7.8046,7.863,7.9381,8.0427,8.2495,8.3692,8.4643,8.5207,8.5532,8.548,8.5471,8.5594,8.6006,8.6652,8.7001,8.7495,8.8148,8.8372,8.8867,8.9532,9.0088,9.0592,9.111,9.1916,9.2606,9.3261,9.4468,9.5172,9.4999,9.4861,9.4689,9.4689,9.4965,9.531,9.5413,9.5448,9.5572,9.5851,9.6187,9.6568,9.693,9.7468,9.7849,9.8411,9.9008,9.9784,10.044,10.1011,10.1279,10.1294,10.1274,10.1233,6.103,6.121,6.2465,6.3048,6.3108,6.3122,6.3252,6.3453,6.3524,6.3835,6.4312,6.4396,6.4621,6.4846,6.4901,6.4901,6.4984,6.5119,6.5406,6.5741,6.6014,6.6419,6.6875,6.6966,6.7452,6.7994,6.8441,6.8699,6.9276,7.0128,7.1078,7.2035,7.2879,7.3488,7.413,7.4196,7.4196,7.4196,7.4196,7.4044,7.3712,7.309,7.2694,7.2361,7.2011,7.1603,7.13,7.1162,7.1078,7.0901,7.0845,7.0957,7.1175,7.1438,7.1862,7.2307,7.2908,7.3659,7.4868,7.5777,7.6675,7.7703,7.8174,7.8511,7.9261,8.0418,8.1923,8.4235,8.4742,8.5097,8.5681,8.5852,8.5737,8.5874,8.6109,8.6829,8.7508,8.7633,8.8244,8.8893,8.9242,8.9385,8.9812,9.0316,9.0834,9.1351,9.195,9.2675,9.3399,9.4482,9.5296,9.5089,9.4827,9.462,9.4861,9.5172,9.5275,9.5379,9.5503,9.5613,9.5932,9.6281,9.6568,9.6983,9.7547,9.82,9.8867,9.9499,10.0166,10.0758,10.1343,10.1532,10.1622,10.1554,10.148,6.1329,6.1748,6.2718,6.3108,6.3137,6.3266,6.3395,6.3567,6.3864,6.4129,6.4396,6.4607,6.4777,6.4918,6.4901,6.4984,6.5136,6.5331,6.56,6.6036,6.6375,6.6689,6.6992,6.7298,6.7784,6.8331,6.9016,6.9645,7.0079,7.0819,7.1799,7.2577,7.331,7.3852,7.4196,7.4196,7.4196,7.4146,7.4006,7.3648,7.3142,7.2694,7.2267,7.1821,7.152,7.1258,7.105,7.0953,7.0943,7.0845,7.0929,7.1148,7.1479,7.1894,7.2464,7.3344,7.4109,7.4751,7.5364,7.6352,7.7334,7.7996,7.853,7.8983,8.0153,8.1673,8.3073,8.4604,8.5333,8.5762,8.6015,8.6131,8.6068,8.6173,8.6539,8.7062,8.7796,8.8274,8.8674,8.9381,9.0006,9.004,9.0109,9.0454,9.0834,9.1178,9.195,9.2847,9.3413,9.4034,9.4723,9.5124,9.4827,9.4516,9.493,9.531,9.531,9.5455,9.5647,9.5777,9.6067,9.6374,9.666,9.7101,9.7692,9.8446,9.924,9.992,10.0495,10.1079,10.1676,10.1676,10.1676,10.1662,10.1581,6.1569,6.2375,6.2884,6.3151,6.3223,6.3394,6.3594,6.3793,6.4158,6.4423,6.4566,6.4777,6.5008,6.5231,6.5348,6.561,6.5992,6.5985,6.6326,6.6762,6.7123,6.7504,6.7911,6.821,6.8399,6.8641,6.9354,7.0014,7.072,7.1465,7.2246,7.3111,7.372,7.4097,7.4163,7.4196,7.4184,7.4019,7.3609,7.3129,7.2609,7.2294,7.1821,7.141,7.112,7.0995,7.0859,7.0817,7.0817,7.0845,7.1054,7.1286,7.1603,7.2106,7.2939,7.3937,7.4903,7.5766,7.6359,7.7189,7.7996,7.8503,7.9182,8.0029,8.13,8.2946,8.4271,8.5227,8.5743,8.6153,8.6282,8.6282,8.6244,8.646,8.6874,8.7303,8.7764,8.8463,8.9174,8.9924,9.0364,9.042,9.0489,9.0661,9.0868,9.1041,9.1847,9.2916,9.3447,9.3792,9.4137,9.462,9.4378,9.4275,9.5068,9.5379,9.5379,9.5496,9.5654,9.5899,9.6147,9.6462,9.6712,9.7246,9.7858,9.8621,9.9381,10.0096,10.0812,10.1303,10.1676,10.1676,10.1676,10.1676,10.1676,6.1852,6.3048,6.3078,6.3223,6.3453,6.3495,6.3821,6.423,6.4354,6.4593,6.4805,6.4963,6.5468,6.5961,6.6243,6.6689,6.7582,6.7866,6.8038,6.8369,6.8824,6.8984,6.9135,6.9149,6.9296,6.9615,6.9846,7.0168,7.0828,7.1592,7.237,7.3098,7.3819,7.4097,7.4184,7.4158,7.3968,7.3687,7.3142,7.2681,7.224,7.1835,7.1328,7.1189,7.0953,7.0831,7.0817,7.0817,7.0845,7.0859,7.1106,7.1452,7.1807,7.2431,7.3387,7.4557,7.5727,7.6669,7.7556,7.8034,7.8485,7.9181,7.9978,8.0885,8.1861,8.3606,8.4995,8.5837,8.6188,8.6282,8.6294,8.6294,8.6294,8.6536,8.6984,8.7605,8.8191,8.8984,8.9696,9.0454,9.0709,9.0661,9.0661,9.0765,9.0799,9.0937,9.1778,9.2847,9.3192,9.3516,9.3654,9.3861,9.3654,9.3999,9.5137,9.5413,9.5413,9.5503,9.5709,9.594,9.6161,9.6475,9.6865,9.739,9.8024,9.8749,9.9556,10.0342,10.1022,10.143,10.1676,10.1676,10.1676,10.1676,10.1676,6.2271,6.3108,6.3108,6.3165,6.3295,6.3652,6.392,6.4202,6.4538,6.4746,6.4977,6.5499,6.5947,6.6409,6.7049,6.7603,6.8281,6.8435,6.8834,6.9166,6.9513,6.9592,6.9646,6.9655,6.9572,6.9776,6.9897,7.0286,7.0933,7.1587,7.237,7.3111,7.3753,7.4097,7.4171,7.4006,7.3699,7.324,7.2728,7.2321,7.1671,7.1465,7.112,7.0925,7.0869,7.0817,7.0817,7.0817,7.0915,7.1082,7.13,7.1671,7.2248,7.3071,7.4182,7.5411,7.6595,7.7631,7.8511,7.8906,7.8992,7.8953,7.9815,8.091,8.1952,8.3509,8.4926,8.5739,8.6294,8.6294,8.6294,8.6294,8.6329,8.6501,8.6949,8.7639,8.8433,8.9157,8.995,9.0571,9.073,9.0765,9.0765,9.0799,9.0799,9.0868,9.1813,9.2619,9.2916,9.3192,9.3344,9.3689,9.3654,9.4068,9.5172,9.5344,9.5413,9.5544,9.5736,9.5959,9.6227,9.6686,9.7126,9.7612,9.8187,9.8959,9.9745,10.0623,10.1184,10.1571,10.1676,10.1676,10.1676,10.1676,10.1676,6.2495,6.3078,6.3108,6.3151,6.328,6.3681,6.3979,6.4204,6.4538,6.5055,6.5365,6.6036,6.6748,6.7343,6.7985,6.8898,6.9495,6.9804,7.0064,7.0335,7.0523,7.039,7.0206,7.0009,6.994,6.9852,6.9964,7.0394,7.0527,7.1289,7.1985,7.2713,7.3488,7.3819,7.412,7.3815,7.337,7.2952,7.2382,7.1938,7.1272,7.1106,7.1009,7.0813,7.0817,7.0817,7.0845,7.0869,7.1009,7.1245,7.1593,7.2126,7.2897,7.3899,7.5122,7.6378,7.7505,7.8463,7.9159,7.9229,7.8996,7.8648,7.9732,8.0748,8.1801,8.3299,8.5107,8.6075,8.6294,8.6294,8.6294,8.6294,8.6294,8.6432,8.6557,8.7191,8.8191,8.9019,8.9847,9.0605,9.0696,9.0799,9.0799,9.0834,9.1041,9.1006,9.1261,9.1985,9.2468,9.2744,9.3033,9.3482,9.393,9.4551,9.5241,9.5344,9.5427,9.553,9.5736,9.6013,9.6334,9.6791,9.7108,9.7367,9.8047,9.9029,9.9885,10.0658,10.1184,10.1641,10.1676,10.1676,10.1676,10.1676,10.1676,6.2495,6.3078,6.3108,6.3252,6.3438,6.351,6.3835,6.43,6.4496,6.514,6.6081,6.6378,6.761,6.9024,6.9442,7.0249,7.1096,7.1536,7.1781,7.1834,7.1571,7.1752,7.1387,7.0872,7.0219,7.0308,7.0169,6.9949,6.9931,7.0605,7.1322,7.2084,7.2846,7.3575,7.4079,7.3615,7.3168,7.2814,7.21,7.1589,7.1231,7.0981,7.0841,7.0831,7.0817,7.0817,7.0897,7.1023,7.1235,7.1698,7.2068,7.2746,7.3741,7.4417,7.5648,7.7211,7.7972,7.8801,7.9595,7.9061,7.8547,7.8345,7.945,8.0595,8.1528,8.3287,8.5316,8.6109,8.6294,8.6294,8.6294,8.6294,8.6294,8.6398,8.6536,8.7122,8.8157,8.8984,8.9847,9.0571,9.073,9.0799,9.0799,9.0868,9.1213,9.1247,9.1088,9.1399,9.2019,9.2571,9.2951,9.362,9.424,9.4758,9.5275,9.5344,9.5455,9.5544,9.5763,9.6053,9.6361,9.6752,9.7017,9.7235,9.8152,9.931,10.0026,10.0658,10.1184,10.1676,10.1676,10.1676,10.1676,10.1689,10.1703,6.2495,6.3108,6.3108,6.3151,6.3266,6.3408,6.3736,6.4202,6.4749,6.5489,6.6375,6.7115,6.8259,6.9556,7.0668,7.1397,7.209,7.2457,7.2651,7.2287,7.207,7.1562,7.1164,7.0774,7.0303,7.0085,6.9819,6.9798,6.9831,7.0175,7.0605,7.1322,7.2548,7.3442,7.3846,7.3628,7.3168,7.2775,7.21,7.1479,7.1203,7.0939,7.0817,7.0817,7.0817,7.0901,7.1132,7.1299,7.1776,7.2526,7.3045,7.3733,7.4908,7.5734,7.6782,7.8002,7.8713,7.9237,7.9205,7.8697,7.8194,7.8406,7.8927,8.0072,8.1068,8.3048,8.4759,8.5971,8.6294,8.6294,8.6294,8.6294,8.6329,8.6467,8.6777,8.7536,8.8398,8.9122,8.9847,9.0454,9.0799,9.0799,9.0799,9.0799,9.1075,9.1144,9.0937,9.133,9.1916,9.2675,9.3192,9.3965,9.462,9.5034,9.5344,9.5379,9.5413,9.5482,9.5763,9.612,9.6427,9.6738,9.7285,9.766,9.8621,9.9569,10.0307,10.0974,10.136,10.1676,10.1676,10.1676,10.1676,10.1716,10.1805,6.2495,6.3108,6.3108,6.3108,6.3137,6.3295,6.3595,6.412,6.4943,6.5847,6.6907,6.7949,6.9218,7.0431,7.1451,7.2203,7.2722,7.2776,7.2749,7.2324,7.1854,7.1334,7.0831,7.0327,7.0073,6.9841,6.9798,6.9798,6.9798,6.9798,7.0428,7.1488,7.2481,7.3409,7.3813,7.3718,7.3292,7.2847,7.2168,7.1571,7.1258,7.0967,7.0817,7.0845,7.0946,7.1136,7.1549,7.2027,7.2604,7.3625,7.4342,7.4933,7.6215,7.7027,7.7884,7.8731,7.9398,7.9614,7.9131,7.8437,7.8148,7.8239,7.8559,7.9515,8.1029,8.2972,8.4634,8.5764,8.6225,8.6294,8.6294,8.6294,8.6363,8.6467,8.6777,8.7501,8.8433,8.9122,8.9743,9.0351,9.0799,9.0799,9.0799,9.0799,9.0868,9.0868,9.0799,9.1351,9.1916,9.264,9.3434,9.424,9.4827,9.5172,9.5344,9.5379,9.5413,9.5413,9.5763,9.6174,9.6387,9.6721,9.7421,9.8165,9.8937,9.978,10.0706,10.1373,10.1571,10.1676,10.1676,10.1676,10.1676,10.177,10.1913,6.245,6.3078,6.3108,6.3108,6.3108,6.3194,6.3524,6.4106,6.4953,6.6261,6.7853,6.8431,6.9799,7.1695,7.2342,7.2703,7.3011,7.2853,7.256,7.2199,7.1486,7.0993,7.0587,7.0112,6.9892,6.9796,6.9774,6.9739,6.9786,6.9798,7.0527,7.1768,7.2589,7.3467,7.3923,7.3887,7.3439,7.2926,7.2169,7.1715,7.1402,7.1078,7.1076,7.1167,7.1374,7.1887,7.2434,7.3123,7.3916,7.4713,7.5298,7.6273,7.7034,7.745,7.8472,7.9391,8.0074,7.9785,7.9102,7.8372,7.8189,7.8258,7.8564,7.9738,8.1313,8.3077,8.4624,8.573,8.6294,8.6294,8.6294,8.6294,8.6329,8.6398,8.6454,8.7294,8.8295,8.9053,8.964,9.0192,9.0661,9.0799,9.0799,9.0799,9.0799,9.0903,9.1041,9.164,9.2192,9.2675,9.3503,9.4447,9.4965,9.5275,9.5413,9.5413,9.5413,9.5413,9.5845,9.6227,9.6414,9.68,9.7574,9.834,9.9078,9.9955,10.1022,10.1514,10.1641,10.1676,10.1676,10.1676,10.1676,10.1918,10.2065,6.2046,6.3078,6.3108,6.3108,6.318,6.3567,6.3948,6.4368,6.5228,6.6644,6.8463,6.8803,7.0241,7.2278,7.2675,7.2796,7.2901,7.2802,7.2155,7.1613,7.1042,7.0581,7.0148,6.9799,6.9679,6.9658,6.9646,6.9679,6.9798,6.9822,7.0761,7.212,7.2631,7.3494,7.4006,7.3953,7.3508,7.3004,7.2207,7.1859,7.1725,7.1543,7.1638,7.1911,7.2199,7.2819,7.373,7.4152,7.5047,7.6352,7.6683,7.747,7.8667,7.9027,7.9641,8.0208,8.0486,8.0284,7.9068,7.8637,7.8414,7.8387,7.8701,8.0177,8.1753,8.3308,8.4695,8.5557,8.626,8.6294,8.6294,8.6294,8.6294,8.6363,8.6557,8.7282,8.826,8.8984,8.9605,9.0351,9.0799,9.0799,9.0799,9.0799,9.0834,9.0972,9.1316,9.195,9.2537,9.302,9.3675,9.4654,9.5034,9.5344,9.5413,9.5413,9.5413,9.5448,9.5878,9.6227,9.6422,9.6891,9.774,9.8749,9.9815,10.0658,10.143,10.1676,10.1676,10.1676,10.1676,10.1676,10.173,10.1998,10.2224,6.2248,6.3362,6.3467,6.3467,6.3553,6.3948,6.4384,6.4843,6.5443,6.6708,6.8265,6.9124,7.0473,7.2051,7.2581,7.283,7.2848,7.2225,7.1662,7.1198,7.0638,7.0145,6.973,6.9607,6.9631,6.9586,6.9634,6.9751,6.9983,7.0526,7.1368,7.2419,7.2743,7.3742,7.4256,7.378,7.3376,7.3003,7.2522,7.205,7.2033,7.2146,7.2403,7.2797,7.31,7.4066,7.496,7.5236,7.6388,7.7616,7.7868,7.8462,7.9484,7.9857,8.0124,8.0542,8.0365,7.9839,7.8941,7.8714,7.8584,7.8692,7.914,8.063,8.2055,8.3519,8.458,8.5488,8.5971,8.6294,8.6294,8.6294,8.6294,8.6329,8.6833,8.7385,8.8157,8.8881,8.9709,9.0523,9.0799,9.0799,9.0799,9.0799,9.0972,9.1364,9.1847,9.2447,9.3068,9.362,9.424,9.5034,9.5241,9.5413,9.5413,9.5441,9.5482,9.5585,9.5918,9.6262,9.6444,9.7232,9.8332,9.9534,10.0776,10.136,10.1676,10.1676,10.1676,10.1676,10.1703,10.1757,10.1891,10.2206,10.2404,6.2839,6.3993,6.4007,6.3979,6.4078,6.4328,6.4757,6.5351,6.5673,6.6538,6.7861,6.924,7.0494,7.1655,7.2197,7.2479,7.2234,7.1641,7.1123,7.0804,7.0241,6.9793,6.9688,6.9643,6.9619,6.9583,6.9664,6.9886,7.0464,7.1086,7.1805,7.2804,7.3464,7.4241,7.4524,7.3408,7.3091,7.3533,7.2817,7.2222,7.2672,7.2791,7.2916,7.3371,7.4167,7.5167,7.5939,7.6698,7.7575,7.8285,7.885,7.9269,7.9768,8.0309,8.0572,8.0464,8.0241,7.9599,7.8963,7.869,7.8967,7.9244,7.9898,8.098,8.2226,8.3476,8.4488,8.5316,8.5846,8.6225,8.6294,8.6394,8.6444,8.6444,8.6742,8.7537,8.8435,8.9213,8.9985,9.0627,9.0799,9.0799,9.0868,9.0903,9.1123,9.1653,9.2516,9.3137,9.3447,9.4034,9.4689,9.531,9.5344,9.5413,9.5413,9.5455,9.5544,9.5736,9.6013,9.6525,9.6899,9.7876,9.9008,10.0039,10.1057,10.1395,10.1676,10.1676,10.1676,10.1676,10.173,10.1824,10.2025,10.2325,10.2548,6.3248,6.4007,6.4007,6.4104,6.4342,6.4591,6.5046,6.5633,6.6174,6.7071,6.8242,6.8955,6.9976,7.12,7.1514,7.1643,7.1336,7.109,7.0593,7.0262,6.9831,6.9739,6.9667,6.9574,6.9562,6.9643,6.9769,7.0189,7.1092,7.174,7.251,7.3761,7.4244,7.4527,7.4601,7.3304,7.3101,7.391,7.3142,7.3088,7.3959,7.418,7.4373,7.5174,7.6148,7.6518,7.7194,7.7823,7.8518,7.9127,7.944,7.9742,8.0074,8.0622,8.0516,8.0148,8.0176,7.9564,7.8924,7.8707,7.9017,7.9556,8.0201,8.1055,8.2116,8.3321,8.4328,8.5099,8.5755,8.61,8.6357,8.6494,8.6605,8.6605,8.6674,8.7713,8.8738,8.9519,9.0274,9.0558,9.0765,9.0834,9.0903,9.1054,9.1295,9.2102,9.3275,9.393,9.3861,9.4206,9.4827,9.5344,9.5379,9.5413,9.5413,9.5482,9.5558,9.579,9.604,9.6656,9.7376,9.8643,9.9815,10.039,10.1092,10.143,10.1676,10.1676,10.1676,10.1676,10.1906,10.207,10.2219,10.2449,10.2675,6.3759,6.437,6.4401,6.4468,6.4649,6.4926,6.531,6.5781,6.6467,6.7241,6.808,6.8769,6.9657,7.0584,7.076,7.084,7.068,7.0491,7.0184,6.9898,6.9786,6.9715,6.9643,6.9628,6.9538,6.9631,7.0384,7.1078,7.1985,7.2816,7.3737,7.4403,7.4641,7.4744,7.4511,7.3559,7.334,7.4213,7.3364,7.4003,7.526,7.5634,7.5651,7.6523,7.7085,7.7549,7.793,7.8444,7.8909,7.9453,7.9853,8.0158,8.0485,8.0894,8.0716,8.0267,7.9955,7.9638,7.8889,7.8702,7.9136,7.9779,8.0542,8.14,8.2315,8.3458,8.4143,8.496,8.6022,8.6484,8.6593,8.6716,8.6826,8.6863,8.7012,8.7624,8.8802,8.9843,9.0382,9.0661,9.0799,9.0799,9.0868,9.0868,9.1192,9.1895,9.3171,9.3999,9.4068,9.4413,9.5034,9.5413,9.5413,9.5413,9.5413,9.5496,9.5585,9.5831,9.608,9.7111,9.8081,9.9515,10.0644,10.1049,10.133,10.15,10.1676,10.173,10.1689,10.1676,10.1989,10.2338,10.2471,10.2669,10.3072,6.42,6.4871,6.4888,6.4888,6.4943,6.5214,6.547,6.5821,6.6625,6.7148,6.7567,6.8652,6.9273,6.9707,7.0043,7.0239,7.0315,7.0124,6.9864,6.981,6.9798,6.9904,6.9922,6.9865,7.0055,7.0535,7.1292,7.2223,7.3189,7.3851,7.433,7.4772,7.5055,7.5258,7.4418,7.3787,7.3634,7.4156,7.4286,7.5116,7.6115,7.6998,7.6851,7.7114,7.7603,7.8114,7.835,7.8671,7.9094,7.9562,8.012,8.046,8.0746,8.1044,8.0551,8.0169,7.9727,7.9235,7.8667,7.864,7.9339,8.0099,8.0944,8.1779,8.2707,8.3416,8.4096,8.4948,8.6012,8.6696,8.6804,8.6948,8.707,8.7292,8.7465,8.7715,8.8925,9.0102,9.0529,9.0804,9.0799,9.0799,9.0799,9.0799,9.1261,9.1929,9.2654,9.3378,9.4034,9.462,9.5206,9.5413,9.5413,9.5413,9.5413,9.5482,9.5579,9.5891,9.6305,9.7559,9.8831,10.0121,10.1071,10.1538,10.1784,10.1824,10.1838,10.1926,10.1824,10.1757,10.2208,10.2598,10.2674,10.2941,10.3579,6.4228,6.4901,6.4901,6.4901,6.4984,6.5419,6.566,6.5835,6.6652,6.7161,6.7542,6.8026,6.8646,6.9149,6.919,6.9541,7.0136,6.9928,6.9853,6.9798,6.9943,7.0193,7.0458,7.0626,7.1178,7.1811,7.2491,7.3233,7.4006,7.4487,7.492,7.5439,7.5473,7.5089,7.3971,7.3701,7.4078,7.4518,7.5181,7.5967,7.6801,7.7437,7.7715,7.7966,7.831,7.8564,7.879,7.9127,7.944,7.9781,8.0238,8.0672,8.098,8.1121,8.0661,7.992,7.9476,7.8923,7.8572,7.8738,7.9458,8.0432,8.1256,8.2103,8.2909,8.3575,8.4263,8.497,8.5944,8.6778,8.7059,8.7275,8.7429,8.7801,8.8092,8.8464,8.9281,9.0178,9.088,9.0909,9.0825,9.0812,9.0799,9.0985,9.1261,9.2033,9.2964,9.362,9.3792,9.4551,9.5379,9.5413,9.5413,9.5413,9.5413,9.5427,9.5565,9.5905,9.6551,9.7722,9.9046,10.0604,10.1449,10.1794,10.1998,10.2091,10.2091,10.214,10.2025,10.205,10.2495,10.2822,10.289,10.321,10.387]},{"header":{"parameterUnit":"m.s-1","parameterCategory":1,"la1":31.0,"la2":29.5877,"lo1":-88.7671,"lo2":-86.6584,"dx":0.0162,"dy":0.0185,"nx":115,"ny":88,"refTime":"2022-11-10T06:00:00:Z","depth":0,"parameterNumber":3,"parameterNumberName":"V-component_of_WINDS"},"data":[0.0,0.0,0.0,0.0,0.0,0.0,0.0,0.0,0.0,0.0,0.0,0.0,0.0,0.0,0.0,0.0,0.0,0.0,0.0,0.0,0.0,0.0,0.0,0.0,0.0,0.0,0.0,0.0,0.0,0.0,0.0,0.0,0.0,0.0,0.0,0.0,0.0,0.0,0.0,0.0,0.0,0.0,0.0,0.0,0.0,0.0,0.0,0.0,0.0,0.0,0.0,0.0,0.0,0.0,0.0,0.0,0.0,0.0,0.0,0.0,0.0,0.0,0.0,0.0,0.0,0.0,0.0,0.0,0.0,0.0,0.0,0.0,0.0,0.0,0.0,0.0,0.0,0.0,0.0,0.0,0.0,0.0,0.0,0.0,0.0,0.0,0.0,0.0,0.0,0.0,0.0,0.0,0.0,0.0,0.0,0.0,0.0,0.0,0.0,0.0,0.0,0.0,0.0,0.0,0.0,0.0,0.0,0.0,0.0,0.0,0.0,0.0,0.0,0.0,0.0,0.0,0.0,0.0,0.0,0.0,0.0,0.0,0.0,0.0,0.0,0.0,0.0,0.0,0.0,0.0,0.0,0.0,0.0,0.0,0.0,0.0,0.0,0.0,0.0,0.0,0.0,0.0,0.0,0.0,0.0,0.0,0.0,0.0,0.0,0.0,0.0,0.0,0.0,0.0,0.0,0.0,0.0,0.0,0.0,0.0,0.0,0.0,0.0,0.0,0.0,0.0,0.0,0.0,0.0,0.0,0.0,0.0,0.0,0.0,0.0,0.0,0.0,0.0,0.0,0.0,0.0,0.0,0.0,0.0,0.0,0.0,0.0,0.0,0.0,0.0,0.0,0.0,0.0,0.0,0.0,0.0,0.0,0.0,0.0,0.0,0.0,0.0,0.0,0.0,0.0,0.0,0.0,0.0,0.0,0.0,0.0,0.0,0.0,0.0,0.0,0.0,0.0,0.0,0.0,0.0,0.0,0.0,0.0,0.0,0.0,0.0,0.0,0.0,0.0,0.0,0.0,0.0,0.0,0.0,0.0,0.0,0.0,0.0,0.0,0.0,0.0,0.0,0.0,0.0,0.0,0.0,0.0,0.0,0.0,0.0,0.0,0.0,0.0,0.0,0.0,0.0,0.0,0.0,0.0,0.0,0.0,0.0,0.0,0.0,0.0,0.0,0.0,0.0,0.0,0.0,0.0,0.0,0.0,0.0,0.0,0.0,0.0,0.0,0.0,0.0,0.0,0.0,0.0,0.0,0.0,0.0,0.0,0.0,0.0,0.0,0.0,0.0,0.0,0.0,0.0,0.0,0.0,0.0,0.0,0.0,0.0,0.0,0.0,0.0,0.0,0.0,0.0,0.0,0.0,0.0,0.0,0.0,0.0,0.0,0.0,0.0,0.0,0.0,0.0,0.0,0.0,0.0,0.0,0.0,0.0,0.0,0.0,0.0,0.0,0.0,0.0,0.0,0.0,0.0,0.0,0.0,0.0,0.0,0.0,0.0,0.0,0.0,0.0,0.0,0.0,0.0,0.0,0.0,0.0,0.0,0.0,0.0,0.0,0.0,0.0,0.0,0.0,0.0,0.0,0.0,0.0,0.0,0.0,0.0,0.0,0.0,0.0,0.0,0.0,0.0,0.0,0.0,0.0,0.0,0.0,0.0,0.0,0.0,0.0,0.0,0.0,0.0,0.0,0.0,0.0,0.0,0.0,0.0,0.0,0.0,0.0,0.0,0.0,0.0,0.0,0.0,0.0,0.0,0.0,0.0,0.0,0.0,0.0,0.0,0.0,0.0,0.0,0.0,0.0,0.0,0.0,0.0,0.0,0.0,0.0,0.0,0.0,0.0,0.0,0.0,0.0,0.0,0.0,0.0,0.0,0.0,0.0,0.0,0.0,0.0,0.0,0.0,0.0,0.0,0.0,0.0,0.0,0.0,0.0,0.0,0.0,0.0,0.0,0.0,0.0,0.0,0.0,0.0,0.0,0.0,0.0,0.0,0.0,0.0,0.0,0.0,0.0,0.0,0.0,0.0,0.0,0.0,0.0,0.0,0.0,0.0,0.0,0.0,0.0,0.0,0.0,0.0,0.0,0.0,0.0,0.0,0.0,0.0,0.0,0.0,0.0,0.0,0.0,0.0,0.0,0.0,0.0,0.0,0.0,0.0,0.0,0.0,0.0,0.0,0.0,0.0,0.0,0.0,0.0,0.0,0.0,0.0,0.0,0.0,0.0,0.0,0.0,0.0,0.0,0.0,0.0,0.0,0.0,0.0,0.0,0.0,0.0,0.0,0.0,0.0,0.0,0.0,0.0,0.0,0.0,0.0,0.0,0.0,0.0,0.0,0.0,0.0,0.0,0.0,0.0,0.0,0.0,0.0,0.0,0.0,0.0,0.0,0.0,0.0,0.0,0.0,0.0,0.0,0.0,0.0,0.0,0.0,0.0,0.0,0.0,0.0,0.0,0.0,0.0,0.0,0.0,0.0,0.0,0.0,0.0,0.0,0.0,0.0,0.0,0.0,0.0,0.0,0.0,0.0,0.0,0.0,0.0,0.0,0.0,0.0,0.0,0.0,0.0,0.0,0.0,0.0,0.0,0.0,0.0,0.0,0.0,0.0,0.0,0.0,0.0,0.0,0.0,0.0,0.0,0.0,0.0,0.0,0.0,0.0,0.0,0.0,0.0,0.0,0.0,0.0,0.0,0.0,0.0,0.0,0.0,0.0,0.0,0.0,0.0,0.0,0.0,0.0,0.0,0.0,0.0,0.0,0.0,0.0,0.0,0.0,0.0,0.0,0.0,0.0,0.0,0.0,0.0,0.0,0.0,0.0,0.0,0.0,0.0,0.0,0.0,0.0,0.0,0.0,0.0,0.0,0.0,0.0,0.0,0.0,0.0,0.0,0.0,0.0,0.0,0.0,0.0,0.0,0.0,0.0,0.0,0.0,0.0,0.0,0.0,0.0,0.0,0.0,0.0,0.0,0.0,0.0,0.0,0.0,0.0,0.0,0.0,0.0,0.0,0.0,0.0,0.0,0.0,0.0,0.0,0.0,0.0,0.0,0.0,0.0,0.0,0.0,0.0,0.0,0.0,0.0,0.0,0.0,0.0,0.0,0.0,0.0,0.0,0.0,0.0,0.0,0.0,0.0,0.0,0.0,0.0,0.0,0.0,0.0,0.0,0.0,0.0,0.0,0.0,0.0,0.0,0.0,0.0,0.0,0.0,0.0,0.0,0.0,0.0,0.0,0.0,0.0,0.0,0.0,0.0,0.0,0.0,0.0,0.0,0.0,0.0,0.0,0.0,0.0,0.0,0.0,0.0,0.0,0.0,0.0,0.0,0.0,0.0,0.0,0.0,0.0,0.0,0.0,0.0,0.0,0.0,0.0,0.0,0.0,0.0,0.0,0.0,0.0,0.0,0.0,0.0,0.0,0.0,0.0,0.0,0.0,0.0,0.0,0.0,0.0,0.0,0.0,0.0,0.0,0.0,0.0,0.0,0.0,0.0,0.0,0.0,0.0,0.0,0.0,0.0,0.0,0.0,0.0,0.0,0.0,0.0,0.0,0.0,0.0,0.0,0.0,0.0,0.0,0.0,0.0,0.0,0.0,0.0,0.0,0.0,0.0,0.0,0.0,0.0,0.0,0.0,0.0,0.0,0.0,0.0,0.0,0.0,0.0,0.0,0.0,0.0,0.0,0.0,0.0,0.0,0.0,0.0,0.0,0.0,0.0,0.0,0.0,0.0,0.0,0.0,0.0,0.0,0.0,0.0,0.0,0.0,0.0,0.0,0.0,0.0,0.0,0.0,0.0,0.0,0.0,0.0,0.0,0.0,0.0,0.0,0.0,0.0,0.0,0.0,0.0,0.0,0.0,0.0,0.0,0.0,0.0,0.0,0.0,0.0,0.0,0.0,0.0,0.0,0.0,0.0,0.0,0.0,0.0,0.0,0.0,0.0,0.0,0.0,0.0,0.0,0.0,0.0,0.0,0.0,0.0,0.0,0.0,0.0,0.0,0.0,0.0,0.0,0.0,0.0,0.0,0.0,0.0,0.0,0.0,0.0,0.0,0.0,0.0,0.0,0.0,0.0,0.0,0.0,0.0,0.0,0.0,0.0,0.0,0.0,0.0,0.0,0.0,0.0,0.0,0.0,0.0,0.0,0.0,0.0,0.0,0.0,0.0,0.0,0.0,0.0,0.0,0.0,0.0,0.0,0.0,0.0,0.0,0.0,0.0,0.0,0.0,0.0,0.0,1.4256,0.0,0.0,0.0,1.4496,0.0,0.0,0.0,0.0,0.0,0.0,0.0,0.0,0.0,0.0,0.0,0.0,0.0,0.0,0.0,0.0,0.0,0.0,0.0,0.0,0.0,0.0,0.0,0.0,0.0,0.0,0.0,0.0,0.0,0.0,0.0,0.0,0.0,0.0,0.0,0.0,0.0,0.0,0.0,0.0,0.0,0.0,0.0,0.0,0.0,0.0,0.0,0.0,0.0,0.0,0.0,0.0,0.0,0.0,0.0,0.0,0.0,0.0,0.0,0.0,0.0,0.0,0.0,0.0,0.0,0.0,0.0,0.0,0.0,0.0,0.0,0.0,0.0,0.0,0.0,0.0,0.0,0.0,0.0,0.0,0.0,0.0,0.0,0.0,0.0,0.0,0.0,0.0,0.0,0.0,0.0,0.0,0.0,0.0,0.0,0.0,0.0,0.0,0.0,0.0,0.0,0.0,0.0,0.0,0.0,0.0,0.0,0.0,0.0,0.0,1.4218,1.4508,1.4492,1.4677,1.5078,0.0,0.0,0.0,0.0,0.0,0.0,0.0,0.0,0.0,0.0,0.0,0.0,0.0,0.0,0.0,0.0,0.0,0.0,0.0,0.0,0.0,0.0,0.0,0.0,0.0,0.0,0.0,0.0,0.0,0.0,0.0,0.0,0.0,0.0,0.0,0.0,0.0,0.0,0.0,0.0,0.0,0.0,0.0,0.0,0.0,0.0,0.0,0.0,0.0,0.0,0.0,0.0,0.0,0.0,0.0,0.0,0.0,0.0,0.0,0.0,0.0,0.0,0.0,0.0,0.0,0.0,0.0,0.0,0.0,0.0,0.0,0.0,0.0,0.0,0.0,0.0,0.0,0.0,0.0,0.0,0.0,0.0,0.0,0.0,0.0,0.0,0.0,0.0,0.0,0.0,0.0,0.0,0.0,0.0,0.0,0.0,0.0,0.0,0.0,0.0,0.0,0.0,0.0,0.0,0.0,0.0,0.0,0.0,0.0,0.0,0.0,0.0,1.4473,1.4713,1.5406,0.0,0.0,0.0,0.0,0.0,0.0,0.0,0.0,0.0,0.0,0.0,0.0,0.0,0.0,0.0,0.0,0.0,0.0,0.0,0.0,0.0,0.0,0.0,0.0,0.0,0.0,0.0,0.0,0.0,0.0,0.0,0.0,0.0,0.0,0.0,0.0,0.0,0.0,0.0,0.0,0.0,0.0,0.0,0.0,0.0,0.0,0.0,0.0,0.0,0.0,0.0,0.0,0.0,0.0,0.0,0.0,0.0,0.0,0.0,0.0,0.0,0.0,0.0,0.0,0.0,0.0,0.0,0.0,0.0,0.0,0.0,0.0,0.0,0.0,0.0,0.0,0.0,0.0,0.0,0.0,0.0,0.0,0.0,0.0,0.0,0.0,0.0,0.0,0.0,0.0,0.0,0.0,0.0,0.0,0.0,0.0,0.0,0.0,0.0,0.0,0.0,0.0,0.0,0.0,0.0,0.0,0.0,0.0,0.0,0.0,1.4278,1.4328,1.449,0.0,1.5231,0.0,0.0,0.0,0.0,0.0,0.0,0.0,0.0,0.0,0.0,0.0,0.0,0.0,0.0,0.0,0.0,0.0,0.0,0.0,0.0,0.0,0.0,0.0,0.0,0.0,0.0,0.0,0.0,0.0,0.0,0.0,0.0,0.0,0.0,0.0,0.0,0.0,0.0,0.0,0.0,0.0,0.0,0.0,0.0,0.0,0.0,0.0,0.0,0.0,0.0,0.0,0.0,0.0,0.0,0.0,0.0,0.0,0.0,0.0,0.0,0.0,0.0,0.0,0.0,0.0,0.0,0.0,0.0,0.0,0.0,0.0,0.0,0.0,0.0,0.0,0.0,0.0,0.0,0.0,0.0,0.0,0.0,0.0,0.0,0.0,0.0,0.0,0.0,0.0,0.0,0.0,0.0,0.0,0.0,0.0,0.0,0.0,0.0,0.0,0.0,0.0,0.0,0.0,0.0,0.0,0.0,0.0,0.0,0.0,0.0,1.4109,1.4236,1.4782,1.5112,0.0,0.0,0.0,0.0,0.0,0.0,0.0,0.0,0.0,0.0,0.0,0.0,0.0,0.0,0.0,0.0,0.0,0.0,0.0,0.0,0.0,0.0,0.0,0.0,0.0,0.0,0.0,0.0,0.0,0.0,0.0,0.0,0.0,0.0,0.0,0.0,0.0,0.0,0.0,0.0,0.0,0.0,0.0,0.0,0.0,0.0,0.0,0.0,0.0,0.0,0.0,0.0,0.0,0.0,0.0,0.0,0.0,0.0,0.0,0.0,0.0,0.0,0.0,0.0,0.0,0.0,0.0,0.0,0.0,0.0,0.0,0.0,0.0,0.0,0.0,0.0,0.0,0.0,0.0,0.0,0.0,0.0,0.0,0.0,0.0,0.0,0.0,0.0,0.0,0.0,0.0,0.0,0.0,0.0,0.0,0.0,0.0,0.0,0.0,0.0,0.0,0.0,0.0,0.0,0.0,0.0,0.0,0.0,0.0,0.0,1.3941,1.4142,1.446,1.5282,1.5581,1.5209,0.0,0.0,0.0,0.0,0.0,0.0,0.0,0.0,0.0,0.0,0.0,0.0,0.0,0.0,0.0,0.0,0.0,0.0,0.0,0.0,0.0,0.0,0.0,0.0,0.0,0.0,0.0,0.0,0.0,0.0,0.0,0.0,0.0,0.0,0.0,0.0,0.0,0.0,0.0,0.0,0.0,0.0,0.0,0.0,0.0,0.0,0.0,0.0,0.0,0.0,0.0,0.0,0.0,0.0,0.0,0.0,0.0,0.0,0.0,0.0,0.0,0.0,0.0,0.0,0.0,0.0,0.0,0.0,0.0,0.0,0.0,0.0,0.0,0.0,0.0,0.0,0.0,0.0,0.0,0.0,0.0,0.0,0.0,0.0,0.0,0.0,0.0,0.0,0.0,0.0,0.0,0.0,0.0,0.0,0.0,0.0,0.0,0.0,0.0,0.0,0.0,0.0,0.0,0.0,0.0,0.0,0.0,0.0,1.3496,1.4027,1.4499,1.4937,1.6046,1.6191,0.0,0.0,0.0,0.0,0.0,0.0,0.0,0.0,0.0,0.0,0.0,0.0,0.0,0.0,0.0,0.0,0.0,0.0,0.0,0.0,0.0,0.0,0.0,0.0,0.0,0.0,0.0,0.0,0.0,0.0,0.0,0.0,0.0,0.0,0.0,0.0,0.0,0.0,0.0,0.0,0.0,0.0,0.0,0.0,0.0,0.0,0.0,0.0,0.0,0.0,0.0,0.0,0.0,0.0,0.0,0.0,0.0,0.0,0.0,0.0,0.0,0.0,0.0,0.0,0.0,0.0,0.0,0.0,0.0,0.0,0.0,0.0,0.0,0.0,0.0,0.0,0.0,0.0,0.0,0.0,0.0,0.0,0.0,0.0,0.0,0.0,0.0,0.0,0.0,0.0,0.0,0.0,0.0,0.0,0.0,0.0,0.0,0.0,0.0,0.0,0.0,0.0,0.0,0.0,0.0,0.0,0.0,0.0,0.0,1.354,1.4367,1.4864,1.5011,1.591,1.6108,0.0,0.0,0.0,0.0,0.0,0.0,0.0,0.0,0.0,0.0,0.0,0.0,0.0,0.0,0.0,0.0,0.0,0.0,0.0,0.0,0.0,0.0,0.0,0.0,0.0,0.0,0.0,0.0,0.0,0.0,0.0,0.0,0.0,0.0,0.0,0.0,0.0,0.0,0.0,0.0,0.0,0.0,0.0,0.0,0.0,0.0,0.0,0.0,0.0,0.0,0.0,0.0,0.0,0.0,0.0,0.0,0.0,0.0,0.0,0.0,0.0,0.0,0.0,0.0,0.0,0.0,0.0,0.0,0.0,0.0,0.0,0.0,0.0,0.0,0.0,0.0,0.0,0.0,0.0,0.0,0.0,0.0,0.0,0.0,0.0,0.0,0.0,0.0,0.0,0.0,0.0,0.0,0.0,0.0,0.0,0.0,0.0,0.0,0.0,0.0,0.0,0.0,0.0,0.0,0.0,0.0,0.0,0.0,0.0,1.4052,1.4845,1.5351,1.5582,1.6245,1.6473,0.0,0.0,0.0,0.0,0.0,0.0,0.0,0.0,0.0,0.0,0.0,0.0,0.0,0.0,0.0,0.0,0.0,0.0,0.0,0.0,0.0,0.0,0.0,0.0,0.0,0.0,0.0,0.0,0.0,0.0,0.0,0.0,0.0,0.0,0.0,0.0,0.0,0.0,0.0,0.0,0.0,0.0,0.0,0.0,0.0,0.0,0.0,0.0,0.0,0.0,0.0,0.0,0.0,0.0,0.0,0.0,0.0,0.0,0.0,0.0,0.0,0.0,0.0,0.0,0.0,0.0,0.0,0.0,0.0,0.0,0.0,0.0,0.0,0.0,0.0,0.0,0.0,0.0,0.0,0.0,0.0,0.0,0.0,0.0,0.0,0.0,0.0,0.0,0.0,0.0,0.0,0.0,0.0,0.0,0.0,0.0,0.0,0.0,0.0,0.0,0.0,0.0,0.0,0.0,0.0,0.0,0.0,0.0,1.3777,1.5047,1.5467,1.6016,1.6688,1.7226,1.7355,0.0,0.0,0.0,0.0,0.0,0.0,0.0,0.0,0.0,0.0,0.0,0.0,0.0,0.0,0.0,0.0,0.0,0.0,0.0,0.0,0.0,0.0,0.0,0.0,0.0,0.0,0.0,0.0,0.0,0.0,0.0,0.0,0.0,0.0,0.0,0.0,0.0,0.0,0.0,0.0,0.0,0.0,0.0,0.0,0.0,0.0,0.0,0.0,0.0,0.0,0.0,0.0,0.0,0.0,0.0,0.0,0.0,0.0,0.0,0.0,0.0,0.0,0.0,0.0,0.0,0.0,0.0,0.0,0.0,0.0,0.0,0.0,0.0,0.0,0.0,0.0,0.0,0.0,0.0,0.0,0.0,0.0,0.0,0.0,0.0,0.0,0.0,0.0,0.0,0.0,0.0,0.0,0.0,0.0,0.0,0.0,0.0,0.0,0.0,0.0,0.0,0.0,0.0,0.0,0.0,0.0,0.0,0.0,0.0,1.5463,1.6622,1.7396,1.7675,1.8203,1.8293,0.0,0.0,0.0,0.0,0.0,0.0,0.0,0.0,0.0,0.0,0.0,0.0,0.0,0.0,0.0,0.0,0.0,0.0,0.0,0.0,0.0,0.0,0.0,0.0,0.0,0.0,0.0,0.0,0.0,0.0,0.0,0.0,0.0,0.0,0.0,0.0,0.0,0.0,0.0,0.0,0.0,0.0,0.0,0.0,0.0,0.0,0.0,0.0,0.0,0.0,0.0,0.0,0.0,0.0,0.0,0.0,0.0,0.0,0.0,0.0,0.0,0.0,0.0,0.0,0.0,0.0,0.0,0.0,0.0,0.0,0.0,0.0,0.0,0.0,0.0,0.0,0.0,0.0,0.0,0.0,0.0,0.0,0.0,0.0,0.0,0.0,0.0,0.0,0.0,0.0,0.0,0.0,0.0,0.0,0.0,0.0,0.0,0.0,0.0,0.0,0.0,0.0,0.0,0.0,0.0,0.0,0.0,0.0,0.0,1.7215,1.7856,1.8386,1.8727,1.9065,1.9161,1.8974,0.0,0.0,0.0,0.0,0.0,0.0,0.0,0.0,0.0,0.0,0.0,0.0,0.0,0.0,0.0,0.0,0.0,0.0,0.0,0.0,0.0,0.0,0.0,0.0,0.0,0.0,0.0,0.0,0.0,0.0,0.0,0.0,0.0,0.0,0.0,0.0,0.0,0.0,0.0,0.0,0.0,0.0,0.0,0.0,0.0,0.0,0.0,0.0,0.0,0.0,0.0,0.0,0.0,0.0,0.0,0.0,0.0,0.0,0.0,0.0,0.0,0.0,0.0,0.0,0.0,0.0,0.0,0.0,0.0,0.0,0.0,0.0,0.0,0.0,0.0,0.0,0.0,0.0,0.0,0.0,0.0,0.0,0.0,0.0,0.0,0.0,0.0,0.0,0.0,0.0,0.0,0.0,0.0,0.0,0.0,0.0,0.0,0.0,0.0,0.0,0.0,0.0,0.0,0.0,0.0,0.0,0.0,0.0,2.0037,1.9306,1.9288,1.9982,2.0047,2.0081,0.0,0.0,0.0,0.0,0.0,0.0,0.0,0.0,0.0,0.0,0.0,0.0,0.0,0.0,0.0,0.0,0.0,0.0,0.0,0.0,0.0,0.0,0.0,0.0,0.0,0.0,0.0,0.0,0.0,0.0,0.0,0.0,0.0,0.0,0.0,0.0,0.0,0.0,0.0,0.0,0.0,0.0,0.0,0.0,0.0,0.0,0.0,0.0,0.0,0.0,0.0,0.0,0.0,0.0,0.0,0.0,0.0,0.0,0.0,0.0,0.0,0.0,0.0,0.0,0.0,0.0,0.0,0.0,0.0,0.0,0.0,0.0,0.0,0.0,0.0,0.0,0.0,0.0,0.0,0.0,0.0,0.0,0.0,0.0,0.0,0.0,0.0,0.0,0.0,0.0,0.0,0.0,0.0,0.0,0.0,0.0,0.0,0.0,0.0,0.0,0.0,0.0,0.0,0.0,0.0,0.0,0.0,0.0,0.0,2.1974,2.2482,2.2596,2.2342,2.251,2.2369,0.0,0.0,0.0,0.0,0.0,0.0,0.0,0.0,0.0,0.0,0.0,0.0,0.0,0.0,0.0,0.0,0.0,0.0,0.0,0.0,0.0,0.0,0.0,0.0,0.0,0.0,0.0,0.0,0.0,0.0,0.0,0.0,0.0,0.0,0.0,0.0,0.0,0.0,0.0,0.0,0.0,0.0,0.0,0.0,0.0,0.0,0.0,0.0,0.0,0.0,0.0,0.0,0.0,0.0,0.0,0.0,0.0,0.0,0.0,0.0,0.0,0.0,0.0,0.0,0.0,0.0,0.0,0.0,0.0,0.0,0.0,0.0,0.0,0.0,0.0,0.0,0.0,0.0,0.0,0.0,0.0,0.0,0.0,0.0,0.0,0.0,0.0,0.0,0.0,0.0,0.0,0.0,0.0,0.0,0.0,0.0,0.0,0.0,0.0,0.0,0.0,0.0,0.0,0.0,0.0,0.0,0.0,0.0,2.2096,2.4036,2.4841,2.5347,2.5535,2.4819,2.415,0.0,0.0,0.0,0.0,0.0,0.0,0.0,0.0,0.0,0.0,0.0,0.0,0.0,0.0,0.0,0.0,0.0,0.0,0.0,0.0,0.0,0.0,0.0,0.0,0.0,0.0,0.0,0.0,0.0,0.0,0.0,0.0,0.0,0.0,0.0,0.0,0.0,0.0,0.0,0.0,0.0,0.0,0.0,0.0,0.0,0.0,0.0,0.0,0.0,0.0,0.0,0.0,0.0,0.0,0.0,0.0,0.0,0.0,0.0,0.0,0.0,0.0,0.0,0.0,0.0,0.0,0.0,0.0,0.0,0.0,0.0,0.0,0.0,0.0,0.0,0.0,0.0,0.0,0.0,0.0,0.0,0.0,0.0,0.0,0.0,0.0,0.0,0.0,0.0,0.0,0.0,0.0,0.0,0.0,0.0,0.0,0.0,0.0,0.0,0.0,0.0,0.0,0.0,0.0,0.0,0.0,0.0,0.0,2.3702,2.5959,2.6691,2.7695,2.8914,2.7013,2.5706,0.0,0.0,0.0,0.0,0.0,0.0,0.0,0.0,0.0,0.0,0.0,0.0,0.0,0.0,0.0,0.0,0.0,0.0,0.0,0.0,0.0,0.0,0.0,0.0,0.0,0.0,0.0,0.0,0.0,0.0,0.0,0.0,0.0,0.0,0.0,0.0,0.0,0.0,0.0,0.0,0.0,0.0,0.0,0.0,0.0,0.0,0.0,0.0,0.0,0.0,0.0,0.0,0.0,0.0,0.0,0.0,0.0,0.0,0.0,0.0,0.0,0.0,0.0,0.0,0.0,0.0,0.0,0.0,0.0,0.0,0.0,0.0,0.0,0.0,0.0,0.0,0.0,0.0,0.0,0.0,0.0,0.0,0.0,0.0,0.0,0.0,0.0,0.0,0.0,0.0,0.0,0.0,0.0,0.0,0.0,0.0,0.0,0.0,0.0,0.0,0.0,0.0,0.0,0.0,0.0,0.0,0.0,0.0,2.5802,2.7343,2.8621,2.9701,3.0483,2.8858,2.7652,0.0,0.0,0.0,0.0,0.0,0.0,0.0,0.0,0.0,0.0,0.0,0.0,0.0,0.0,0.0,0.0,0.0,0.0,0.0,0.0,0.0,0.0,0.0,0.0,0.0,0.0,0.0,0.0,0.0,0.0,0.0,0.0,0.0,0.0,0.0,0.0,0.0,0.0,0.0,0.0,0.0,0.0,0.0,0.0,0.0,0.0,0.0,0.0,2.8381,0.0,0.0,0.0,0.0,0.0,0.0,0.0,0.0,0.0,0.0,0.0,0.0,0.0,0.0,0.0,0.0,0.0,0.0,0.0,0.0,0.0,0.0,0.0,0.0,0.0,0.0,0.0,0.0,0.0,0.0,0.0,0.0,0.0,0.0,0.0,0.0,0.0,0.0,0.0,0.0,0.0,0.0,0.0,0.0,0.0,0.0,0.0,0.0,0.0,0.0,0.0,0.0,0.0,0.0,0.0,0.0,0.0,0.0,0.0,2.7068,2.9211,2.9913,3.0634,3.1392,3.0279,2.9197,0.0,0.0,0.0,0.0,0.0,0.0,0.0,0.0,0.0,0.0,0.0,0.0,0.0,0.0,0.0,0.0,0.0,0.0,0.0,0.0,0.0,0.0,0.0,0.0,0.0,0.0,0.0,0.0,0.0,0.0,0.0,0.0,0.0,0.0,0.0,0.0,0.0,0.0,0.0,0.0,0.0,0.0,0.0,0.0,0.0,0.0,0.0,0.0,0.0,0.0,0.0,0.0,0.0,0.0,0.0,0.0,0.0,0.0,0.0,0.0,0.0,0.0,0.0,0.0,0.0,0.0,0.0,0.0,0.0,0.0,0.0,0.0,0.0,0.0,0.0,0.0,0.0,0.0,0.0,0.0,0.0,0.0,0.0,0.0,0.0,0.0,0.0,0.0,0.0,0.0,0.0,0.0,0.0,0.0,0.0,0.0,0.0,0.0,0.0,0.0,0.0,0.0,0.0,0.0,0.0,0.0,0.0,2.6104,2.8295,3.0943,3.1041,3.1423,3.2225,3.1553,3.0594,2.9385,0.0,0.0,0.0,0.0,0.0,0.0,0.0,0.0,0.0,0.0,0.0,0.0,0.0,0.0,0.0,0.0,0.0,0.0,0.0,0.0,0.0,0.0,0.0,0.0,0.0,0.0,0.0,0.0,0.0,0.0,0.0,0.0,0.0,0.0,0.0,0.0,0.0,0.0,1.9963,2.1452,0.0,0.0,0.0,0.0,0.0,0.0,0.0,0.0,3.0109,0.0,0.0,0.0,0.0,0.0,0.0,0.0,0.0,0.0,0.0,0.0,0.0,0.0,0.0,0.0,0.0,0.0,0.0,0.0,0.0,0.0,0.0,0.0,0.0,0.0,0.0,0.0,0.0,0.0,0.0,0.0,0.0,0.0,0.0,0.0,0.0,0.0,0.0,0.0,0.0,0.0,0.0,0.0,0.0,0.0,0.0,0.0,0.0,0.0,0.0,0.0,0.0,0.0,0.0,0.0,0.0,2.5165,2.8494,3.0652,3.1582,3.2735,3.3361,3.3408,3.2972,3.2018,3.0436,0.0,0.0,0.0,0.0,0.0,0.0,0.0,0.0,0.0,0.0,0.0,0.0,0.0,0.0,0.0,0.0,0.0,0.0,0.0,0.0,0.0,0.0,0.0,0.0,0.0,0.0,0.0,0.0,0.0,0.0,0.0,0.0,0.0,0.0,0.0,0.0,0.0,0.0,0.0,2.239,2.3469,0.0,0.0,0.0,0.0,0.0,0.0,0.0,0.0,3.1838,0.0,0.0,0.0,0.0,0.0,0.0,0.0,0.0,0.0,0.0,0.0,0.0,0.0,0.0,0.0,0.0,0.0,0.0,0.0,0.0,0.0,0.0,0.0,0.0,0.0,0.0,0.0,0.0,0.0,0.0,0.0,0.0,0.0,0.0,0.0,0.0,0.0,0.0,0.0,0.0,0.0,0.0,0.0,0.0,0.0,0.0,0.0,0.0,0.0,0.0,0.0,0.0,0.0,0.0,0.0,2.6657,2.899,3.0958,3.2469,3.3228,3.3534,3.339,3.3012,3.2117,0.0,0.0,0.0,0.0,0.0,0.0,0.0,0.0,0.0,0.0,0.0,0.0,0.0,0.0,0.0,0.0,0.0,0.0,0.0,0.0,0.0,0.0,0.0,0.0,0.0,0.0,0.0,0.0,0.0,0.0,0.0,0.0,0.0,0.0,0.0,0.0,0.0,0.0,0.0,0.0,2.3077,2.3834,2.4313,0.0,0.0,0.0,0.0,0.0,0.0,3.1273,3.2092,0.0,0.0,0.0,0.0,0.0,0.0,0.0,0.0,0.0,0.0,0.0,0.0,0.0,0.0,0.0,0.0,0.0,0.0,0.0,0.0,0.0,0.0,0.0,0.0,0.0,0.0,0.0,0.0,0.0,0.0,0.0,0.0,0.0,0.0,0.0,0.0,0.0,0.0,0.0,0.0,0.0,0.0,0.0,0.0,0.0,0.0,0.0,0.0,0.0,0.0,0.0,0.0,0.0,0.0,0.0,2.8126,2.9422,3.114,3.3297,3.3651,3.367,3.3468,3.3231,3.2423,0.0,0.0,0.0,0.0,0.0,0.0,0.0,0.0,0.0,0.0,0.0,0.0,0.0,0.0,0.0,0.0,0.0,0.0,0.0,0.0,0.0,0.0,0.0,0.0,0.0,0.0,0.0,0.0,0.0,0.0,0.0,0.0,0.0,0.0,0.0,0.0,0.0,0.0,0.0,0.0,0.0,2.4444,2.5306,2.5873,0.0,0.0,0.0,0.0,3.0617,3.1521,0.0,0.0,0.0,0.0,0.0,0.0,0.0,0.0,0.0,0.0,0.0,0.0,0.0,0.0,0.0,0.0,0.0,0.0,0.0,0.0,0.0,0.0,0.0,0.0,0.0,0.0,0.0,0.0,0.0,0.0,0.0,0.0,0.0,0.0,0.0,0.0,0.0,0.0,0.0,0.0,0.0,0.0,0.0,0.0,0.0,0.0,0.0,0.0,0.0,0.0,0.0,0.0,0.0,0.0,0.0,0.0,2.9194,3.127,3.2806,3.3818,3.4803,3.5129,3.4722,3.4935,3.4029,0.0,0.0,0.0,0.0,0.0,0.0,0.0,0.0,0.0,0.0,0.0,0.0,0.0,0.0,0.0,0.0,0.0,0.0,0.0,0.0,0.0,0.0,0.0,0.0,0.0,0.0,0.0,0.0,0.0,0.0,0.0,0.0,0.0,0.0,0.0,0.0,0.0,0.0,0.0,0.0,0.0,2.6058,2.6462,2.7312,2.7976,0.0,0.0,2.9919,3.0395,3.1624,0.0,0.0,0.0,0.0,0.0,0.0,0.0,0.0,0.0,0.0,0.0,0.0,0.0,0.0,0.0,0.0,0.0,0.0,0.0,0.0,0.0,0.0,0.0,0.0,0.0,0.0,0.0,0.0,0.0,0.0,0.0,0.0,0.0,0.0,0.0,0.0,0.0,0.0,0.0,0.0,0.0,0.0,0.0,0.0,0.0,0.0,0.0,0.0,0.0,0.0,0.0,0.0,0.0,0.0,0.0,2.6824,2.9679,3.1469,3.2938,3.4156,3.5109,3.5497,3.5246,3.5133,3.4284,0.0,0.0,0.0,0.0,0.0,0.0,0.0,0.0,0.0,0.0,0.0,0.0,0.0,0.0,0.0,0.0,0.0,0.0,0.0,0.0,0.0,0.0,0.0,0.0,0.0,0.0,0.0,0.0,0.0,0.0,0.0,0.0,0.0,0.0,0.0,0.0,0.0,0.0,0.0,0.0,0.0,0.0,2.7155,2.8044,0.0,0.0,0.0,3.1403,3.1979,0.0,0.0,0.0,0.0,0.0,0.0,0.0,0.0,0.0,0.0,0.0,0.0,0.0,0.0,0.0,0.0,0.0,0.0,0.0,0.0,0.0,0.0,0.0,0.0,0.0,0.0,0.0,0.0,0.0,0.0,0.0,0.0,0.0,0.0,0.0,0.0,0.0,0.0,0.0,0.0,0.0,0.0,0.0,0.0,0.0,0.0,0.0,0.0,0.0,0.0,0.0,0.0,0.0,0.0,0.0,0.0,0.0,3.0339,3.1721,3.3141,3.4655,3.5467,3.5894,3.5942,3.5367,0.0,0.0,0.0,0.0,0.0,0.0,0.0,0.0,0.0,0.0,0.0,0.0,0.0,0.0,0.0,0.0,0.0,0.0,0.0,0.0,0.0,0.0,0.0,0.0,0.0,0.0,0.0,1.764,0.0,0.0,0.0,0.0,0.0,0.0,0.0,0.0,0.0,0.0,0.0,0.0,0.0,0.0,2.6961,2.8334,2.9052,2.9643,0.0,0.0,3.24,3.3038,3.3817,3.4288,0.0,0.0,0.0,0.0,0.0,0.0,0.0,0.0,0.0,0.0,0.0,0.0,0.0,0.0,0.0,0.0,0.0,0.0,0.0,0.0,0.0,0.0,0.0,0.0,0.0,0.0,0.0,0.0,0.0,0.0,0.0,0.0,0.0,0.0,0.0,0.0,0.0,0.0,0.0,0.0,0.0,0.0,0.0,0.0,0.0,0.0,0.0,0.0,0.0,0.0,0.0,0.0,0.0,0.0,0.0,3.1407,3.2626,3.3953,3.5471,3.624,3.6807,3.7139,3.6304,3.5319,0.0,0.0,0.0,0.0,0.0,0.0,0.0,0.0,0.0,0.0,0.0,0.0,0.0,0.0,0.0,0.0,0.0,0.0,0.0,0.0,0.0,0.0,0.0,0.0,0.0,0.0,0.0,0.0,0.0,0.0,0.0,0.0,0.0,0.0,0.0,0.0,0.0,0.0,0.0,0.0,0.0,2.9129,3.0589,3.0831,3.0995,0.0,0.0,3.2253,3.2689,3.3435,3.4162,3.481,0.0,0.0,0.0,0.0,0.0,0.0,0.0,0.0,0.0,0.0,0.0,0.0,0.0,0.0,0.0,0.0,0.0,0.0,0.0,0.0,0.0,0.0,0.0,0.0,0.0,0.0,0.0,0.0,0.0,0.0,0.0,0.0,0.0,0.0,0.0,0.0,0.0,0.0,0.0,0.0,0.0,0.0,0.0,0.0,0.0,0.0,0.0,0.0,0.0,0.0,0.0,0.0,0.0,2.8326,3.1572,3.29,3.4254,3.5562,3.6558,3.7266,3.764,3.6717,3.5822,0.0,0.0,0.0,0.0,0.0,0.0,0.0,0.0,0.0,0.0,0.0,0.0,0.0,0.0,0.0,0.0,0.0,0.0,0.0,0.0,0.0,0.0,0.0,0.0,0.0,0.0,0.0,0.0,2.0958,2.1275,2.1411,0.0,0.0,0.0,0.0,0.0,0.0,0.0,0.0,0.0,0.0,3.0217,3.1185,3.2109,0.0,0.0,3.3693,3.4208,3.4132,3.5006,3.5543,3.5078,3.5194,0.0,0.0,0.0,0.0,0.0,0.0,0.0,0.0,0.0,0.0,0.0,0.0,0.0,0.0,0.0,0.0,0.0,0.0,0.0,0.0,0.0,0.0,0.0,0.0,0.0,0.0,0.0,0.0,0.0,0.0,0.0,0.0,0.0,0.0,0.0,0.0,0.0,0.0,0.0,0.0,0.0,0.0,0.0,0.0,0.0,0.0,0.0,0.0,0.0,0.0,0.0,0.0,2.8862,3.2249,3.3515,3.4863,3.6278,3.732,3.8029,3.8355,3.7465,3.6546,0.0,0.0,0.0,0.0,0.0,0.0,0.0,0.0,0.0,0.0,0.0,0.0,0.0,0.0,0.0,0.0,0.0,0.0,0.0,0.0,0.0,0.0,0.0,0.0,0.0,0.0,0.0,0.0,2.2307,2.2486,2.1975,0.0,0.0,0.0,0.0,0.0,0.0,0.0,0.0,0.0,0.0,3.1537,3.2569,3.3633,3.445,3.4842,3.5494,3.59,3.5743,3.6209,3.6354,3.5674,0.0,0.0,0.0,0.0,0.0,0.0,0.0,0.0,0.0,0.0,0.0,0.0,0.0,0.0,0.0,0.0,0.0,0.0,0.0,0.0,0.0,0.0,0.0,0.0,0.0,0.0,0.0,0.0,0.0,0.0,1.5763,0.0,0.0,0.0,0.0,0.0,0.0,0.0,0.0,0.0,0.0,0.0,0.0,0.0,0.0,0.0,0.0,0.0,0.0,0.0,0.0,0.0,0.0,3.0112,3.3782,3.4578,3.5918,3.7856,3.8662,3.9188,3.9495,3.8721,3.752,3.6004,0.0,0.0,0.0,0.0,0.0,0.0,0.0,0.0,0.0,0.0,0.0,0.0,0.0,0.0,0.0,0.0,0.0,0.0,0.0,0.0,0.0,0.0,0.0,0.0,0.0,0.0,2.3865,2.4041,2.3665,0.0,0.0,0.0,0.0,0.0,0.0,0.0,0.0,0.0,0.0,3.2343,3.3295,3.5211,3.5557,3.5993,3.7119,3.699,3.689,3.725,3.6671,3.6265,0.0,0.0,0.0,0.0,0.0,0.0,0.0,0.0,0.0,0.0,0.0,0.0,0.0,0.0,0.0,0.0,0.0,0.0,0.0,0.0,0.0,0.0,0.0,0.0,0.0,0.0,0.0,1.9069,1.8715,0.0,0.0,0.0,0.0,0.0,0.0,0.0,0.0,0.0,0.0,0.0,2.3787,2.3883,0.0,0.0,0.0,0.0,0.0,0.0,0.0,0.0,0.0,0.0,0.0,0.0,3.096,3.4099,3.4994,3.625,3.7963,3.8684,3.9211,3.9563,3.8716,3.7239,3.5117,0.0,0.0,0.0,0.0,0.0,0.0,0.0,0.0,0.0,0.0,0.0,0.0,0.0,0.0,0.0,0.0,0.0,0.0,0.0,0.0,0.0,0.0,0.0,0.0,0.0,2.4168,0.0,0.0,0.0,0.0,0.0,0.0,0.0,0.0,0.0,0.0,0.0,3.1337,3.308,3.4275,3.5413,3.663,3.7247,3.7739,0.0,0.0,0.0,0.0,0.0,0.0,0.0,0.0,0.0,0.0,0.0,0.0,0.0,0.0,3.7538,3.7158,3.8141,3.91,3.9337,0.0,0.0,0.0,0.0,0.0,0.0,0.0,0.0,0.0,0.0,0.0,0.0,0.0,0.0,2.1312,0.0,2.0524,0.0,0.0,0.0,0.0,0.0,0.0,0.0,0.0,2.4708,2.5455,2.5933,2.6016,2.6351,0.0,2.6838,2.6236,0.0,0.0,0.0,0.0,0.0,0.0,0.0,0.0,3.2454,3.5121,3.6024,3.7052,3.8341,3.9238,3.9729,3.9777,3.8657,3.7223,3.5574,3.3688,3.1801,0.0,0.0,0.0,0.0,0.0,0.0,0.0,0.0,0.0,0.0,0.0,0.0,0.0,0.0,0.0,0.0,0.0,0.0,0.0,0.0,0.0,0.0,0.0,2.5493,0.0,0.0,0.0,0.0,0.0,0.0,0.0,0.0,0.0,3.0502,3.1758,3.3171,3.4715,3.602,3.7151,3.8106,0.0,0.0,0.0,0.0,0.0,0.0,0.0,3.8247,3.8004,3.8112,3.8161,3.8047,3.807,3.8251,3.8765,0.0,0.0,3.8793,3.988,4.0948,4.0948,4.1538,4.236,4.3358,4.3567,4.3954,0.0,0.0,0.0,0.0,0.0,0.0,0.0,0.0,2.3496,2.3851,0.0,2.3167,0.0,0.0,0.0,0.0,0.0,2.3876,0.0,0.0,2.6173,2.6813,2.7234,2.786,2.8358,2.8702,2.8729,2.927,3.0096,2.7859,0.0,0.0,0.0,0.0,0.0,0.0,3.4508,3.6773,3.7607,3.8398,3.9156,4.0377,4.0774,4.0188,3.8634,3.7631,3.7211,3.5251,3.3653,3.2527,3.0393,0.0,0.0,0.0,0.0,0.0,0.0,0.0,0.0,0.0,0.0,0.0,0.0,0.0,0.0,0.0,0.0,0.0,0.0,0.0,0.0,2.5706,0.0,0.0,0.0,0.0,0.0,0.0,0.0,0.0,0.0,0.0,3.2735,3.3841,3.5139,3.67,0.0,0.0,0.0,0.0,4.0179,4.1,4.0738,4.0418,4.0418,3.9715,3.9176,3.9238,0.0,0.0,3.9181,3.9271,3.9539,4.0371,4.1203,4.1465,4.0311,4.1768,4.3052,4.3111,4.4022,4.5107,4.5623,4.5715,4.6025,3.0448,0.0,0.0,0.0,0.0,2.5589,2.5566,2.5482,2.5769,2.5793,2.5572,2.514,0.0,0.0,0.0,0.0,0.0,0.0,2.6977,2.7542,2.837,2.8928,2.925,2.973,3.0249,3.0827,3.1386,3.2071,3.281,3.2642,3.1968,3.0888,0.0,0.0,0.0,0.0,3.5696,3.7954,3.8596,3.9375,4.0436,4.1104,4.1023,4.0226,3.9499,3.8525,3.7198,3.6386,3.5004,3.2963,3.1995,0.0,0.0,0.0,0.0,0.0,0.0,0.0,0.0,0.0,0.0,0.0,0.0,0.0,0.0,0.0,0.0,0.0,0.0,0.0,2.8126,2.7982,2.7982,0.0,0.0,0.0,0.0,0.0,0.0,0.0,0.0,0.0,3.5454,3.5921,3.6855,0.0,0.0,4.0475,4.147,4.1586,4.1665,4.1922,0.0,0.0,0.0,4.0758,4.0411,4.0465,4.0426,4.0404,4.0529,4.0789,4.1071,4.1332,4.2053,4.2722,4.3137,4.3839,4.4376,4.4191,4.5038,4.6182,4.6947,4.7382,4.7877,3.3581,3.0985,2.9144,2.8223,2.8066,2.8027,2.7905,2.7739,2.7979,2.7981,2.7788,2.7468,2.7391,2.7547,2.7476,0.0,0.0,0.0,2.9207,2.9606,3.0435,3.0986,3.1324,3.1699,3.2251,3.2929,3.3544,3.4281,3.5064,3.6123,3.6327,3.5703,0.0,0.0,3.6872,3.6899,3.7786,3.9538,3.9983,4.0563,4.1249,4.1487,4.1232,4.051,4.0277,3.9523,3.8144,3.7491,3.6279,3.4463,3.3293,3.1899,0.0,0.0,0.0,0.0,0.0,0.0,0.0,0.0,0.0,0.0,0.0,2.2448,2.4487,0.0,0.0,0.0,2.7188,2.8663,2.9784,2.9312,0.0,0.0,0.0,0.0,0.0,0.0,0.0,3.3298,3.4577,3.6127,3.797,3.8512,3.9057,3.9991,4.0901,4.1715,4.2234,0.0,4.2292,4.2292,4.2075,4.1862,4.1862,4.1641,4.1463,4.1488,4.1403,4.1412,4.1561,4.1771,4.205,4.2436,4.3314,4.4266,4.5015,4.5933,4.6454,4.5882,4.6763,4.7858,4.8438,4.9039,4.9701,3.6644,3.5414,3.3091,3.1427,3.0408,3.0581,3.0277,2.9704,3.0037,3.0191,3.0227,2.9983,3.0061,3.0441,3.0735,0.0,3.0386,3.1074,3.1378,3.1457,3.2302,3.2904,3.3266,3.3682,3.4272,3.5012,3.5451,3.614,3.7163,3.8637,3.985,4.076,3.8627,3.8332,3.9815,3.9896,4.0347,4.1236,4.159,4.1776,4.1774,4.167,4.1395,4.0962,4.098,4.0539,3.968,3.8572,3.7525,3.6559,3.443,3.2864,3.1975,0.0,0.0,0.0,0.0,0.0,0.0,0.0,0.0,0.0,0.0,0.0,0.0,0.0,0.0,0.0,2.8286,0.0,2.9984,3.0072,0.0,0.0,0.0,3.1861,3.1916,3.2907,3.4312,3.6138,0.0,0.0,4.0159,0.0,4.1431,4.0708,4.1631,4.2384,4.2402,4.2457,4.2417,4.2513,4.2457,4.2457,4.2506,4.2429,4.2389,4.2451,4.2127,4.2087,4.2457,4.2553,4.2834,4.3354,4.4621,4.5679,4.6177,4.7621,4.8796,4.8069,4.8925,4.9805,4.9972,5.0592,5.1274,3.8597,3.8239,3.7033,3.5032,3.2596,3.2184,3.1969,3.1894,3.1732,3.1694,3.1716,3.1875,3.2161,3.2485,3.2304,3.2377,3.2626,3.2836,3.314,3.3501,3.4008,3.444,3.4786,3.5251,3.5924,3.6902,3.7972,3.9053,4.0087,4.1072,4.2332,4.3713,4.2679,4.1933,4.1513,4.1049,4.1359,4.2544,4.2334,4.2356,4.2577,4.1943,4.154,4.1436,4.1436,4.1049,4.0223,3.9642,3.8643,3.718,3.5936,3.4519,3.2806,3.1973,0.0,0.0,0.0,0.0,0.0,0.0,0.0,0.0,0.0,2.6038,2.8015,0.0,2.8875,0.0,2.9528,3.0446,3.149,3.1573,0.0,0.0,3.3453,3.4034,3.465,3.5484,3.6387,3.7442,3.8495,3.959,4.071,4.1869,4.2546,4.2342,4.2832,4.3228,4.3228,4.3485,4.3646,4.3668,4.365,4.3668,4.3632,4.3412,4.332,4.3632,4.3577,4.3668,4.4054,4.4127,4.4138,4.4019,4.4498,4.5286,4.6193,4.7809,4.9333,5.0074,5.0297,5.0487,5.117,5.1771,5.2288,4.0243,3.9914,3.9322,3.8043,3.6276,3.4916,3.4273,3.4176,3.381,3.3633,3.3668,3.4187,3.4682,3.5057,3.4851,3.4841,3.4911,3.5016,3.5133,3.5248,3.5858,3.6239,3.646,3.7048,3.7722,3.8461,3.9669,4.0648,4.1416,4.2934,4.4086,4.4869,4.5244,4.4888,4.3769,4.307,4.3017,4.3518,4.312,4.2931,4.2894,4.2435,4.2101,4.1933,4.1912,4.1596,4.0982,4.0198,3.9276,3.816,3.6969,3.5665,3.4208,3.3426,3.2094,0.0,0.0,0.0,0.0,0.0,0.0,0.0,0.0,0.0,0.0,0.0,3.065,3.1302,3.1721,3.2296,3.3097,3.3342,3.3694,3.4373,3.4938,3.5526,3.6127,3.7015,3.7984,3.8976,4.0015,4.0874,4.152,4.2506,4.3173,4.3173,4.3522,4.3756,4.3779,4.398,4.4141,4.4329,4.4366,4.4366,4.4366,4.4035,4.3903,4.4237,4.4072,4.398,4.4347,4.4292,4.4177,4.4374,4.5089,4.6075,4.7223,4.8785,5.0274,5.1085,5.1564,5.1833,5.2309,5.2642,5.293,4.1588,4.1,4.0684,4.0475,4.0158,3.8061,3.696,3.6624,3.6217,3.6024,3.6065,3.6676,3.7223,3.7668,3.7668,3.748,3.7159,3.727,3.7179,3.6953,3.7651,3.8049,3.8138,3.8854,3.9475,3.9996,4.1053,4.176,4.2322,4.4477,4.5473,4.5399,4.6825,4.7109,4.6156,4.5453,4.4822,4.4211,4.3973,4.3596,4.3099,4.3016,4.2828,4.2493,4.2348,4.2099,4.1687,4.0487,3.9607,3.9169,3.7534,3.6312,3.5575,3.4439,3.3203,0.0,3.0449,0.0,0.0,0.0,0.0,0.0,0.0,0.0,0.0,3.096,3.2463,3.3993,3.4133,3.4299,3.4671,3.51,3.5385,3.5566,3.6173,3.6779,3.7314,3.8299,3.9393,4.0599,4.1326,4.1949,4.248,4.3133,4.3595,4.3664,4.3866,4.409,4.4182,4.4233,4.4398,4.4678,4.4641,4.4494,4.4439,4.4201,4.4127,4.4421,4.4068,4.3738,4.4256,4.4031,4.4017,4.4884,4.5919,4.7163,4.8553,4.9957,5.1119,5.1753,5.2681,5.3346,5.3282,5.3406,5.3592,4.2547,4.2156,4.1975,4.1747,4.1411,4.0603,3.9996,3.96,3.9497,3.9365,3.9195,3.8973,3.9,3.916,3.9182,3.9098,3.8908,3.8925,3.8957,3.9024,3.912,3.9361,3.9691,4.0215,4.098,4.1972,4.2825,4.392,4.5267,4.6058,4.7004,4.7994,4.7744,4.7735,4.7944,0.0,0.0,0.0,4.4958,4.4877,4.407,4.3658,4.343,4.3346,4.2679,0.0,4.2122,4.063,3.9748,3.9591,3.7463,0.0,0.0,0.0,0.0,0.0,0.0,0.0,0.0,0.0,0.0,0.0,3.1808,3.1651,3.1252,3.2274,3.3644,3.5178,3.5363,3.5526,3.5917,3.6289,3.6866,3.7831,3.8068,3.8714,4.0058,4.0503,4.1093,4.2272,4.2568,4.2916,4.3573,4.3925,4.4109,4.4329,4.4256,4.4256,4.4549,4.4801,4.4953,4.4751,4.4457,4.4127,4.3774,4.3724,4.3907,4.4072,4.4127,4.427,4.4875,4.4985,4.5261,4.6071,4.6531,4.7213,4.8633,5.0051,5.1434,5.2231,5.3678,5.4586,5.3879,5.4296,5.4962,4.3298,0.0,4.2895,4.2851,0.0,4.2955,4.2975,4.2859,4.1139,4.052,4.0689,4.0721,4.0914,4.1186,4.1462,4.1187,4.056,4.1049,4.0989,4.0475,4.0654,4.0951,4.1333,4.2012,4.2826,4.3771,4.4778,4.5802,4.6802,4.7597,4.8152,4.8491,4.8588,4.8497,4.8186,4.7693,4.6716,4.5295,4.5295,4.4989,4.4338,4.3844,4.3615,4.3594,0.0,0.0,0.0,0.0,0.0,0.0,0.0,0.0,0.0,0.0,0.0,3.439,3.3503,3.2841,3.2474,3.2246,3.2403,3.3002,3.3759,3.3949,3.3363,3.422,3.5263,3.6417,3.6879,3.7302,3.7701,3.8098,3.8648,3.9432,3.9707,4.0266,4.1223,4.1763,4.2201,4.2788,4.3269,4.3595,4.3756,4.3999,4.4164,4.4366,4.4237,4.4329,4.4843,4.482,4.4678,4.4678,4.4549,4.4325,4.4164,4.4311,4.4416,4.4636,4.4691,4.493,4.5503,4.526,4.5372,4.6397,4.7073,4.7942,4.9647,5.129,5.2646,5.3402,5.4586,5.5372,5.4938,5.5207,5.5604,4.4195,4.415,4.3868,4.3938,4.4274,4.4785,4.5201,4.5371,0.0,0.0,0.0,4.2343,4.2683,4.3029,4.345,4.3112,4.223,4.303,4.284,4.1885,4.2268,4.2677,4.3086,4.3867,4.4609,4.537,4.6463,4.7294,4.7842,4.8825,4.9015,4.8559,4.9295,4.9149,4.8107,4.7861,4.7396,4.6663,4.5729,4.5076,4.4642,4.4129,4.3844,4.3863,4.3223,4.2725,4.2389,4.1102,4.0215,3.981,3.8895,3.8246,3.7895,3.7061,3.6182,3.5277,3.4443,3.3803,3.3339,3.35,3.3856,3.4373,3.5517,3.6017,3.5621,3.6229,3.6945,3.7763,3.8441,3.9023,3.9502,3.987,4.0315,4.0751,4.1121,4.1448,4.1889,4.2476,4.2898,4.3136,4.3613,4.3958,4.3903,4.409,4.4292,4.4384,4.4366,4.4306,4.4783,4.4545,4.4384,4.4512,4.4398,4.4439,4.4604,4.4861,4.5187,4.5205,4.526,4.5443,4.5663,4.5301,4.5423,4.6705,4.7664,4.9013,5.0829,5.2515,5.3927,5.4508,5.5372,5.6018,5.6038,5.6101,5.6163,4.5693,4.5582,4.555,4.5269,4.4832,4.5178,4.5386,4.5425,4.5089,4.4796,4.4543,4.4222,4.3998,4.3843,4.3928,4.3934,4.3973,4.4139,4.4127,0.0,4.4159,4.445,4.4865,4.5324,4.5919,4.663,4.719,4.7965,4.8966,4.9225,4.9304,4.9366,4.9585,4.9344,4.8719,4.8691,4.8482,4.8006,4.7163,4.647,4.6012,4.5239,4.4815,4.4753,4.3554,4.2725,4.233,4.1103,4.0213,3.979,3.8384,3.7665,3.7858,3.6599,3.5851,3.5952,3.5024,3.4631,3.5134,3.5,3.5302,3.6321,3.7499,3.803,3.764,3.7676,3.8256,3.9402,3.965,4.0038,4.0735,4.0882,4.1213,4.187,4.2072,4.2274,4.2641,4.2806,4.3155,4.376,4.3724,4.4013,4.4691,4.4714,4.4788,4.5278,4.4934,4.4457,4.4086,4.4251,4.4439,4.4219,4.3866,4.3829,4.4311,4.4531,4.4953,4.5265,4.5333,4.548,4.5865,4.56,4.589,4.7498,4.8341,4.9628,5.1665,5.3012,5.4139,5.501,5.5893,5.6453,5.6494,5.6718,5.6941,4.6415,4.6174,4.6158,4.5894,4.5484,4.5899,4.6251,4.6554,4.6629,4.6061,4.5146,4.5163,4.5186,4.5165,4.5456,4.5494,4.5395,4.5709,4.5622,4.5185,4.5225,4.5569,4.6143,4.6582,4.7288,4.8199,4.8686,4.9298,4.9994,5.0071,5.0015,4.9924,4.966,4.9437,4.9182,4.8995,4.8787,4.8609,4.7776,4.6987,4.63,4.5412,4.4842,4.4608,4.3739,4.2859,4.1989,4.1416,4.0722,3.9889,3.9182,3.8838,3.8947,3.8109,3.759,3.7553,3.6868,3.6494,3.6559,3.6842,3.7338,3.813,3.908,3.9886,4.0373,3.9538,3.9447,4.0421,4.0572,4.079,4.1357,4.143,4.165,4.2237,4.2292,4.2568,4.31,4.3228,4.3375,4.3724,4.3793,4.4031,4.4586,4.4494,4.4476,4.4879,4.4879,4.4691,4.3999,4.4696,4.5118,4.4568,4.4457,4.4655,4.499,4.5026,4.521,4.5553,4.565,4.5792,4.6109,4.6072,4.67,4.8045,4.9183,5.0598,5.241,5.3929,5.5037,5.5796,5.6428,5.6863,5.6966,5.709,5.7169,4.7151,4.6906,4.6786,4.6561,4.6303,4.6687,4.712,4.7497,4.7617,4.6934,4.5866,4.6058,4.6199,4.6271,4.6708,4.6721,4.6542,4.698,4.6895,4.6417,4.645,4.6869,4.7477,4.7953,4.8637,4.9463,4.9984,5.0394,5.0684,5.0678,5.0622,5.0391,4.9761,4.9498,4.9634,4.9164,4.8888,4.8846,4.8241,4.7456,4.6605,4.5688,4.4975,4.4461,4.4008,4.3151,4.1963,4.1746,4.1187,4.0134,3.9941,3.9883,3.9864,3.9505,3.9146,3.8842,3.8462,3.8154,3.8032,3.862,3.9222,3.9691,4.0458,4.135,4.2126,4.1312,4.0844,4.1415,4.1445,4.1571,4.193,4.2011,4.2229,4.2777,4.2894,4.3249,4.3815,4.3867,4.3804,4.3829,4.3987,4.4152,4.4205,4.4164,4.416,4.4361,4.4856,4.5013,4.4627,4.5302,4.5558,4.5344,4.5169,4.5246,4.5663,4.559,4.5632,4.598,4.6035,4.614,4.6419,4.6597,4.7205,4.8467,5.0118,5.1634,5.3085,5.4752,5.5995,5.6598,5.6966,5.7148,5.7148,5.7169,5.719,4.826,4.8322,4.7987,4.765,4.7394,4.7442,4.7514,4.7593,4.8002,4.7993,4.7505,4.7196,4.6948,4.668,4.6871,4.6943,4.6936,4.7342,4.7727,4.7989,4.8488,4.8889,4.9213,4.9629,4.9926,5.0062,5.0441,5.0625,5.0678,5.0708,5.0795,5.0795,4.992,4.9634,4.9962,4.9322,4.8888,4.8888,4.8802,4.8345,4.7487,4.6624,4.5768,4.4938,4.4484,4.3623,4.2347,4.1927,4.1327,4.0506,4.0117,3.9902,3.9865,3.9544,3.9297,3.9241,3.8899,3.8917,3.9595,4.0066,4.0521,4.1018,4.1736,4.2267,4.2462,4.2625,4.2732,4.2763,4.2485,4.2438,4.2834,4.2857,4.3276,4.4294,4.4476,4.4826,4.5042,4.4977,4.4746,4.4692,4.4365,4.4286,4.452,4.4352,4.4274,4.4549,4.5021,4.5326,4.5283,4.5626,4.6066,4.6066,4.5543,4.5086,4.543,4.5663,4.592,4.6311,4.6421,4.6457,4.6571,4.7002,4.7571,4.8908,5.0735,5.2622,5.3947,5.5442,5.659,5.6925,5.7128,5.719,5.719,5.719,5.719,4.8861,4.901,4.8869,4.8799,4.8748,4.8773,4.8655,4.8493,4.8669,4.8697,4.8574,4.8465,4.8267,4.7942,4.8012,4.8192,4.8454,4.8646,4.8792,4.8971,4.9205,4.9496,4.9854,5.0033,5.0211,5.0448,5.0625,5.0678,5.0727,5.0812,5.0807,5.0625,5.012,4.9847,4.9752,4.9204,4.8888,4.8888,4.8648,4.8231,4.7609,4.6987,4.6128,4.5061,4.4313,4.3473,4.2507,4.1978,4.1476,4.0956,4.0761,4.0683,4.0664,4.051,4.0298,4.0048,3.9852,3.9902,4.0223,4.0868,4.1465,4.194,4.2474,4.3101,4.3853,4.4089,4.4167,4.4081,4.3325,4.3027,4.3633,4.352,4.3779,4.4652,4.4696,4.4737,4.5091,4.4996,4.4889,4.484,4.4483,4.4353,4.4626,4.458,4.4535,4.4751,4.5228,4.563,4.5751,4.6046,4.6326,4.6419,4.5875,4.5765,4.614,4.603,4.6145,4.6329,4.6292,4.6219,4.6865,4.7604,4.8484,4.9547,5.1767,5.355,5.4492,5.5871,5.7049,5.719,5.719,5.719,5.719,5.719,5.719,4.9257,4.9367,4.9466,4.9536,4.9631,4.9672,4.946,4.9143,4.9263,4.9335,4.9349,4.9582,4.9533,4.9328,4.9092,4.9179,4.9485,4.9509,4.9562,4.9634,4.9652,4.9872,5.0228,5.0288,5.0412,5.0643,5.0678,5.0643,5.0603,5.0859,5.0745,5.0307,5.0209,4.997,4.9499,4.9105,4.8826,4.871,4.8432,4.8012,4.7471,4.7094,4.6314,4.5062,4.428,4.3421,4.2428,4.2024,4.1618,4.123,4.1211,4.125,4.1366,4.1366,4.1308,4.123,4.1205,4.1275,4.137,4.1865,4.2349,4.281,4.3321,4.4001,4.4797,4.5226,4.539,4.5305,4.4509,4.4232,4.4348,4.4315,4.4559,4.5319,4.5212,4.5168,4.5457,4.5394,4.5293,4.5211,4.4951,4.4577,4.4739,4.481,4.4898,4.4971,4.5448,4.5998,4.6085,4.6249,4.6366,4.6531,4.6189,4.6132,4.6617,4.6287,4.6109,4.6237,4.6219,4.6525,4.7166,4.8177,4.9382,5.0565,5.2916,5.4473,5.5099,5.623,5.719,5.719,5.719,5.719,5.719,5.719,5.7272,4.9398,4.9592,4.9658,4.9782,4.9714,4.9738,4.9509,4.9246,4.9672,4.9865,4.992,5.0348,5.0619,5.0482,4.9795,4.9503,4.9526,4.9562,4.9783,5.005,5.0068,5.0282,5.0643,5.066,5.066,5.0678,5.0678,5.0519,5.0211,5.0689,5.0597,4.9901,5.0078,4.995,4.944,4.9046,4.871,4.8331,4.8253,4.7874,4.7153,4.7012,4.6311,4.5106,4.4588,4.3706,4.251,4.2024,4.1599,4.1211,4.123,4.1386,4.1734,4.1793,4.2126,4.2798,4.2942,4.312,4.3335,4.3169,4.32,4.3633,4.4274,4.49,4.5065,4.576,4.6212,4.6312,4.6166,4.5875,4.5339,4.5428,4.5893,4.6708,4.6834,4.6796,4.6794,4.6433,4.6237,4.6151,4.5773,4.5292,4.4847,4.5049,4.5246,4.5333,4.5645,4.6053,4.6345,4.6208,4.6202,4.6414,4.6254,4.592,4.5975,4.6158,4.6085,4.6274,4.6745,4.7149,4.7862,4.8716,5.002,5.1457,5.3477,5.489,5.5553,5.6263,5.6965,5.719,5.719,5.719,5.719,5.719,5.7314,4.9794,5.0543,5.0894,5.1023,5.1006,5.0756,5.0443,5.016,5.0311,5.0425,5.0449,5.0624,5.0678,5.0678,5.0412,5.0246,5.0264,5.0288,5.0359,5.0501,5.0483,5.0554,5.066,5.0678,5.0678,5.0678,5.0678,5.0501,5.0205,5.0713,5.0467,4.9673,4.994,4.9735,4.8907,4.8589,4.8313,4.7873,4.7615,4.7315,4.6993,4.6732,4.6037,4.504,4.4316,4.3354,4.2044,4.1637,4.1443,4.1579,4.1579,4.1773,4.216,4.2477,4.2896,4.3476,4.3779,4.3859,4.3736,4.3851,4.3843,4.3753,4.4261,4.4932,4.5421,4.6037,4.6531,4.6816,4.7099,4.7035,4.6846,4.6645,4.689,4.7596,4.7621,4.7578,4.772,4.7456,4.7229,4.7332,4.6838,4.6101,4.5676,4.5634,4.5687,4.57,4.5834,4.6077,4.6377,4.6213,4.6108,4.6432,4.6434,4.636,4.6672,4.669,4.6727,4.691,4.7295,4.8047,4.8785,4.9685,5.0918,5.1669,5.3634,5.4985,5.5548,5.6377,5.7023,5.719,5.719,5.719,5.719,5.7252,5.7459,5.0635,5.1462,5.1839,5.1925,5.1768,5.1499,5.113,5.0713,5.0678,5.0678,5.0678,5.0678,5.0678,5.0678,5.0678,5.0678,5.0678,5.0678,5.0678,5.0678,5.0678,5.0678,5.0678,5.0678,5.0678,5.0678,5.0678,5.0448,5.0062,5.0634,5.0295,4.9107,4.965,4.9418,4.8472,4.8173,4.7853,4.7434,4.7133,4.6953,4.6772,4.6327,4.5696,4.4844,4.408,4.318,4.203,4.16,4.1482,4.1773,4.2043,4.2489,4.3152,4.3799,4.4268,4.4595,4.4723,4.4603,4.4218,4.4293,4.4247,4.4019,4.4488,4.5161,4.5876,4.6596,4.7152,4.7543,4.806,4.8349,4.8328,4.82,4.8169,4.8373,4.8331,4.8328,4.8389,4.8045,4.7902,4.7824,4.7346,4.6743,4.6285,4.6023,4.5917,4.5883,4.5883,4.6048,4.6236,4.6271,4.618,4.65,4.6795,4.6995,4.7351,4.7607,4.7626,4.7791,4.8157,4.8909,4.9497,5.047,5.1315,5.2094,5.3182,5.4537,5.5622,5.6496,5.6903,5.714,5.719,5.719,5.7272,5.7376,5.7686,5.1998,5.231,5.2394,5.2144,5.1873,5.1733,5.1348,5.0802,5.0713,5.0678,5.0678,5.0678,5.0678,5.0678,5.0678,5.0678,5.0678,5.0678,5.0678,5.0678,5.0678,5.0678,5.0678,5.0678,5.0678,5.0678,5.066,5.0264,4.9651,5.0373,5.009,4.8992,4.9202,4.9083,4.8293,4.7813,4.7393,4.7053,4.6933,4.6751,4.6327,4.5982,4.5433,4.4603,4.4059,4.342,4.2506,4.205,4.1851,4.1947,4.2582,4.3593,4.4705,4.5614,4.6199,4.6084,4.5918,4.5495,4.5005,4.4678,4.4534,4.4512,4.5201,4.5835,4.6452,4.7503,4.823,4.8417,4.9025,4.9594,4.9615,4.9892,4.9721,4.88,4.9214,4.9353,4.8836,4.8411,4.8137,4.7822,4.7515,4.7177,4.6663,4.6194,4.593,4.5883,4.5883,4.5944,4.6111,4.6285,4.6439,4.6701,4.716,4.7632,4.8121,4.8579,4.8598,4.8714,4.9129,4.9661,4.9807,5.0508,5.1072,5.1832,5.2818,5.4146,5.5844,5.6623,5.6944,5.7115,5.714,5.7252,5.7417,5.7624,5.8038,5.2308,5.2412,5.2412,5.2317,5.2151,5.1621,5.1236,5.1025,5.0802,5.0678,5.0678,5.0678,5.0678,5.0678,5.0678,5.0678,5.0678,5.0678,5.0678,5.0678,5.0678,5.0678,5.0678,5.0678,5.0678,5.0643,5.043,5.0033,4.9679,4.9956,4.9626,4.884,4.8932,4.8646,4.7853,4.7414,4.6973,4.6569,4.6509,4.6428,4.6307,4.6185,4.5819,4.5312,4.4845,4.4341,4.3779,4.2783,4.2382,4.2603,4.3138,4.4139,4.5567,4.6375,4.6724,4.6762,4.6667,4.6246,4.5576,4.5352,4.5127,4.5065,4.5674,4.6328,4.6883,4.7835,4.8542,4.8854,4.9381,4.9721,4.9848,5.0443,5.0634,5.0312,5.0502,5.0707,5.0482,5.0017,4.948,4.8911,4.805,4.7382,4.7051,4.6513,4.5944,4.5902,4.5902,4.5975,4.6274,4.6476,4.6788,4.7222,4.7791,4.8359,4.8873,4.9313,4.9514,4.9478,4.979,4.9984,5.0149,5.0218,5.0819,5.1648,5.2615,5.3889,5.5613,5.6509,5.6735,5.7035,5.7131,5.7346,5.7624,5.8001,5.8436,5.2402,5.2577,5.2585,5.2515,5.2377,5.1831,5.1481,5.1194,5.0989,5.082,5.0713,5.0678,5.0678,5.0678,5.0678,5.0678,5.0678,5.0678,5.0678,5.0678,5.0678,5.0678,5.0678,5.0678,5.0678,5.0607,5.0299,4.989,4.952,4.949,4.9121,4.8529,4.8386,4.8059,4.7392,4.6973,4.6569,4.6327,4.6307,4.6307,4.6266,4.6145,4.5962,4.5657,4.523,4.4866,4.4543,4.3798,4.3392,4.3624,4.4317,4.5508,4.6792,4.7246,4.7375,4.7229,4.7013,4.661,4.582,4.5637,4.5678,4.5656,4.6227,4.6925,4.7543,4.8291,4.8854,4.9296,4.9721,5.004,5.0294,5.108,5.1614,5.1874,5.1724,5.1696,5.1704,5.1071,5.0354,4.9654,4.8675,4.7949,4.7479,4.6764,4.6101,4.5957,4.6012,4.6164,4.6531,4.6916,4.743,4.7992,4.8616,4.9148,4.9624,5.0028,5.0351,5.0332,5.0332,5.0351,5.0384,5.0145,5.0422,5.1387,5.2374,5.352,5.5102,5.5805,5.6182,5.658,5.6967,5.7381,5.7675,5.8323,5.8788,5.241,5.2862,5.287,5.2723,5.2464,5.2377,5.1953,5.1369,5.1229,5.1095,5.0855,5.0802,5.0749,5.0749,5.0713,5.0678,5.0678,5.0678,5.0678,5.0702,5.075,5.0774,5.072,5.0625,5.0572,5.0554,5.0181,4.9783,4.9317,4.9071,4.8677,4.8002,4.7677,4.7364,4.7029,4.657,4.6347,4.6307,4.6307,4.6307,4.6286,4.5982,4.58,4.5739,4.5393,4.5149,4.5127,4.5043,4.4832,4.47,4.5936,4.7179,4.8026,4.8308,4.817,4.7753,4.7294,4.667,4.6003,4.5922,4.6066,4.6475,4.6946,4.7523,4.8293,4.8771,4.9146,4.9508,5.0019,5.0506,5.0972,5.1824,5.2515,5.2995,5.2671,5.2356,5.1979,5.1428,5.0782,5.0248,4.9372,4.8443,4.7979,4.7112,4.6484,4.6164,4.6287,4.6549,4.6861,4.7393,4.8109,4.8708,4.9276,4.9691,5.0076,5.0259,5.057,5.0534,5.0479,5.0387,5.0406,5.0178,5.0299,5.1252,5.1991,5.3191,5.4214,5.4874,5.5527,5.5956,5.6466,5.7142,5.7725,5.8202,5.8788,5.2176,5.2335,5.2737,5.2843,5.274,5.2533,5.2283,5.204,5.1744,5.1576,5.1453,5.1201,5.1042,5.1025,5.0784,5.0678,5.0678,5.0678,5.0678,5.0768,5.1146,5.1032,5.0697,5.0394,5.0246,5.0157,4.9663,4.9088,4.8696,4.8377,4.7984,4.7562,4.7203,4.7026,4.6931,4.6509,4.6327,4.6307,4.6307,4.6307,4.6286,4.6205,4.6145,4.6124,4.6003,4.5941,4.5978,4.6229,4.6186,4.5854,4.705,4.8073,4.8617,4.8979,4.8967,4.847,4.7833,4.7234,4.6814,4.6658,4.6886,4.7338,4.7755,4.8294,4.8839,4.9023,4.9146,4.9401,4.9934,5.0464,5.0761,5.1741,5.2626,5.3082,5.3032,5.2994,5.2894,5.1956,5.1052,5.1049,4.9675,4.8638,4.8064,4.7402,4.6793,4.6531,4.6696,4.7081,4.7393,4.7846,4.8543,4.9148,4.9716,5.0112,5.0442,5.057,5.0662,5.0589,5.0461,5.0222,5.0196,5.0131,5.0557,5.1269,5.1442,5.2377,5.3217,5.3978,5.457,5.5168,5.5959,5.6597,5.7104,5.7627,5.8313,5.1674,5.2126,5.2435,5.2711,5.2853,5.2705,5.255,5.2352,5.2151,5.1855,5.1569,5.1341,5.113,5.0972,5.0784,5.0678,5.0678,5.0678,5.084,5.1045,5.1184,5.104,5.0729,5.0342,5.0015,4.9777,4.9268,4.8817,4.8332,4.7702,4.7298,4.7071,4.6624,4.6461,4.667,4.6468,4.6307,4.6307,4.6307,4.6307,4.6307,4.6307,4.6307,4.6307,4.6307,4.6367,4.6588,4.696,4.72,4.7418,4.8087,4.8719,4.9329,4.9635,4.9519,4.8967,4.839,4.7914,4.7439,4.7412,4.7666,4.7959,4.8421,4.8776,4.9026,4.9105,4.9123,4.9444,4.9849,5.0252,5.0826,5.1788,5.2649,5.3052,5.3015,5.3038,5.3254,5.2018,5.1484,5.1126,5.01,4.8803,4.8538,4.7702,4.711,4.6892,4.7118,4.7503,4.7907,4.8414,4.8946,4.9551,5.0028,5.0387,5.0552,5.0644,5.0699,5.0644,5.057,5.0296,5.0171,5.0093,5.0276,5.0719,5.0981,5.133,5.2035,5.2813,5.3628,5.4322,5.5221,5.6004,5.6571,5.7002,5.7737,5.1021,5.1908,5.2034,5.2385,5.2787,5.2845,5.274,5.2498,5.2464,5.2057,5.1534,5.1324,5.1148,5.0749,5.0767,5.0678,5.0702,5.0816,5.1177,5.1261,5.1117,5.0758,5.0715,5.0121,4.9735,4.9401,4.9088,4.86,4.7982,4.7083,4.668,4.6557,4.6018,4.5934,4.6302,4.6327,4.6307,4.6307,4.6307,4.6307,4.6307,4.6307,4.6307,4.6307,4.6448,4.667,4.7053,4.7532,4.8086,4.8962,4.8979,4.9413,5.0118,5.0241,4.995,4.9302,4.8967,4.845,4.7938,4.8083,4.8285,4.8418,4.8819,4.9111,4.9169,4.9145,4.9209,4.9465,4.9678,5.0208,5.1101,5.1996,5.257,5.2905,5.2694,5.2429,5.2268,5.1889,5.1567,5.1368,5.0132,4.9432,4.884,4.8115,4.7167,4.724,4.7516,4.7925,4.8366,4.8818,4.9349,4.9874,5.0277,5.0625,5.068,5.068,5.0699,5.068,5.0662,5.049,5.0258,5.0165,4.9999,5.0081,5.0264,5.0368,5.055,5.1404,5.248,5.3354,5.4194,5.5214,5.611,5.6451,5.701,5.0528,5.0829,5.1749,5.2176,5.2335,5.2694,5.2861,5.2792,5.2792,5.2498,5.2109,5.1796,5.1429,5.106,5.082,5.0678,5.075,5.1105,5.161,5.191,5.0801,5.0376,5.0223,4.9641,4.9238,4.8962,4.8377,4.7868,4.7337,4.6684,4.6203,4.6219,4.5864,4.5832,4.6222,4.6307,4.6307,4.6307,4.6307,4.6307,4.6307,4.6307,4.6307,4.6367,4.665,4.7053,4.7533,4.8211,4.9024,4.9671,4.9917,5.0106,5.053,5.0672,5.0516,5.0126,4.9381,4.8828,4.8641,4.8479,4.8499,4.8896,4.9091,4.9233,4.953,4.9251,4.9166,4.9294,4.9529,5.0184,5.1245,5.21,5.2365,5.2387,5.2173,5.1874,5.1767,5.1654,5.1358,5.084,4.9973,4.9028,4.8335,4.8027,4.757,4.7632,4.7919,4.8322,4.8763,4.9239,4.9698,5.0167,5.0296,5.057,5.0699,5.0699,5.0699,5.0699,5.0699,5.0524,5.0319,4.9996,4.974,4.9585,4.9532,4.9585,4.9585,5.051,5.1681,5.2409,5.3168,5.414,5.5,5.5578,5.6127,5.0327,5.087,5.1473,5.2026,5.2485,5.2787,5.2895,5.2895,5.2895,5.2602,5.2151,5.1873,5.1481,5.0972,5.0784,5.0678,5.0822,5.1249,5.1375,5.1183,5.0418,5.004,4.9567,4.9106,4.8709,4.86,4.8105,4.7538,4.6854,4.6179,4.5766,4.5874,4.551,4.5696,4.6202,4.6307,4.6307,4.6307,4.6307,4.6307,4.6307,4.6307,4.6448,4.659,4.6913,4.7254,4.7933,4.8529,4.93,5.0009,5.038,5.0653,5.0983,5.106,5.0905,5.0419,5.0009,4.9395,4.9225,4.9262,4.939,4.9606,4.9681,4.968,4.9636,4.9337,4.8995,4.8907,4.9156,4.9806,5.0698,5.1193,5.143,5.1439,5.127,5.1133,5.1196,5.1109,5.0853,5.0341,4.9579,4.889,4.8316,4.7887,4.7907,4.7882,4.8304,4.8708,4.9129,4.9588,4.9973,5.0296,5.0314,5.0442,5.0625,5.0699,5.0699,5.0699,5.0699,5.0446,5.0175,4.9792,4.9436,4.9226,4.9034,4.8772,4.893,4.9935,5.07,5.1282,5.2037,5.2986,5.3885,5.4615,5.5133,5.0293,5.1188,5.1339,5.195,5.2694,5.2862,5.2895,5.2895,5.2895,5.2498,5.1908,5.1803,5.1401,5.0837,5.0696,5.072,5.0936,5.1039,5.1016,5.0544,5.0232,4.9735,4.915,4.8714,4.8377,4.8291,4.7868,4.7259,4.6485,4.5788,4.5468,4.5519,4.5216,4.5517,4.612,4.6307,4.6307,4.6307,4.6307,4.6307,4.6307,4.6307,4.6509,4.6893,4.7275,4.7655,4.8352,4.8905,4.9519,5.0244,5.0672,5.1021,5.1273,5.1354,5.1102,5.038,5.0204,4.9954,4.9759,4.9902,5.0094,5.0301,5.0271,5.004,4.9636,4.9187,4.8802,4.8664,4.8777,4.9099,4.9547,5.0083,5.0325,5.0337,5.0314,5.039,5.0555,5.0289,4.9824,4.9742,4.9066,4.837,4.8104,4.7808,4.7999,4.8231,4.8653,4.9031,4.9434,4.9819,5.0186,5.0332,5.0351,5.0277,5.0406,5.0699,5.0699,5.0699,5.0699,5.0368,5.0029,4.9585,4.9174,4.8798,4.8535,4.8307,4.8428,4.9283,4.9894,5.0232,5.1091,5.2236,5.3071,5.3734,5.4024,5.0377,5.0628,5.1557,5.2101,5.2285,5.2694,5.2895,5.2895,5.2878,5.2481,5.1855,5.1786,5.1365,5.0837,5.0678,5.0936,5.1129,5.1063,5.0801,5.0448,5.0023,4.9387,4.8954,4.8509,4.8196,4.7868,4.7442,4.6836,4.6077,4.5358,4.5208,4.542,4.5259,4.5498,4.6079,4.6307,4.6307,4.6307,4.6307,4.6307,4.6307,4.6388,4.665,4.7174,4.7735,4.8293,4.8868,4.9555,5.0224,5.0672,5.108,5.1273,5.1335,5.1354,5.108,5.0672,5.0327,5.0122,5.0071,4.9947,4.987,4.9802,4.9892,4.9658,4.9251,4.8822,4.8541,4.8374,4.8356,4.8549,4.9003,4.932,4.9839,5.0017,4.9847,4.9756,4.9844,4.9261,4.8712,4.889,4.8383,4.7964,4.7861,4.7852,4.8072,4.8347,4.8763,4.9111,4.9441,4.9881,5.0277,5.0351,5.0332,5.0222,5.0167,5.0516,5.0699,5.0699,5.0621,5.0316,4.9925,4.9384,4.8938,4.843,4.8078,4.7856,4.8221,4.8835,4.9335,4.9821,5.0698,5.158,5.2062,5.2499,5.2363,5.0594,5.0946,5.1749,5.2277,5.2536,5.2787,5.2895,5.2861,5.2723,5.2342,5.189,5.1569,5.1183,5.0802,5.0678,5.0864,5.0936,5.0864,5.0502,5.0132,4.968,4.9191,4.8709,4.8268,4.7886,4.7428,4.6873,4.6318,4.567,4.5157,4.5051,4.5229,4.5288,4.5705,4.6162,4.6307,4.6307,4.6307,4.6307,4.6307,4.6347,4.6509,4.7053,4.7894,4.8392,4.8907,4.9597,5.0126,5.0575,5.0828,5.118,5.1215,5.1157,5.1041,5.0886,5.05,5.0289,5.0211,5.0317,5.0294,5.0464,5.0416,5.0188,4.9742,4.9187,4.8693,4.8251,4.7945,4.7598,4.7654,4.8076,4.8358,4.8528,4.8705,4.8656,4.8757,4.8695,4.7962,4.7998,4.8251,4.8057,4.784,4.771,4.7821,4.8072,4.8439,4.8854,4.9184,4.9478,4.9973,5.0442,5.0387,5.0369,5.0259,5.0204,5.0442,5.068,5.0699,5.0576,5.029,4.9794,4.9226,4.8561,4.792,4.7662,4.7614,4.7941,4.8519,4.896,4.9439,5.0262,5.092,5.1027,5.1128,5.1155,5.0887,5.1339,5.2,5.2511,5.287,5.2895,5.2843,5.2757,5.2533,5.2151,5.1656,5.1359,5.1025,5.0767,5.0678,5.0702,5.0678,5.0625,5.0163,4.9681,4.9407,4.8993,4.8341,4.7922,4.752,4.6836,4.6281,4.5686,4.5304,4.5023,4.4951,4.5138,4.5497,4.5912,4.6224,4.6307,4.6307,4.6307,4.6307,4.6327,4.6529,4.7093,4.7814,4.8848,4.9085,4.9538,5.0224,5.0555,5.0808,5.0983,5.1199,5.1238,5.0866,5.073,5.0458,5.0076,5.01,5.0185,5.0263,5.0578,5.0703,5.0505,5.0316,4.9721,4.9014,4.8318,4.779,4.7269,4.69,4.6798,4.7231,4.7289,4.7382,4.756,4.766,4.7643,4.7847,4.7699,4.7691,4.7798,4.7795,4.7781,4.7699,4.7901,4.82,4.8476,4.8873,4.9239,4.9588,5.023,5.057,5.0479,5.0406,5.0314,5.0314,5.0461,5.0644,5.0699,5.055,5.0316,4.9698,4.9043,4.8377,4.7735,4.7703,4.7724,4.7998,4.8289,4.8836,4.9361,4.9882,5.022,5.0366,5.0493,5.0576,5.1239,5.1389,5.2385,5.2845,5.2895,5.2878,5.2723,5.2481,5.2394,5.1953,5.1299,5.1194,5.0972,5.0749,5.0678,5.0678,5.0572,5.0335,4.9961,4.9455,4.9155,4.8672,4.7977,4.7849,4.7094,4.6377,4.5785,4.5256,4.5015,4.4919,4.4955,4.5122,4.554,4.5892,4.6265,4.6307,4.6307,4.6307,4.6307,4.6549,4.7073,4.8034,4.863,4.9125,4.9637,5.0224,5.0653,5.0847,5.0963,5.1277,5.1354,5.1199,5.0828,5.0458,4.9852,4.955,4.9641,5.0064,4.9877,5.0274,5.033,5.004,4.9593,4.9059,4.8363,4.7577,4.6853,4.6243,4.6131,4.6294,4.6612,4.6705,4.6916,4.7234,4.7455,4.7605,4.7667,4.7519,4.7539,4.7733,4.7826,4.7808,4.7754,4.8054,4.8329,4.8604,4.8891,4.9276,4.9661,5.0204,5.067,5.056,5.0387,5.0277,5.0406,5.057,5.0625,5.068,5.0446,5.0238,4.9541,4.8859,4.8377,4.7893,4.7808,4.7895,4.8221,4.8529,4.8854,4.9245,4.9737,4.9795,4.9702,4.984,5.0079,5.149,5.1841,5.2569,5.2895,5.2861,5.2705,5.255,5.2342,5.1918,5.1527,5.1194,5.0989,5.0837,5.072,5.0678,5.0572,5.0377,5.0187,4.9771,4.9256,4.8864,4.8369,4.7813,4.7314,4.6614,4.609,4.5626,4.5309,4.4996,4.4927,4.5056,4.5434,4.5809,4.612,4.6307,4.6307,4.6307,4.6388,4.661,4.7174,4.7954,4.863,4.9263,4.9911,5.0341,5.0711,5.1002,5.1138,5.1219,5.1354,5.1238,5.0866,5.04,4.9875,4.9252,4.9065,4.9255,4.9418,4.9411,4.9969,4.9892,4.951,4.9101,4.8668,4.7716,4.6739,4.6166,4.6056,4.5941,4.6051,4.6157,4.6189,4.6306,4.6606,4.7078,4.7179,4.7298,4.74,4.7397,4.765,4.7889,4.7907,4.7944,4.8127,4.8329,4.8512,4.8891,4.9368,4.9636,4.9966,5.0332,5.0578,5.0387,5.0222,5.0442,5.0644,5.0644,5.0621,5.0256,4.9925,4.9279,4.8675,4.8193,4.7918,4.7779,4.8015,4.8436,4.8734,4.8981,4.93,4.9591,4.9591,4.9591,4.9618,4.9785,5.1691,5.231,5.2737,5.2843,5.2757,5.2491,5.2248,5.2005,5.1492,5.1159,5.1042,5.0837,5.0732,5.0764,5.074,5.0658,5.0352,5.0233,4.9782,4.9261,4.8768,4.8373,4.78,4.7099,4.6407,4.5837,4.5254,4.4953,4.4864,4.4928,4.5226,4.5685,4.6037,4.6245,4.6286,4.6307,4.6327,4.659,4.7234,4.7974,4.8688,4.9223,4.9911,5.0497,5.0905,5.108,5.1335,5.1392,5.1392,5.1354,5.1064,5.0672,5.0224,4.9499,4.8967,4.8735,4.8759,4.8647,4.888,4.9323,4.951,4.9144,4.8493,4.7849,4.6761,4.583,4.5607,4.5974,4.5921,4.5899,4.5907,4.5907,4.5978,4.6153,4.6374,4.6481,4.6696,4.7129,4.7539,4.7876,4.8047,4.8109,4.8145,4.8237,4.8347,4.8439,4.8836,4.9404,4.9654,4.9837,5.0021,5.0277,5.0149,5.0094,5.0516,5.068,5.068,5.0543,5.016,4.9689,4.9122,4.8588,4.8087,4.789,4.7795,4.8101,4.8505,4.882,4.9135,4.9375,4.9591,4.9591,4.9591,4.9591,4.9591,5.19,5.2845,5.287,5.2757,5.2481,5.2429,5.197,5.1464,5.1247,5.1007,5.0802,5.0726,5.0777,5.0842,5.0859,5.0855,5.084,5.0592,5.0031,4.9644,4.9347,4.8584,4.7821,4.6971,4.6193,4.5425,4.4926,4.4567,4.4473,4.4872,4.5249,4.5705,4.6099,4.6245,4.6327,4.6367,4.667,4.7113,4.7954,4.865,4.9302,4.9892,5.0614,5.0808,5.1138,5.1373,5.1392,5.1392,5.1354,5.1335,5.0925,5.0439,4.9931,4.923,4.8718,4.836,4.8127,4.8025,4.8227,4.8643,4.8805,4.8344,4.7552,4.6699,4.5932,4.5927,4.5909,4.5911,4.5917,4.5907,4.5883,4.5883,4.5883,4.6012,4.625,4.658,4.6892,4.7314,4.7723,4.8127,4.8231,4.8237,4.8237,4.8292,4.8311,4.8384,4.8799,4.9368,4.9551,4.9691,4.9764,4.9874,4.9764,4.9947,5.0552,5.0699,5.0699,5.0446,5.0055,4.9611,4.9095,4.8561,4.7867,4.7862,4.781,4.8196,4.859,4.894,4.9238,4.9471,4.9591,4.9591,4.9591,4.9591,4.9591,5.2251,5.2895,5.2895,5.2826,5.2671,5.2238,5.1848,5.1499,5.1078,5.0813,5.0708,5.0801,5.086,5.09,5.0899,5.0683,5.0295,5.015,4.9668,4.9137,4.8645,4.8053,4.7282,4.657,4.5776,4.4962,4.4556,4.4454,4.4378,4.4733,4.5249,4.5685,4.6058,4.6245,4.6347,4.661,4.7093,4.7733,4.8509,4.9184,5.0126,5.0419,5.0905,5.1176,5.1254,5.1392,5.1392,5.1392,5.1257,5.1025,5.0653,5.0126,4.9568,4.8911,4.8434,4.8042,4.7775,4.766,4.7642,4.797,4.7904,4.706,4.6052,4.5312,4.5368,4.5371,4.5543,4.5678,4.5883,4.5883,4.5883,4.5883,4.5902,4.5993,4.6232,4.6599,4.702,4.7406,4.7827,4.8157,4.8274,4.8292,4.8292,4.8311,4.8311,4.8347,4.8818,4.9214,4.9404,4.9551,4.9599,4.9782,4.9764,4.9984,5.057,5.0662,5.0699,5.0368,5.0003,4.9488,4.8964,4.814,4.7601,4.7675,4.7922,4.8299,4.8649,4.9077,4.9351,4.9539,4.9591,4.9591,4.9591,4.9591,4.9591,5.241,5.287,5.2895,5.2843,5.2688,5.2203,5.1838,5.1558,5.1078,5.0798,5.0782,5.0872,5.0842,5.0833,5.0824,5.0576,5.0087,4.9791,4.9288,4.8764,4.8215,4.7507,4.68,4.6036,4.5284,4.4554,4.4304,4.4282,4.407,4.4546,4.4981,4.5436,4.5892,4.6099,4.6428,4.6912,4.7533,4.8172,4.9024,4.9673,5.0692,5.0925,5.106,5.1331,5.1392,5.1392,5.1354,5.1254,5.106,5.073,5.0305,4.9745,4.917,4.8652,4.8204,4.79,4.7641,4.7496,4.7476,4.7283,4.691,4.6039,4.5254,4.4961,4.4994,4.5022,4.5371,4.5797,4.5883,4.5883,4.5883,4.5883,4.5883,4.5957,4.6054,4.636,4.6892,4.7332,4.7772,4.8176,4.8255,4.8311,4.8311,4.8329,4.8439,4.8421,4.8524,4.8909,4.9166,4.9313,4.9434,4.9672,4.9911,5.0241,5.0607,5.0662,5.0673,5.0394,5.0003,4.9384,4.8754,4.7929,4.7461,4.7555,4.7854,4.8333,4.8717,4.9094,4.9351,4.9573,4.9591,4.9591,4.9591,4.9591,4.9591,5.241,5.287,5.2895,5.2723,5.2498,5.2412,5.1953,5.1376,5.113,5.1007,5.0878,5.0876,5.0803,5.0668,5.0626,5.031,4.9926,4.9568,4.9075,4.851,4.7851,4.7295,4.6498,4.5641,4.4923,4.471,4.4273,4.3815,4.3698,4.4092,4.4567,4.5043,4.5519,4.5975,4.6346,4.7152,4.7772,4.8309,4.9438,5.0244,5.075,5.1099,5.1292,5.1373,5.1392,5.1392,5.1215,5.1041,5.0811,5.0496,4.9966,4.9531,4.9243,4.8645,4.8251,4.8042,4.7402,4.7086,4.6973,4.6571,4.598,4.5318,4.4722,4.4674,4.4843,4.5045,4.5393,4.5815,4.5883,4.5883,4.5883,4.5883,4.5883,4.5938,4.6012,4.6324,4.6874,4.7314,4.7772,4.8157,4.8274,4.8311,4.8311,4.8347,4.8531,4.8549,4.8432,4.8598,4.8928,4.9221,4.9423,4.9746,5.0076,5.0351,5.0625,5.0662,5.0621,5.0368,4.9951,4.9305,4.8702,4.8008,4.7646,4.7556,4.7905,4.847,4.8786,4.9094,4.9351,4.9591,4.9591,4.9591,4.9591,4.9563,4.9535,5.241,5.2895,5.2895,5.2843,5.2705,5.2473,5.2074,5.1499,5.0873,5.0622,5.0816,5.0747,5.0653,5.0536,5.0261,4.9905,4.9315,4.8844,4.8343,4.7619,4.7167,4.6445,4.5692,4.5142,4.4573,4.4113,4.3654,4.3615,4.3635,4.3823,4.4092,4.4567,4.5333,4.5892,4.6424,4.7132,4.7772,4.8369,4.9438,5.04,5.0789,5.1157,5.1392,5.1392,5.1392,5.1277,5.109,5.0857,5.0521,5.0196,4.9647,4.9325,4.8966,4.8335,4.8066,4.7653,4.7004,4.6733,4.6249,4.5722,4.5345,4.4898,4.4456,4.4328,4.4706,4.4828,4.5275,4.5742,4.5883,4.5883,4.5883,4.5883,4.5902,4.5975,4.614,4.6544,4.7002,4.7387,4.7772,4.8127,4.8311,4.8311,4.8311,4.8311,4.8457,4.8494,4.8384,4.8561,4.8873,4.9276,4.9551,4.9929,5.0277,5.0497,5.0662,5.068,5.0699,5.0569,4.9951,4.9174,4.857,4.8035,4.7811,4.7665,4.8101,4.8563,4.8923,4.9248,4.9437,4.9591,4.9591,4.9591,4.9591,4.9507,4.9413,5.241,5.2895,5.2895,5.2895,5.2861,5.2671,5.2308,5.1663,5.0625,5.0412,5.0762,5.0481,5.0204,5.0122,4.9827,4.9219,4.8448,4.78,4.7413,4.6632,4.6135,4.5499,4.4907,4.4534,4.4133,4.3694,4.3615,4.3615,4.3615,4.3615,4.4008,4.467,4.5291,4.5871,4.6404,4.6992,4.7653,4.8331,4.9339,5.0202,5.0711,5.1118,5.1392,5.1354,5.128,5.1151,5.0977,5.0639,5.0221,4.9836,4.9469,4.907,4.8525,4.819,4.7845,4.7277,4.6769,4.64,4.583,4.5314,4.5034,4.4718,4.3995,4.3963,4.4454,4.4641,4.5178,4.5632,4.5847,4.5883,4.5883,4.5883,4.592,4.5975,4.614,4.6525,4.702,4.7387,4.7717,4.8072,4.8311,4.8311,4.8311,4.8311,4.8347,4.8347,4.8311,4.8604,4.8873,4.9258,4.968,5.0076,5.0387,5.057,5.0662,5.068,5.0699,5.0699,4.9951,4.9069,4.8649,4.8157,4.7977,4.7878,4.8255,4.8666,4.9084,4.9409,4.9539,4.9591,4.9591,4.9591,4.9591,4.9396,4.9191,5.2402,5.287,5.2895,5.2895,5.2895,5.2792,5.2394,5.1681,5.0548,5.0386,5.087,5.009,4.973,4.9476,4.9083,4.8407,4.7584,4.6749,4.6337,4.5885,4.5186,4.4577,4.4268,4.3997,4.3833,4.3693,4.3653,4.371,4.3634,4.3615,4.407,4.4737,4.5193,4.5629,4.608,4.6506,4.7209,4.8069,4.8851,4.9721,5.0374,5.0963,5.1167,5.1174,5.1087,5.104,5.0807,5.0432,5.0033,4.9686,4.9368,4.8796,4.8399,4.8249,4.7706,4.7086,4.6464,4.5948,4.5411,4.4879,4.4491,4.4051,4.3745,4.3802,4.4178,4.461,4.5114,4.5613,4.5883,4.5883,4.5883,4.5883,4.5902,4.5938,4.5999,4.6415,4.6947,4.7351,4.7662,4.7956,4.8237,4.8311,4.8311,4.8311,4.8311,4.8366,4.8439,4.8726,4.9019,4.9276,4.9716,5.0186,5.0461,5.0625,5.0699,5.0699,5.0699,5.0699,4.9794,4.8964,4.8596,4.8262,4.8019,4.7964,4.8323,4.8752,4.9238,4.9477,4.9573,4.9591,4.9591,4.9591,4.9591,4.9091,4.8785,5.2034,5.287,5.2895,5.2895,5.2809,5.2342,5.1813,5.1229,5.0193,4.9878,5.0113,4.9645,4.924,4.9039,4.8589,4.7699,4.6891,4.6102,4.5444,4.4912,4.45,4.4131,4.394,4.3907,4.3805,4.3765,4.3784,4.3805,4.3615,4.3577,4.3842,4.4466,4.4754,4.5065,4.5351,4.5513,4.652,4.7523,4.8304,4.9099,4.9844,5.0445,5.0717,5.0939,5.0937,5.087,5.0584,5.0311,4.982,4.8964,4.8735,4.8291,4.7913,4.7543,4.6971,4.6075,4.5508,4.499,4.4365,4.4095,4.3773,4.3339,4.3093,4.3731,4.4186,4.4675,4.5063,4.5522,4.5865,4.5883,4.5883,4.5883,4.5883,4.592,4.6054,4.6439,4.6929,4.7314,4.7644,4.8072,4.8311,4.8311,4.8311,4.8311,4.8329,4.8402,4.8586,4.8891,4.9203,4.9459,4.9808,5.0296,5.0497,5.0662,5.0699,5.0699,5.0699,5.055,4.9645,4.8964,4.8667,4.8341,4.8035,4.8196,4.8683,4.9094,4.9471,4.9591,4.9591,4.9591,4.9591,4.9591,4.948,4.8924,4.8451,5.1485,5.2406,5.2464,5.2464,5.236,5.1813,5.1271,5.0689,4.9848,4.9531,4.9455,4.8994,4.8633,4.8257,4.7671,4.693,4.6103,4.5406,4.4834,4.4544,4.4113,4.4018,4.3943,4.3919,4.3881,4.3879,4.3803,4.3691,4.3465,4.3404,4.3601,4.4053,4.4196,4.4583,4.4866,4.5047,4.5628,4.6732,4.7689,4.8399,4.919,4.9991,5.0579,5.0766,5.0741,5.0577,5.0442,5.0241,4.9341,4.8647,4.8539,4.8023,4.7465,4.6834,4.6376,4.5568,4.5006,4.4426,4.387,4.3716,4.3224,4.2865,4.2858,4.3551,4.4119,4.4612,4.5031,4.5485,4.5742,4.5883,4.5883,4.5883,4.5883,4.5902,4.6201,4.6494,4.6874,4.7259,4.7699,4.8164,4.8311,4.8311,4.8311,4.8311,4.8402,4.8579,4.8836,4.9122,4.9452,4.9746,5.0076,5.0497,5.0607,5.0699,5.0699,5.0647,5.0569,5.029,4.9567,4.8982,4.8711,4.8445,4.8159,4.8546,4.9118,4.9437,4.9591,4.9591,4.9591,4.9591,4.9535,4.9424,4.9147,4.8579,4.816,5.0886,5.182,5.1803,5.1838,5.1716,5.1341,5.0736,5.0033,4.9544,4.9235,4.8881,4.8286,4.7773,4.7371,4.6829,4.6174,4.5466,4.4793,4.4443,4.4216,4.3865,4.377,4.3864,4.3862,4.39,4.3957,4.3902,4.3696,4.3207,4.3163,4.3332,4.3718,4.406,4.4361,4.442,4.4381,4.49,4.5893,4.695,4.7859,4.8874,4.9882,5.0731,5.0692,5.0498,5.0344,5.0382,4.9868,4.9006,4.8829,4.8437,4.7748,4.6987,4.6133,4.5673,4.5149,4.4507,4.3811,4.3265,4.3031,4.2931,4.283,4.3099,4.3313,4.3634,4.4444,4.4953,4.5393,4.5645,4.5847,4.5883,4.5695,4.5601,4.5601,4.5788,4.6208,4.6682,4.7217,4.7846,4.8219,4.8311,4.8311,4.8347,4.8366,4.8451,4.8701,4.9159,4.9489,4.9654,4.9966,5.0314,5.0644,5.0662,5.0699,5.0699,5.0621,5.0368,5.0003,4.9384,4.8983,4.8675,4.8466,4.8289,4.8759,4.9255,4.9454,4.9591,4.9591,4.9591,4.9591,4.948,4.9285,4.8868,4.8328,4.7853,5.1189,5.1803,5.1803,5.1621,5.1324,5.0948,5.0364,4.9598,4.8939,4.8507,4.8145,4.7669,4.7144,4.657,4.6303,4.5669,4.4765,4.4422,4.4112,4.3905,4.3635,4.371,4.3824,4.3898,4.3917,4.3862,4.3808,4.3726,4.3379,4.3213,4.322,4.3638,4.3897,4.3955,4.3752,4.372,4.4359,4.5209,4.6149,4.7322,4.849,4.8722,4.9139,4.9698,4.9925,4.9929,4.9892,4.949,4.8677,4.8134,4.7615,4.703,4.6464,4.5585,4.4976,4.4513,4.3815,4.3059,4.2435,4.2097,4.1931,4.1829,4.1945,4.2335,4.3004,4.407,4.4838,4.5218,4.5567,4.575,4.5766,4.5506,4.5294,4.5294,4.533,4.5873,4.6441,4.7223,4.7968,4.8182,4.8292,4.8329,4.8366,4.8414,4.8543,4.8939,4.9562,4.9911,4.9874,5.0057,5.0387,5.0662,5.068,5.0699,5.0699,5.0569,5.0342,4.9898,4.9331,4.8983,4.8682,4.8679,4.8683,4.893,4.9272,4.9471,4.9591,4.9591,4.9591,4.9591,4.9565,4.9405,4.8824,4.825,4.7674,5.0802,5.1288,5.1313,5.1165,5.0937,5.0583,5.0086,4.9401,4.8541,4.7935,4.7559,4.7181,4.6708,4.6085,4.5815,4.5402,4.4488,4.4128,4.3882,4.3677,4.3634,4.3748,4.3862,4.3959,4.3955,4.3881,4.3635,4.3477,4.3413,4.324,4.3218,4.3472,4.3529,4.3507,4.3209,4.3519,4.404,4.4785,4.5648,4.6834,4.8206,4.8708,4.9041,4.9635,4.9702,4.9702,4.9468,4.9166,4.8415,4.7593,4.692,4.6396,4.5826,4.51,4.4454,4.3893,4.3158,4.2261,4.1588,4.1188,4.1031,4.1062,4.1287,4.1924,4.2367,4.3388,4.427,4.4729,4.5228,4.5441,4.5318,4.5081,4.4868,4.4797,4.4934,4.5281,4.632,4.7362,4.793,4.8237,4.8311,4.8311,4.8347,4.8347,4.8487,4.8829,4.9507,4.9947,4.9984,5.0167,5.0497,5.0699,5.0699,5.0699,5.0699,5.0543,5.029,4.982,4.9253,4.8948,4.8668,4.894,4.9121,4.9183,4.9319,4.9505,4.9591,4.948,4.9563,4.9591,4.9571,4.9569,4.8842,4.8148,4.7653,5.0243,5.0654,5.0696,5.0696,5.0625,5.0211,4.9813,4.9347,4.8323,4.7593,4.7201,4.6799,4.6369,4.5784,4.5269,4.4963,4.4553,4.3978,4.3656,4.3596,4.3615,4.3814,4.3931,4.3949,4.4015,4.3835,4.3501,4.3396,4.33,4.3177,4.3131,4.3224,4.336,4.3477,4.3291,4.3518,4.408,4.4805,4.5718,4.6824,4.8025,4.9112,4.9343,4.9512,4.9617,4.9615,4.9315,4.8802,4.8113,4.7334,4.6462,4.587,4.5365,4.475,4.4106,4.35,4.2839,4.1936,4.117,4.0883,4.0808,4.0867,4.1187,4.1528,4.1943,4.2617,4.3515,4.4162,4.4656,4.4951,4.4827,4.4631,4.4394,4.4388,4.4565,4.4934,4.6168,4.7373,4.7819,4.8218,4.8311,4.8311,4.8311,4.8311,4.8524,4.8848,4.9232,4.9617,4.9966,5.0277,5.0589,5.0699,5.0699,5.0699,5.0699,5.0569,5.0386,4.9619,4.907,4.884,4.8738,4.9035,4.9227,4.9249,4.9369,4.9285,4.9258,4.9163,4.9285,4.9424,4.9747,4.966,4.8595,4.7934,4.7579,5.0208,5.0678,5.0678,5.0678,5.0572,4.9943,4.9562,4.9329,4.8287,4.7575,4.7101,4.6399,4.576,4.5067,4.4933,4.4677,4.4252,4.3775,4.3675,4.3615,4.3678,4.3941,4.4107,4.4132,4.4207,4.3925,4.3557,4.338,4.3376,4.3249,4.3282,4.3555,4.3574,4.338,4.2815,4.3278,4.4099,4.4885,4.5902,4.701,4.7961,4.8712,4.8857,4.9045,4.9231,4.8973,4.8608,4.8134,4.7615,4.6965,4.618,4.5497,4.4946,4.4447,4.3824,4.314,4.2481,4.1606,4.0929,4.0525,4.0404,4.0294,4.0568,4.0795,4.128,4.1869,4.2674,4.3353,4.385,4.4365,4.4329,4.399,4.3769,4.3986,4.4191,4.5014,4.6075,4.6975,4.7656,4.802,4.8261,4.8286,4.8311,4.8377,4.8524,4.8903,4.9397,4.9746,4.9837,5.0241,5.068,5.0699,5.0699,5.0699,5.0699,5.0673,5.0412,4.9593,4.893,4.8689,4.8743,4.9204,4.9343,4.9168,4.8924,4.8729,4.8729,4.8718,4.8868,4.9086,4.9783,4.9734,4.8595,4.782,4.7507]}]]